[[{"header":{"parameterUnit":"m.s-1","parameterCategory":1,"la1":30.6,"la2":28.766,"lo1":-90.7593,"lo2":-88.6598,"dy":0.0162,"dx":0.0183,"nx":116,"ny":114,"refTime":"2023-05-14T06:00:00:Z","depth":0,"parameterNumber":2,"parameterNumberName":"U-component_of_WINDS"},"data":[0.0,0.0,0.0,0.0,0.0,0.0,0.0,0.0,0.0,0.0,0.0,0.0,0.0,0.0,0.0,0.0,0.0,0.0,0.0,0.0,0.0,0.0,0.0,0.0,0.0,0.0,0.0,0.0,0.0,0.0,0.0,0.0,0.0,0.0,0.0,0.0,0.0,0.0,0.0,0.0,0.0,0.0,0.0,0.0,0.0,0.0,0.0,0.0,0.0,0.0,0.0,0.0,0.0,0.0,0.0,0.0,0.0,0.0,0.0,0.0,0.0,0.0,0.0,0.0,0.0,0.0,0.0,0.0,0.0,0.0,0.0,0.0,0.0,0.0,0.0,0.0,0.0,0.0,0.0,0.0,0.0,0.0,0.0,0.0,0.0,0.0,0.0,0.0,0.0,0.0,0.0,0.0,0.0,0.0,0.0,0.0,0.0,0.0,0.0,0.0,0.0,0.0,0.0,0.0,0.0,0.0,0.0,0.0,0.0,0.0,0.0,0.0,0.0,0.0,0.0,0.0,0.0,0.0,0.0,0.0,0.0,0.0,0.0,0.0,0.0,0.0,0.0,0.0,0.0,0.0,0.0,0.0,0.0,0.0,0.0,0.0,0.0,0.0,0.0,0.0,0.0,0.0,0.0,0.0,0.0,0.0,0.0,0.0,0.0,0.0,0.0,0.0,0.0,0.0,0.0,0.0,0.0,0.0,0.0,0.0,0.0,0.0,0.0,0.0,0.0,0.0,0.0,0.0,0.0,0.0,0.0,0.0,0.0,0.0,0.0,0.0,0.0,0.0,0.0,0.0,0.0,0.0,0.0,0.0,0.0,0.0,0.0,0.0,0.0,0.0,0.0,0.0,0.0,0.0,0.0,0.0,0.0,0.0,0.0,0.0,0.0,0.0,0.0,0.0,0.0,0.0,0.0,0.0,0.0,0.0,0.0,0.0,0.0,0.0,0.0,0.0,0.0,0.0,0.0,0.0,0.0,0.0,0.0,0.0,0.0,0.0,0.0,0.0,0.0,0.0,0.0,0.0,0.0,0.0,0.0,0.0,0.0,0.0,0.0,0.0,0.0,0.0,0.0,0.0,0.0,0.0,0.0,0.0,0.0,0.0,0.0,0.0,0.0,0.0,0.0,0.0,0.0,0.0,0.0,0.0,0.0,0.0,0.0,0.0,0.0,0.0,0.0,0.0,0.0,0.0,0.0,0.0,0.0,0.0,0.0,0.0,0.0,0.0,0.0,0.0,0.0,0.0,0.0,0.0,0.0,0.0,0.0,0.0,0.0,0.0,0.0,0.0,0.0,0.0,0.0,0.0,0.0,0.0,0.0,0.0,0.0,0.0,0.0,0.0,0.0,0.0,0.0,0.0,0.0,0.0,0.0,0.0,0.0,0.0,0.0,0.0,0.0,0.0,0.0,0.0,0.0,0.0,0.0,0.0,0.0,0.0,0.0,0.0,0.0,0.0,0.0,0.0,0.0,0.0,0.0,0.0,0.0,0.0,0.0,0.0,0.0,0.0,0.0,0.0,0.0,0.0,0.0,0.0,0.0,0.0,0.0,0.0,0.0,0.0,0.0,0.0,0.0,0.0,0.0,0.0,0.0,0.0,0.0,0.0,0.0,0.0,0.0,0.0,0.0,0.0,0.0,0.0,0.0,0.0,0.0,0.0,0.0,0.0,0.0,0.0,0.0,0.0,0.0,0.0,0.0,0.0,0.0,0.0,0.0,0.0,0.0,0.0,0.0,0.0,0.0,0.0,0.0,0.0,0.0,0.0,0.0,0.0,0.0,0.0,0.0,0.0,0.0,0.0,0.0,0.0,0.0,0.0,0.0,0.0,0.0,0.0,0.0,0.0,0.0,0.0,0.0,0.0,0.0,0.0,0.0,0.0,0.0,0.0,0.0,0.0,0.0,0.0,0.0,0.0,0.0,0.0,0.0,0.0,0.0,0.0,0.0,0.0,0.0,0.0,0.0,0.0,0.0,0.0,0.0,0.0,0.0,0.0,0.0,0.0,0.0,0.0,0.0,0.0,0.0,0.0,0.0,0.0,0.0,0.0,0.0,0.0,0.0,0.0,0.0,0.0,0.0,0.0,0.0,0.0,0.0,0.0,0.0,0.0,0.0,0.0,0.0,0.0,0.0,0.0,0.0,0.0,0.0,0.0,0.0,0.0,0.0,0.0,0.0,0.0,0.0,0.0,0.0,0.0,0.0,0.0,0.0,0.0,0.0,0.0,0.0,0.0,0.0,0.0,0.0,0.0,0.0,0.0,0.0,0.0,0.0,0.0,0.0,0.0,0.0,0.0,0.0,0.0,0.0,0.0,0.0,0.0,0.0,0.0,0.0,0.0,0.0,0.0,0.0,0.0,0.0,0.0,0.0,0.0,0.0,0.0,0.0,0.0,0.0,0.0,0.0,0.0,0.0,0.0,0.0,0.0,0.0,0.0,0.0,0.0,0.0,0.0,0.0,0.0,0.0,0.0,0.0,0.0,0.0,0.0,0.0,0.0,0.0,0.0,0.0,0.0,0.0,0.0,0.0,0.0,0.0,0.0,0.0,0.0,0.0,0.0,0.0,0.0,0.0,0.0,0.0,0.0,0.0,0.0,0.0,0.0,0.0,0.0,0.0,0.0,0.0,0.0,0.0,0.0,0.0,0.0,0.0,0.0,0.0,0.0,0.0,0.0,0.0,0.0,0.0,0.0,0.0,0.0,0.0,0.0,0.0,0.0,0.0,0.0,0.0,0.0,0.0,0.0,0.0,0.0,0.0,0.0,0.0,0.0,0.0,0.0,0.0,0.0,0.0,0.0,0.0,0.0,0.0,0.0,0.0,0.0,0.0,0.0,0.0,0.0,0.0,0.0,0.0,0.0,0.0,0.0,0.0,0.0,0.0,0.0,0.0,0.0,0.0,0.0,0.0,0.0,0.0,0.0,0.0,0.0,0.0,0.0,0.0,0.0,0.0,0.0,0.0,0.0,0.0,0.0,0.0,0.0,0.0,0.0,0.0,0.0,0.0,0.0,0.0,0.0,0.0,0.0,0.0,0.0,0.0,0.0,0.0,0.0,0.0,0.0,0.0,0.0,0.0,0.0,0.0,0.0,0.0,0.0,0.0,0.0,0.0,0.0,0.0,0.0,0.0,0.0,0.0,0.0,0.0,0.0,0.0,0.0,0.0,0.0,0.0,0.0,0.0,0.0,0.0,0.0,0.0,0.0,0.0,0.0,0.0,0.0,0.0,0.0,0.0,0.0,0.0,0.0,0.0,0.0,0.0,0.0,0.0,0.0,0.0,0.0,0.0,0.0,0.0,0.0,0.0,0.0,0.0,0.0,0.0,0.0,0.0,0.0,0.0,0.0,0.0,0.0,0.0,0.0,0.0,0.0,0.0,0.0,0.0,0.0,0.0,0.0,0.0,0.0,0.0,0.0,0.0,0.0,0.0,0.0,0.0,0.0,0.0,0.0,0.0,0.0,0.0,0.0,0.0,0.0,0.0,0.0,0.0,0.0,0.0,0.0,0.0,0.0,0.0,0.0,0.0,0.0,0.0,0.0,0.0,0.0,0.0,0.0,0.0,0.0,0.0,0.0,0.0,0.0,0.0,0.0,0.0,0.0,0.0,0.0,0.0,0.0,0.0,0.0,0.0,0.0,0.0,0.0,0.0,0.0,0.0,0.0,0.0,0.0,0.0,0.0,0.0,0.0,0.0,0.0,0.0,0.0,0.0,0.0,0.0,0.0,0.0,0.0,0.0,0.0,0.0,0.0,0.0,0.0,0.0,0.0,0.0,0.0,0.0,0.0,0.0,0.0,0.0,0.0,0.0,0.0,0.0,0.0,0.0,0.0,0.0,0.0,0.0,0.0,0.0,0.0,0.0,0.0,0.0,0.0,0.0,0.0,0.0,0.0,0.0,0.0,0.0,0.0,0.0,0.0,0.0,0.0,0.0,0.0,0.0,0.0,0.0,0.0,0.0,0.0,0.0,0.0,0.0,0.0,0.0,0.0,0.0,0.0,0.0,0.0,0.0,0.0,0.0,0.0,0.0,0.0,0.0,0.0,0.0,0.0,0.0,0.0,0.0,0.0,0.0,0.0,0.0,0.0,0.0,0.0,0.0,0.0,0.0,0.0,0.0,0.0,0.0,0.0,0.0,0.0,0.0,0.0,0.0,0.0,0.0,0.0,0.0,0.0,0.0,0.0,0.0,0.0,0.0,0.0,0.0,0.0,0.0,0.0,0.0,0.0,0.0,0.0,0.0,0.0,0.0,0.0,0.0,0.0,0.0,0.0,0.0,0.0,0.0,0.0,0.0,0.0,0.0,0.0,0.0,0.0,0.0,0.0,0.0,0.0,0.0,0.0,0.0,0.0,0.0,0.0,0.0,0.0,0.0,0.0,0.0,0.0,0.0,0.0,0.0,0.0,0.0,0.0,0.0,0.0,0.0,0.0,0.0,0.0,0.0,0.0,0.0,0.0,0.0,0.0,0.0,0.0,0.0,0.0,0.0,0.0,0.0,0.0,0.0,0.0,0.0,0.0,0.0,0.0,0.0,0.0,0.0,0.0,0.0,0.0,0.0,0.0,0.0,0.0,0.0,0.0,0.0,0.0,0.0,0.0,0.0,0.0,0.0,0.0,0.0,0.0,0.0,0.0,0.0,0.0,0.0,0.0,0.0,0.0,0.0,0.0,0.0,0.0,0.0,0.0,0.0,0.0,0.0,0.0,0.0,0.0,0.0,0.0,0.0,0.0,0.0,0.0,0.0,0.0,0.0,0.0,0.0,0.0,0.0,0.0,0.0,0.0,0.0,0.0,0.0,0.0,0.0,0.0,0.0,0.0,0.0,0.0,0.0,0.0,0.0,0.0,0.0,0.0,0.0,0.0,0.0,0.0,0.0,0.0,0.0,0.0,0.0,0.0,0.0,0.0,0.0,0.0,0.0,0.0,0.0,0.0,0.0,0.0,0.0,0.0,0.0,0.0,0.0,0.0,0.0,0.0,0.0,0.0,0.0,0.0,0.0,0.0,0.0,0.0,0.0,0.0,0.0,0.0,0.0,0.0,0.0,0.0,0.0,0.0,0.0,0.0,0.0,0.0,0.0,0.0,0.0,0.0,0.0,0.0,0.0,0.0,0.0,0.0,0.0,0.0,0.0,0.0,0.0,0.0,0.0,0.0,0.0,0.0,0.0,0.0,0.0,0.0,0.0,0.0,0.0,0.0,0.0,0.0,0.0,0.0,0.0,0.0,0.0,0.0,0.0,0.0,0.0,0.0,0.0,0.0,0.0,0.0,0.0,0.0,0.0,0.0,0.0,0.0,0.0,0.0,0.0,0.0,0.0,0.0,0.0,0.0,0.0,0.0,0.0,0.0,0.0,0.0,0.0,0.0,0.0,0.0,0.0,0.0,0.0,0.0,0.0,0.0,0.0,0.0,0.0,0.0,0.0,0.0,0.0,0.0,0.0,0.0,0.0,0.0,0.0,0.0,0.0,0.0,0.0,0.0,0.0,0.0,0.0,0.0,0.0,0.0,0.0,0.0,0.0,0.0,0.0,0.0,0.0,0.0,0.0,0.0,0.0,0.0,0.0,0.0,0.0,0.0,0.0,0.0,0.0,0.0,0.0,0.0,0.0,0.0,0.0,0.0,0.0,0.0,0.0,0.0,0.0,0.0,0.0,0.0,0.0,0.0,0.0,0.0,0.0,0.0,0.0,0.0,0.0,0.0,0.0,0.0,0.0,0.0,0.0,0.0,0.0,0.0,0.0,0.0,0.0,0.0,0.0,0.0,0.0,0.0,0.0,0.0,0.0,0.0,0.0,0.0,0.0,0.0,0.0,0.0,0.0,0.0,0.0,0.0,0.0,0.0,0.0,0.0,0.0,0.0,0.0,0.0,0.0,0.0,0.0,0.0,0.0,0.0,0.0,0.0,0.0,0.0,0.0,0.0,0.0,0.0,0.0,0.0,0.0,0.0,0.0,0.0,0.0,0.0,0.0,0.0,0.0,0.0,0.0,0.0,0.0,0.0,0.0,0.0,0.0,0.0,0.0,0.0,0.0,0.0,0.0,0.0,0.0,0.0,0.0,0.0,0.0,0.0,0.0,0.0,0.0,0.0,-0.5561,-0.4771,0.0,0.0,0.0,0.0,0.0,0.0,0.0,0.0,0.0,0.0,0.0,0.0,0.0,0.0,0.0,0.0,0.0,0.0,0.0,0.0,0.0,0.0,0.0,0.0,0.0,0.0,0.0,0.0,0.0,0.0,0.0,0.0,0.0,0.0,0.0,0.0,0.0,0.0,0.0,0.0,0.0,0.0,0.0,0.0,0.0,0.0,0.0,0.0,0.0,0.0,0.0,0.0,0.0,0.0,0.0,0.0,0.0,0.0,0.0,0.0,0.0,0.0,0.0,0.0,0.0,0.0,0.0,0.0,0.0,0.0,0.0,0.0,0.0,0.0,0.0,0.0,0.0,0.0,0.0,0.0,0.0,0.0,0.0,0.0,0.0,0.0,0.0,0.0,0.0,0.0,0.0,0.0,0.0,0.0,0.0,0.0,0.0,0.0,0.0,0.0,0.0,0.0,0.0,0.0,0.0,0.0,0.0,0.0,0.0,0.0,0.0,0.0,0.0,0.0,-0.6372,-0.6036,0.0,0.0,0.0,0.0,0.0,0.0,0.0,0.0,0.0,0.0,0.0,0.0,0.0,0.0,0.0,0.0,0.0,0.0,0.0,0.0,0.0,0.0,0.0,0.0,0.0,0.0,0.0,0.0,0.0,0.0,0.0,0.0,0.0,0.0,0.0,0.0,0.0,0.0,0.0,0.0,0.0,0.0,0.0,0.0,0.0,0.0,0.0,0.0,0.0,0.0,0.0,0.0,0.0,0.0,0.0,0.0,0.0,0.0,0.0,0.0,0.0,0.0,0.0,0.0,0.0,0.0,0.0,0.0,0.0,0.0,0.0,0.0,0.0,0.0,0.0,0.0,0.0,0.0,0.0,0.0,0.0,0.0,0.0,0.0,0.0,0.0,0.0,0.0,0.0,0.0,0.0,0.0,0.0,0.0,0.0,0.0,0.0,0.0,0.0,0.0,0.0,0.0,0.0,0.0,0.0,0.0,0.0,0.0,-0.6584,-0.6466,-0.6419,-0.6762,-0.7308,-0.7981,-0.7451,-0.7657,-0.8311,-0.6974,0.0,0.0,0.0,0.0,0.0,0.0,0.0,0.0,0.0,0.0,0.0,0.0,0.0,0.0,0.0,0.0,0.0,0.0,0.0,0.0,0.0,0.0,0.0,0.0,0.0,0.0,0.0,0.0,0.0,0.0,0.0,0.0,0.0,0.0,0.0,0.0,0.0,0.0,1.0188,1.024,1.0097,0.9784,0.9415,0.0,0.0,0.0,0.0,0.0,0.0,0.0,0.0,0.0,0.0,0.0,0.0,0.0,0.0,0.0,0.0,0.0,0.0,0.0,0.0,0.0,0.0,0.0,0.0,0.0,0.0,0.0,0.0,0.0,0.0,0.0,0.0,0.0,0.0,0.0,0.0,0.0,0.0,0.0,0.0,0.0,0.0,0.0,0.21,0.2004,0.0,0.0,0.0,0.0,0.0,0.0,0.0,0.0,0.0,0.0,0.0,0.0,0.0,-0.1802,-0.2053,-0.4761,-0.7058,-0.8869,-0.8306,-0.855,-0.961,-0.9366,-0.9573,-1.012,-1.0017,0.0,-0.8414,-0.8309,0.0,0.0,0.0,0.0,0.0,0.0,0.0,0.0,0.0,0.0,0.0,0.0,0.0,0.0,0.0,0.0,0.0,0.0,0.0,0.0,0.0,0.0,0.0,0.0,0.0,0.0,0.0,0.0,0.0,0.0,0.0,0.0,0.0,0.0,0.0,0.0,0.9281,0.9952,1.0462,1.0701,1.0705,1.0527,1.0542,1.0164,0.9497,0.898,0.0,0.0,0.0,0.0,0.0,0.0,0.0,0.0,0.0,0.0,0.0,0.0,0.0,0.0,0.0,0.0,0.0,0.0,0.0,0.0,0.0,0.0,0.0,0.0,0.0,0.0,0.0,0.0,0.0,0.0,0.0,0.0,0.0,0.0,0.0,0.0,0.0,0.0,0.0,0.2073,0.1802,0.1853,0.1442,0.1085,0.0,0.0,0.0,0.0,0.0,0.0,0.0,0.0,0.0,-0.3249,-0.3563,-0.3717,-0.3752,-0.5789,-0.7995,-1.0311,-0.9606,-0.9539,-0.9925,-0.9635,-0.9657,-0.9938,-1.0043,-0.9875,-0.9399,-0.8837,-0.8282,-0.7688,0.0,0.0,0.0,0.0,-0.7608,-0.7699,0.0,0.0,0.0,0.0,0.0,0.0,0.0,0.0,0.0,0.0,0.0,0.0,0.0,0.0,0.0,1.0574,0.0,0.0,0.0,0.0,0.0,0.0,0.0,0.0,0.0,0.0,0.0,0.0,1.0254,1.0676,1.0998,1.1202,1.1252,1.1165,1.1288,1.0851,0.9968,0.975,0.9219,0.0,0.0,0.0,0.0,0.0,0.0,0.0,0.0,0.0,0.0,0.0,0.0,0.0,0.0,0.0,0.0,0.0,0.0,0.0,0.0,0.0,0.0,0.0,0.0,0.0,0.0,0.0,0.0,0.0,0.0,0.0,0.0,0.0,0.0,0.0,0.0,0.0,0.0,0.1934,0.1463,0.1641,0.073,0.0097,0.0,0.0,0.0,0.0,0.0,0.0,-0.2627,-0.2897,-0.3476,-0.4302,-0.517,-0.5731,-0.6053,-0.7197,-0.889,-1.1138,-1.0547,-1.023,-1.0166,-0.9903,-0.9865,-1.0098,-1.0179,-1.0487,-1.0772,-0.9502,-0.8905,-0.8746,-0.8165,-0.7802,-0.7688,-0.8327,-0.8564,-0.8783,0.0,0.0,0.0,0.0,0.0,0.0,0.0,0.0,0.0,0.0,0.0,0.0,0.0,0.0,0.9905,1.0726,1.0493,1.014,0.0,0.0,0.0,0.0,0.0,0.0,0.0,0.0,0.0,1.1355,1.1399,1.1701,1.2322,1.2013,1.185,1.1841,1.1275,1.088,1.0637,1.0212,0.9755,0.9143,0.0,0.0,0.0,0.0,0.0,0.0,0.0,0.0,0.0,0.0,0.0,0.0,0.0,0.0,0.0,0.0,0.0,0.0,0.0,0.0,0.0,0.0,0.0,0.0,0.0,0.0,0.0,0.0,0.0,0.0,0.0,0.0,0.0,0.0,0.0,0.0,0.0,0.0,0.0,0.1212,0.0156,0.0,0.0,0.0,0.0,-0.42,-0.3295,-0.3113,-0.4239,-0.3978,-0.4432,-0.5653,-0.6158,-0.7252,-0.8992,-0.9376,-1.0101,-1.1188,-1.0742,-1.0923,-1.1505,-1.0974,-1.1053,-1.1672,-1.1408,-1.1775,-1.2369,-1.0622,-0.9901,-0.9818,-0.9939,-0.9337,-0.8572,-0.9492,-0.981,-1.0044,0.0,0.0,0.0,0.0,0.0,0.0,0.0,0.0,0.0,0.0,0.0,0.0,0.0,1.0651,1.0954,1.1398,1.1157,1.0678,1.0109,0.0,0.0,0.0,0.0,0.0,0.0,0.0,1.1031,1.1309,1.1475,1.182,1.2263,1.198,1.2032,1.2361,1.2139,1.1954,1.1711,1.0533,0.999,0.9738,0.8435,0.732,0.0,0.0,0.0,0.0,0.0,0.0,0.0,0.0,0.0,0.0,0.0,0.0,0.0,0.0,0.0,0.0,0.0,0.0,0.0,0.0,0.0,0.0,0.0,0.0,0.0,0.0,0.0,0.0,0.0,0.0,0.0,0.0,0.0,0.0,0.0,0.0,0.0,-0.0261,-0.1206,0.0,-0.2164,-0.2754,-0.3426,-0.416,-0.4391,-0.441,-0.4321,-0.5096,-0.5822,-0.6511,-0.7208,-0.8032,-0.8915,-1.0093,-1.088,-1.1172,-1.1387,-1.1512,-1.1732,-1.16,-1.1662,-1.1846,-1.1614,-1.1967,-1.2718,-1.2359,-1.1662,-1.0855,-1.066,-1.0339,-1.0018,-1.0827,-1.1219,-1.1495,0.0,0.0,0.0,0.0,0.0,0.0,0.0,0.0,0.0,0.0,0.0,0.9814,1.083,1.1194,1.1517,1.1883,1.1488,1.0906,1.0109,0.0,0.0,0.0,0.0,0.0,0.0,1.1192,1.1735,1.1727,1.1942,1.2226,1.2553,1.221,1.2206,1.2491,1.2334,1.2159,1.1903,1.0609,1.0279,1.0485,0.8585,0.7499,0.6925,0.0,0.0,0.0,0.0,0.0,0.0,0.0,0.0,0.0,0.0,0.0,0.0,0.0,0.0,0.0,0.0,0.0,0.0,0.0,0.0,0.0,0.0,0.0,0.0,0.0,0.0,0.0,0.0,0.0,0.0,0.0,0.0,0.0,0.0,0.0106,-0.0995,-0.1137,-0.2234,-0.3121,-0.3426,-0.3929,-0.4323,-0.4493,-0.505,-0.5236,-0.5083,-0.6078,-0.681,-0.7198,-0.8007,-0.8673,-0.9149,-1.0172,-1.0863,-1.1175,-1.1472,-1.1622,-1.167,-1.173,-1.1924,-1.2056,-1.1735,-1.2239,-1.3287,-1.3242,-1.2831,-1.2201,-1.1606,-1.1382,-1.1512,-1.1829,-1.2389,-1.3072,0.0,0.0,0.0,0.0,0.0,0.0,0.0,0.0,0.0,0.0,1.0163,1.0567,1.0949,1.1273,1.1597,1.2039,1.149,1.0719,0.986,0.9602,0.0,0.0,0.0,0.0,1.1057,1.2351,1.2913,1.273,1.2864,1.3046,1.3203,1.2781,1.2496,1.2312,1.1825,1.1494,1.1202,1.0595,1.0808,1.137,0.8692,0.8019,0.8515,0.0,0.0,0.0,0.0,0.0,0.0,0.0,0.0,0.0,0.0,0.0,0.0,0.0,0.0,0.0,0.0,0.0,0.0,0.0,0.0,0.0,0.0,0.0,0.0,0.0,0.0,0.0,0.0,0.0,0.0,0.0,0.0,0.0,0.0694,-0.0438,-0.1344,-0.1347,-0.2852,-0.3537,-0.2663,-0.3756,-0.4748,-0.535,-0.5216,-0.5456,-0.64,-0.6898,-0.7341,-0.7783,-0.8591,-0.9246,-0.9831,-0.9742,-1.0179,-1.1122,-1.117,-1.1226,-1.1281,-1.1533,-1.198,-1.246,-1.1825,-1.2606,-1.4148,-1.3264,-1.3371,-1.393,-1.2768,-1.2538,-1.2859,-1.2485,-1.3377,-1.4643,0.0,0.0,0.0,0.0,0.0,0.0,0.0,0.0,0.0,0.0,1.0329,1.0637,1.1108,1.1612,1.1957,1.2067,1.1643,1.1,1.0018,0.0,0.0,0.0,0.0,0.0,1.2195,1.2751,1.2913,1.273,1.2685,1.2804,1.3046,1.2987,1.3063,1.321,1.3342,1.3203,1.2893,1.2821,1.268,1.2226,1.0172,0.9228,0.8967,0.0,0.0,0.0,0.0,0.0,0.0,0.0,0.0,0.0,0.0,0.0,0.0,0.0,0.0,0.0,0.0,0.0,0.0,0.0,0.0,0.0,0.0,0.0,0.0,0.0,0.0,0.0,0.0,0.0,0.0,0.0,0.1128,0.1059,0.0055,-0.1177,-0.2287,-0.3034,-0.3983,-0.4718,-0.5084,-0.4843,-0.4876,-0.5521,-0.6056,-0.6266,-0.6086,-0.7056,-0.779,-0.827,-0.8656,-0.9385,-1.0478,-1.058,-1.0829,-1.1247,-1.1545,-1.1483,-1.1148,-1.2095,-1.2538,-1.2623,-1.3172,-1.3898,-1.4746,-1.4818,-1.4998,-1.4989,-1.3616,-1.299,-1.2948,-1.3904,-1.5037,-1.6009,0.0,0.0,0.0,0.0,0.0,0.0,0.0,0.0,0.0,0.0,1.0584,1.0879,1.1167,1.1647,1.1977,1.2026,1.1345,1.0683,1.0137,0.0,0.0,0.0,0.0,1.1448,1.2238,1.2674,1.2756,1.2541,1.2707,1.2902,1.3036,1.3275,1.3348,1.3306,1.3637,1.3613,1.3407,1.3388,1.3227,1.2912,1.1677,1.0647,0.9769,0.9159,0.8482,0.7752,0.7375,0.6942,0.6497,0.6076,0.0,0.0,0.0,0.0,0.0,0.0,0.0,0.0,0.0,0.0,0.0,0.0,0.0,0.0,0.0,0.0,0.0,0.0,0.0,0.0,0.0,0.0,0.0,0.0,0.0459,0.0303,-0.0,-0.1771,-0.3166,-0.3583,-0.4671,-0.5544,-0.5832,-0.5684,-0.565,-0.5935,-0.6537,-0.6676,-0.6032,-0.7126,-0.8014,-0.8495,-0.8829,-0.9548,-1.0708,-1.0891,-1.108,-1.1283,-1.1762,-1.1844,-1.1487,-1.2633,-1.3108,-1.3163,-1.3638,-1.4256,-1.4978,-1.4872,-1.5025,-1.5368,0.0,0.0,0.0,0.0,-1.6186,-1.6417,0.0,0.0,0.0,0.0,0.0,0.0,0.0,0.0,0.0,0.0,0.0,1.112,1.112,1.1479,1.1738,1.184,1.0942,1.0362,0.0,0.0,0.0,1.0962,1.1308,1.163,1.1887,1.2445,1.2615,1.2422,1.3012,1.3164,1.3075,1.3613,1.3581,1.3059,1.3338,1.3408,1.3394,1.3132,1.3262,1.3565,1.3126,1.2087,1.0746,0.9737,0.9177,0.8794,0.7905,0.7283,0.6798,0.6263,0.0,0.0,0.0,0.0,0.0,0.0,0.0,0.0,0.0,0.0,0.0,0.0,0.0,0.0,0.0,0.0,0.0,0.0,0.0,0.0,0.0,0.0,0.0,0.0,-0.0678,-0.1215,-0.0068,-0.2244,-0.3946,-0.3689,-0.5096,-0.5981,-0.584,-0.6327,-0.6612,-0.6468,-0.678,-0.6712,-0.6262,-0.7131,0.0,0.0,0.0,-0.9538,-1.0405,-1.0681,-1.0944,-1.1185,-1.1848,-1.2087,-1.2108,-1.3162,-1.3784,-1.3892,-1.368,-1.4188,-1.5079,-1.4171,-1.4479,-1.5651,-1.5448,-1.5735,-1.637,-1.7038,-1.6886,-1.6258,0.0,0.0,0.0,0.0,0.0,0.0,0.0,0.0,0.0,1.038,1.0632,1.0784,1.0784,1.1367,1.1733,1.1666,1.1755,1.1535,0.0,0.0,1.0971,1.1658,1.243,1.2943,1.3152,1.3018,1.305,1.327,1.3122,1.3162,1.3439,1.3846,1.3807,1.3423,1.4027,1.4088,1.3888,1.423,1.4357,1.4288,1.3769,1.2952,1.1853,1.1552,1.1136,1.0592,0.9902,0.8683,0.7349,0.715,0.6483,0.5624,0.5596,0.0,0.0,0.0,0.0,0.0,0.0,0.0,0.0,0.0,0.0,0.0,0.0,0.0,0.0,0.0,0.0,0.0,0.0,0.0,0.0,-0.0673,-0.1303,-0.1655,-0.176,-0.2731,-0.3894,-0.5252,-0.5708,-0.6222,-0.7052,-0.6546,-0.6373,-0.6836,-0.6658,-0.6571,-0.6575,-0.6869,-0.7211,-0.7813,-0.8429,-0.8874,-0.9319,-0.9344,-0.9878,-1.1032,-1.1531,0.0,-1.2512,-1.3565,-1.4049,-1.4164,-1.4088,-1.4679,-1.5644,-1.5286,-1.609,-1.733,-1.5858,-1.5987,-1.6871,-1.6677,-1.6689,-1.675,0.0,0.0,0.0,0.0,0.0,0.0,0.0,0.0,0.0,0.0,1.0614,1.0804,1.0804,1.1242,1.1538,1.1504,1.1679,0.0,0.0,1.1417,1.1731,1.2175,1.2776,1.3097,1.299,1.2923,1.2923,1.2998,1.3065,1.3149,1.3256,1.373,1.3821,1.3487,1.3896,1.3972,1.3916,1.3988,1.4073,1.4027,1.3635,1.3058,1.241,1.2277,1.1877,1.1333,1.066,0.951,0.8178,0.7472,0.6699,0.592,0.5408,0.5153,0.4921,0.0,0.0,0.0,0.0,0.0,0.0,0.0,0.0,0.0,0.0,0.0,0.0,0.0,0.0,0.026,0.0113,0.0,-0.0,-0.0796,-0.1185,-0.1523,-0.1732,-0.2746,-0.3899,-0.5072,-0.5954,-0.6677,-0.7139,-0.6978,-0.678,-0.6829,-0.6813,-0.6694,-0.6431,-0.6583,-0.7024,-0.7855,-0.7864,-0.828,-0.9108,-0.9275,-0.9621,-1.0331,-1.0878,-1.1621,-1.2511,-1.3481,-1.4002,-1.43,-1.4672,-1.5146,-1.5679,-1.6224,-1.7005,-1.7677,-1.6835,-1.6901,-1.7369,-1.7035,-1.7045,-1.7168,0.0,0.0,0.0,0.0,0.0,0.0,0.0,0.0,0.0,0.0,1.0626,1.082,1.0779,1.1064,1.1315,0.0,0.0,0.0,0.0,1.1886,1.2455,1.2706,1.318,1.332,1.3044,1.2899,1.2906,1.2846,1.3053,1.3186,1.3111,1.3578,1.366,1.3528,1.3604,1.3747,1.3829,1.3639,1.3568,1.3694,1.3347,1.3053,1.2808,1.2473,1.2026,1.1467,1.0953,1.0053,0.8858,0.7835,0.6976,0.6161,0.5357,0.4985,0.4751,0.4129,0.4109,0.0,0.0,0.0,0.0,0.0,0.0,0.0,0.0,0.0943,0.0694,0.0401,0.0235,0.006,-0.0131,-0.04,-0.0678,-0.0716,-0.1118,-0.1452,-0.1383,-0.2948,-0.4224,-0.4776,-0.6173,-0.7022,-0.7019,-0.7298,-0.7238,-0.674,-0.6964,-0.6853,-0.632,-0.6534,-0.7057,-0.7813,-0.7504,-0.7856,-0.9014,-0.9346,-0.9564,-0.9656,-1.0325,-1.1217,-1.2416,-1.3201,-1.3782,-1.4178,-1.4899,-1.5061,-1.4968,-1.6568,-1.7225,-1.7323,-1.7579,-1.7706,-1.7706,-1.7588,-1.7413,-1.7232,0.0,0.0,0.0,0.0,0.0,0.0,0.0,0.0,0.0,0.0,0.0,0.0,0.0,0.0,0.0,0.0,0.0,0.0,1.1211,1.2444,1.3284,1.3493,1.4395,1.4891,1.4923,1.3964,1.3683,1.4086,1.3189,1.3013,1.3448,1.3539,1.3608,1.3636,1.375,1.3858,1.3913,1.4014,1.4058,1.4045,1.3863,1.3516,1.306,1.2263,1.1649,1.1162,1.1166,1.0141,0.8847,0.8847,0.761,0.605,0.6166,0.5703,0.4997,0.4546,0.0,0.3793,0.3067,0.2814,0.2656,0.2476,0.275,0.2616,0.0,0.0728,0.0474,-0.0669,-0.0616,-0.0488,-0.0885,-0.1117,-0.1211,-0.1113,-0.1819,-0.2209,-0.1853,-0.3567,-0.5085,-0.564,-0.6405,-0.7019,-0.7407,-0.7346,-0.7162,-0.6892,-0.6771,-0.6668,-0.654,-0.6729,-0.7013,-0.7315,-0.7711,-0.8001,-0.7992,-0.8543,-0.906,-0.959,-1.0251,-1.1175,-1.2298,-1.2961,-1.3353,-1.36,-1.4004,-1.3742,-1.3189,-1.5462,-1.6549,-1.6751,-1.7432,-1.7706,-1.7706,-1.7706,-1.7282,-1.6702,0.0,0.0,0.0,0.0,0.0,0.0,0.0,0.0,0.0,0.0,0.0,0.0,0.0,0.0,0.0,0.0,0.0,0.0,1.1097,1.2532,1.3461,1.3588,1.4421,1.4889,1.4882,1.4396,1.4258,1.4471,1.4049,1.394,1.4145,1.4401,1.4411,1.4215,1.4554,1.4493,1.4156,1.4662,1.4196,1.314,1.3705,1.3257,1.2184,1.1674,1.0969,1.0424,1.0813,1.0147,0.0,0.0,0.741,0.624,0.6144,0.5535,0.4721,0.4364,0.4099,0.0,0.3166,0.2893,0.2597,0.1769,0.1998,0.2312,0.1834,0.1046,0.0131,-0.0864,-0.1127,-0.1152,-0.1237,-0.1504,-0.1689,-0.1437,-0.184,-0.2162,-0.2073,-0.37,-0.49,-0.4991,-0.6273,-0.7143,-0.7322,-0.7271,-0.7032,-0.6779,-0.6636,-0.666,-0.6771,-0.6868,-0.7171,-0.7705,-0.7966,-0.8205,-0.8346,-0.8666,-0.9044,-0.9399,-0.9807,-1.0672,-1.1983,-1.2322,-1.2913,-1.3738,-1.3401,-1.3484,-1.3947,-1.5558,-1.63,-1.6524,-1.7354,-1.7354,-1.6941,-1.7295,-1.7192,-1.6915,0.0,0.0,0.0,0.0,0.0,0.0,0.0,0.0,0.0,0.0,0.0,0.0,0.0,0.0,0.0,0.0,0.0,0.0,0.0,1.2336,1.3259,1.3688,1.4231,1.462,1.4782,1.4451,1.4432,1.4539,1.4332,1.4299,1.4505,1.4864,1.4917,1.4653,1.5091,1.494,1.4402,1.5015,1.4615,1.3393,1.3569,1.2917,1.1897,1.1135,1.036,0.968,1.0089,0.9616,0.0,0.0,0.7025,0.6144,0.5862,0.5162,0.4376,0.4037,0.3749,0.3454,0.3044,0.2681,0.2184,0.1348,0.1553,0.2018,0.2222,0.1125,-0.0143,-0.1,-0.1364,-0.1553,-0.1607,-0.1811,-0.2082,-0.2095,-0.2099,-0.2262,-0.2462,-0.3595,-0.4385,-0.4535,-0.5838,-0.6752,-0.6878,-0.7007,-0.6984,-0.6637,-0.6671,-0.679,-0.6883,-0.7142,-0.7518,-0.8044,-0.8179,-0.8403,-0.8784,-0.9018,-0.9175,-0.9392,-0.9681,-1.0347,-1.1403,-1.1702,-1.2367,-1.323,-1.2928,-1.3164,-1.4004,-1.5213,-1.5825,-1.6088,-1.6793,-1.6793,-1.6376,-1.6603,-1.6742,-1.689,0.0,0.0,0.0,0.0,0.0,0.0,0.0,0.0,0.0,0.0,0.0,0.0,0.0,0.0,0.0,0.0,0.0,0.0,0.0,1.1693,1.2654,1.3846,1.4001,1.4409,1.5189,1.4131,1.391,1.4401,1.3708,1.3603,1.4145,1.4501,1.4724,1.4676,1.4945,1.4851,1.4518,1.4935,1.5521,1.5997,1.3557,1.2652,1.2661,1.0935,0.9831,0.907,0.8932,0.0,0.0,0.0,0.6694,0.5706,0.5555,0.4842,0.0,0.3693,0.3015,0.2381,0.2489,0.1808,0.1158,0.1672,0.2013,0.2068,0.1462,0.0703,-0.0158,-0.1078,-0.1342,-0.1511,-0.2182,-0.2103,-0.2189,-0.311,-0.2805,-0.2682,-0.317,-0.3354,-0.3776,-0.467,-0.5155,-0.5659,-0.6111,-0.661,-0.6853,-0.6626,-0.6927,-0.7092,-0.6927,-0.7625,-0.8093,-0.8093,-0.8475,-0.8784,-0.9022,-0.9175,-0.9397,-0.962,-1.0212,-1.0513,-1.0588,-1.1329,-1.1626,-1.1558,-1.2512,-1.2592,-1.2218,-1.3947,-1.4879,-1.5234,-1.5455,-1.5965,-1.6464,-1.5621,-1.5621,-1.6184,0.0,0.0,0.0,0.0,0.0,0.0,0.0,0.0,0.0,0.0,0.0,0.0,0.0,0.0,0.0,0.0,0.0,0.0,0.0,1.1149,1.2013,1.2663,1.3348,1.3831,1.4029,1.3963,1.3955,1.4088,1.3884,1.3941,1.4171,1.4552,1.4806,1.5062,1.5358,1.5674,1.594,1.5802,1.6357,1.7202,1.4728,1.344,1.2652,1.0573,0.9408,0.8779,0.0,0.0,0.0,0.0,0.6203,0.5507,0.5414,0.4629,0.3571,0.2809,0.2601,0.2674,0.2856,0.232,0.1608,0.1497,0.1134,0.079,0.0847,0.0924,0.0658,-0.0329,-0.0634,-0.0906,-0.1291,-0.1609,-0.1787,-0.1975,-0.2265,-0.2481,-0.2713,-0.3208,-0.373,-0.4106,-0.4905,-0.5503,-0.573,-0.6227,-0.6576,-0.6619,-0.6824,-0.7207,-0.771,-0.7949,-0.8255,-0.8718,-0.8708,-0.8861,-0.917,-0.9397,-0.9695,-0.9992,-1.0588,-1.0887,-1.0887,-1.1484,-1.1706,-1.1848,-1.2243,-1.2494,-1.2659,-1.3719,-1.4261,-1.4522,-1.4977,-1.5113,-1.495,-1.4924,-1.4701,-1.476,0.0,0.0,0.0,0.0,0.0,0.0,0.0,0.0,0.0,0.0,0.0,0.0,0.0,0.0,0.0,0.0,0.0,0.0,0.0,0.0,1.1085,1.1599,1.2124,1.2465,1.2495,1.273,1.2805,1.287,1.2939,1.3128,1.3435,1.3786,1.4142,1.4458,1.4911,1.5501,1.6053,1.5617,1.57,1.6013,1.4458,1.3148,1.1938,0.992,0.8747,0.0,0.0,0.0,0.0,0.0,0.5582,0.5163,0.492,0.4168,0.3219,0.2506,0.2536,0.2831,0.313,0.2816,0.2195,0.1248,0.0651,0.025,0.0439,0.0859,0.1159,0.0652,-0.0076,-0.0695,-0.0847,-0.1185,-0.139,-0.1208,-0.1683,-0.2132,-0.2316,-0.2591,-0.3081,-0.3596,-0.4336,-0.4938,-0.5323,-0.5899,-0.6421,-0.6599,-0.6939,-0.7434,-0.8169,-0.8331,-0.8565,-0.9022,-0.8865,-0.9013,-0.9397,-0.962,-0.9954,-1.0387,-1.084,-1.1063,-1.0972,-1.1588,-1.1929,-1.1996,-1.2473,-1.2718,-1.2806,-1.3457,-1.3782,-1.3922,-1.4041,-1.4017,-1.3824,-1.3932,-1.3824,-1.3882,0.0,0.0,0.0,0.0,0.0,0.0,0.0,0.0,0.0,0.0,0.0,0.0,0.0,0.0,0.0,0.0,0.0,0.0,0.0,0.0,0.0,1.0664,1.0437,1.0475,1.0838,1.0616,1.0637,1.0971,1.0971,1.1304,1.1948,1.2289,1.2655,1.3036,1.3688,1.432,1.4838,1.4449,1.3727,1.2845,1.2674,1.1979,1.0733,0.9116,0.0,0.0,0.0,0.0,0.0,0.0,0.4953,0.4668,0.4254,0.3559,0.289,0.2736,0.2731,0.283,0.3294,0.3378,0.2911,0.1228,0.0673,0.0508,0.0086,0.0671,0.1295,0.1531,0.0292,-0.0792,-0.0767,-0.0932,-0.1018,-0.096,-0.1244,-0.1579,-0.214,-0.1716,-0.1892,-0.3285,-0.3698,-0.415,-0.4867,-0.5669,-0.632,-0.6742,-0.7198,-0.7778,-0.8403,-0.8789,-0.9022,-0.9022,-0.9022,-0.9175,-0.9625,-0.9836,-1.0159,-1.0725,-1.0972,-1.096,-1.0731,-1.1786,-1.2211,-1.2077,-1.3032,-1.3171,-1.2652,-1.3244,-1.3479,-1.3369,-1.2747,-1.2851,-1.3313,-1.2661,-1.2783,-1.3537,0.0,0.0,0.0,0.0,0.0,0.0,0.0,0.0,0.0,0.0,0.0,0.0,0.0,0.0,0.0,0.0,0.0,0.0,0.0,0.0,0.0,0.0,0.0,0.0,0.0,0.0,0.0,0.0,0.0,1.0693,1.0867,1.1009,1.132,1.1908,1.2083,1.2578,1.3177,1.2614,1.2202,1.1856,0.0,1.0784,1.0578,0.0,0.0,0.0,0.0,0.0,0.0,0.0,0.4595,0.4191,0.4222,0.3738,0.308,0.278,0.2957,0.3323,0.3851,0.4343,0.4547,0.3821,0.1894,0.0172,0.034,0.0328,0.0388,0.0647,0.0774,0.069,0.0158,-0.021,-0.0539,-0.0613,-0.1293,-0.188,-0.2199,-0.2166,-0.2424,-0.3161,-0.3902,-0.4633,-0.5371,-0.6404,-0.7143,-0.7586,-0.7677,-0.8019,-0.8784,-0.8946,-0.9099,-0.9251,-0.9251,-0.9397,-0.9846,-1.0114,-1.0423,-1.0719,-1.0791,-1.0785,-1.0725,-1.1579,-1.2018,-1.2291,-1.287,-1.3062,-1.2913,-1.3062,-1.3005,-1.2682,-1.2305,-1.2458,-1.2786,-1.2282,-1.2375,-1.2926,0.0,0.0,0.0,0.0,0.0,0.0,0.0,0.0,0.0,0.0,0.0,0.0,0.0,0.0,0.0,0.0,0.0,0.0,0.0,0.0,0.0,0.0,0.0,0.0,0.0,0.0,0.0,0.0,0.0,0.0,0.0,0.9779,1.0065,1.0538,1.0732,1.0977,1.1285,1.1067,0.0,0.0,0.0,0.0,0.0,0.0,0.0,0.0,0.0,0.0,0.0,0.0,0.0,0.4401,0.4625,0.4082,0.3314,0.3222,0.3339,0.3748,0.439,0.4726,0.4914,0.5094,0.3019,0.1014,0.1364,0.0923,0.0581,0.1171,0.1267,0.1131,0.0867,0.0339,-0.0,0.0204,-0.0794,-0.1639,-0.1848,-0.1982,-0.2277,-0.2869,-0.4051,-0.4999,-0.5442,-0.6718,-0.7681,-0.8058,-0.8054,-0.836,-0.8941,-0.9022,-0.9022,-0.9175,-0.9225,-0.9426,-0.9829,-1.0194,-1.0408,-1.055,-1.0665,-1.0791,-1.1013,-1.1709,-1.215,-1.2394,-1.2799,-1.2858,-1.2651,-1.2727,-1.2538,-1.2159,-1.1912,-1.1845,-1.1963,-1.172,-1.1799,-1.2152,0.0,0.0,0.0,0.0,0.0,0.0,0.0,0.0,0.0,0.0,0.9753,0.0,0.0,0.0,0.0,0.0,0.0,0.0,0.0,0.0,0.0,0.0,0.0,0.0,0.0,0.0,0.0,0.0,0.0,0.0,0.0,0.0,0.0,0.0,0.0,0.0,0.0,0.0,0.0,0.0,0.0,0.0,0.0,0.0,0.0,0.0,0.0,0.0,0.0,0.0,0.5606,0.4969,0.5128,0.4473,0.3677,0.3772,0.3837,0.3982,0.4797,0.4639,0.4475,0.537,0.391,0.227,0.2439,0.1693,0.1267,0.2122,0.157,0.105,0.1269,0.0706,0.0375,0.0921,-0.0251,-0.124,-0.1409,-0.1604,-0.1924,-0.2556,-0.411,-0.5189,-0.538,-0.6914,-0.8015,-0.8351,-0.8444,-0.8604,-0.8946,-0.8998,-0.8978,-0.913,-0.9237,-0.9547,-0.9898,-1.0107,-1.0278,-1.0278,-1.0544,-1.0885,-1.1249,-1.1966,-1.2322,-1.2431,-1.2747,-1.2622,-1.2183,-1.2385,-1.2204,-1.1783,-1.1581,-1.1382,-1.1157,-1.1335,-1.1438,-1.153,0.0,0.0,0.0,0.0,0.0,0.0,0.0,0.0,0.0,0.0,0.9793,0.9683,0.0,0.0,0.0,0.0,0.0,0.0,0.0,0.0,0.0,0.0,0.0,0.0,0.0,0.0,0.0,0.0,0.0,0.0,0.0,0.0,0.0,0.0,0.0,0.0,0.0,0.0,0.0,0.0,0.0,0.0,0.0,0.0,0.0,0.0,0.0,0.0,0.0,0.0,0.5823,0.5501,0.5195,0.4819,0.436,0.3982,0.3841,0.3951,0.4758,0.466,0.4475,0.476,0.3526,0.2039,0.1531,0.1444,0.0,0.1699,0.1194,0.0776,0.0878,0.0621,0.0281,-0.0051,-0.0647,-0.1293,-0.1968,-0.2123,-0.236,-0.2744,-0.4247,-0.5344,-0.5599,-0.7374,-0.8463,-0.8196,-0.8446,-0.8752,-0.9013,-0.8851,-0.9038,-0.9688,-1.0019,-1.0413,-1.0796,-1.0224,-0.994,-0.9946,-1.0272,-1.0608,-1.0962,-1.1591,-1.2053,-1.2417,-1.2517,-1.2356,-1.2051,-1.2051,-1.1933,-1.1648,-1.1585,-1.1518,-1.1472,-1.1713,-1.1813,-1.1837,0.0,0.0,0.0,0.0,0.0,0.0,0.0,0.9935,1.0019,0.9872,0.9568,0.9353,0.9276,0.9217,0.8911,0.0,0.0,0.0,0.0,0.0,0.0,0.0,0.0,0.0,0.0,0.0,0.0,0.0,0.0,0.0,0.0,0.0,0.0,0.0,0.0,0.0,0.0,0.0,0.0,0.0,0.0,0.0,0.0,0.0,0.0,0.0,0.0,0.0,0.0,0.0,0.5639,0.5475,0.5158,0.4776,0.4348,0.4006,0.3903,0.4035,0.4779,0.4563,0.4285,0.4624,0.3398,0.1933,0.1426,0.0,0.0,0.1634,0.1047,0.0557,0.0685,0.0742,0.0687,0.0484,-0.0625,-0.1545,-0.168,-0.2002,-0.2416,-0.2728,-0.4375,-0.5559,-0.5868,-0.7598,-0.8543,-0.8273,-0.85,-0.8707,-0.8707,-0.9006,-0.9469,-1.0142,-1.0159,-1.0373,-1.0802,-1.0202,-0.994,-1.0146,-1.0272,-1.0678,-1.1453,-1.1726,-1.2148,-1.2706,-1.2596,-1.2336,-1.1956,-1.186,-1.1699,-1.156,-1.1435,-1.134,-1.1311,-1.1421,-1.1519,-1.1677,0.0,0.0,0.0,0.0,0.0,0.0,0.0,0.9791,0.9857,0.9663,0.9375,0.906,0.8766,0.8937,0.8725,0.0,0.0,0.0,0.0,0.0,0.0,0.0,0.0,0.0,0.0,0.0,0.0,0.8269,0.0,0.0,0.0,0.0,0.0,0.0,0.8332,0.0,0.0,0.0,0.0,0.0,0.0,0.0,0.0,0.0,0.0,0.0,0.0,0.0,0.0,0.0,0.5328,0.5207,0.4769,0.448,0.4204,0.3999,0.3957,0.4142,0.4617,0.4413,0.407,0.4551,0.3351,0.1982,0.1454,0.1405,0.1453,0.1612,0.0971,0.0443,0.0503,0.0812,0.1009,0.0971,-0.0431,-0.1435,-0.125,-0.1753,-0.2322,-0.3037,-0.4617,-0.5752,-0.6152,-0.7735,-0.8571,-0.8221,-0.844,-0.8548,-0.8417,-0.9273,-0.9881,-1.0354,-1.0225,-1.0357,-1.069,-1.011,-0.9946,-1.0327,-1.0327,-1.0886,-1.187,-1.1937,-1.2324,-1.2892,-1.2709,-1.2401,-1.2021,-1.1838,-1.1728,-1.1663,-1.1347,-1.1227,-1.1263,-1.1238,-1.1404,-1.1702,0.0,0.0,0.0,0.0,0.0,0.0,0.0,1.021,0.9643,0.9468,0.9403,0.9071,0.8341,0.7903,0.7582,0.0,0.0,0.0,0.0,0.0,0.0,0.0,0.0,0.0,0.0,0.0,0.0,0.7871,0.8198,0.0,0.0,0.0,0.0,0.0,0.0,0.8414,0.8414,0.0,0.0,0.0,0.0,0.0,0.0,0.0,0.0,0.0,0.0,0.0,0.0,0.0,0.0,0.4938,0.3573,0.3725,0.4458,0.4222,0.0,0.0,0.4387,0.4144,0.4055,0.4607,0.367,0.2416,0.1165,0.0,0.1461,0.1427,0.0929,0.0438,0.0362,0.0595,0.0687,0.0168,-0.0,-0.037,-0.1274,-0.1619,-0.2319,-0.3774,-0.5064,-0.6057,-0.6744,-0.797,-0.8398,-0.7633,-0.7933,-0.8267,-0.8553,-0.9603,-1.0122,-1.0148,-1.0616,-1.0861,-1.0969,-1.0019,-0.9766,-1.0327,-1.0327,-1.0886,-1.1877,-1.2144,-1.24,-1.2584,-1.2848,-1.2614,-1.1992,-1.2321,-1.2262,-1.1927,-1.1804,-1.1739,-1.1775,-1.1889,-1.2137,-1.2445,0.0,0.0,0.0,0.0,0.0,0.0,1.0992,1.0432,0.9904,0.9393,0.9281,0.8989,0.8345,0.7952,0.7586,0.7227,0.0,0.0,0.0,0.0,0.0,0.0,0.0,0.0,0.0,0.0,0.8077,0.7752,0.7741,0.0,0.0,0.0,0.0,0.0,0.0,0.8126,0.8095,0.0,0.0,0.0,0.0,0.0,0.0,0.0,0.0,0.0,0.0,0.0,0.5179,0.0,0.0,0.0,0.3795,0.3579,0.0,0.0,0.3721,0.4038,0.4191,0.4088,0.404,0.4573,0.3689,0.2414,0.1116,0.0,0.1278,0.1247,0.0886,0.0613,0.048,0.0563,0.0562,0.0449,0.0,0.0,-0.0,-0.1213,-0.2688,-0.4272,-0.5249,-0.6147,-0.7013,-0.7977,-0.8472,-0.8271,-0.8162,-0.842,-0.9122,-0.9939,-1.0536,-1.0987,-1.1057,-1.1185,-1.115,-1.0545,-1.0357,-1.0562,-1.0562,-1.1043,-1.187,-1.1775,-1.2226,-1.3104,-1.2749,-1.2647,-1.2614,-1.2548,-1.2328,-1.1985,-1.2056,-1.1954,-1.184,-1.2211,-1.241,-1.2558,0.0,0.0,0.0,0.0,0.0,1.1689,1.118,1.0623,1.0018,0.9393,0.9233,0.9057,0.8681,0.8621,0.8348,0.773,0.8278,0.0,0.0,0.0,0.0,0.0,0.0,0.0,0.0,0.0,0.816,0.7682,0.7565,0.74,0.0,0.0,0.7336,0.7381,0.0,0.0,0.0,0.0,0.0,0.0,0.0,0.0,0.0,0.0,0.0,0.0,0.0,0.0,0.0,0.0,0.0,0.0,0.0,0.0,0.0,0.0,0.3399,0.3823,0.3855,0.3834,0.3936,0.436,0.357,0.2405,0.0,0.0,0.1273,0.104,0.0718,0.0484,0.0448,0.0494,0.0526,0.0,0.0,0.0497,0.0688,-0.0615,-0.2193,-0.389,-0.5157,-0.6332,-0.7526,-0.8084,-0.8412,-0.8685,-0.8351,-0.8632,-0.9528,-0.9992,-1.0518,-1.1114,-1.1096,-1.1057,-1.115,-1.071,-1.0604,-1.0834,-1.0755,-1.1122,-1.1853,-1.1558,-1.2064,-1.3122,-1.26,-1.2593,-1.2848,-1.2614,-1.2387,-1.2138,-1.2236,-1.2244,-1.2186,-1.2493,-1.265,-1.2828,0.0,0.0,0.0,0.0,0.0,0.0,1.159,1.0714,0.9929,0.9448,0.9411,0.9411,0.9476,0.995,0.9867,0.8859,0.8255,0.0,0.0,0.0,0.0,0.0,0.0,0.0,0.0,0.0,0.7928,0.7602,0.7928,0.7703,0.69,0.7263,0.7609,0.7962,0.0,0.0,0.0,0.0,0.0,0.0,0.0,0.0,0.0,0.0,0.0,0.0,0.0,0.0,0.0,0.0,0.0,0.0,0.0,0.0,0.0,0.0,0.34,0.3442,0.3277,0.3433,0.37,0.3811,0.3223,0.2505,0.1778,0.1573,0.145,0.0922,0.0381,-0.0,-0.0,0.0337,0.0531,0.0333,0.0288,0.0,0.0297,0.034,-0.0377,-0.25,-0.4683,-0.6699,-0.8511,-0.8367,-0.8268,-0.8685,-0.8551,-0.8856,-0.9841,-0.9695,-0.9707,-1.0003,-1.035,-1.0604,-1.0713,-1.0206,-1.0339,-1.1105,-1.0846,-1.1076,-1.1706,-1.1706,-1.1992,-1.2438,-1.2431,-1.2472,-1.2526,-1.2519,-1.2519,-1.2451,-1.2323,-1.2586,-1.3001,-1.2868,-1.3071,-1.3492,0.0,0.0,0.0,0.0,0.0,0.0,0.0,1.1089,1.0372,0.9641,0.9612,0.9697,0.9707,0.969,0.9582,0.9293,0.9197,0.0,0.0,0.0,0.0,0.0,0.0,0.0,0.0,0.0,0.7567,0.7205,0.7074,0.682,0.6506,0.6642,0.669,0.6635,0.687,0.7023,0.0,0.0,0.0,0.0,0.0,0.0,0.0,0.0,0.0,0.0,0.0,0.0,0.0,0.0,0.0,0.0,0.0,0.0,0.0,0.0,0.0,0.0,0.289,0.2649,0.2452,0.2544,0.231,0.2055,0.1862,0.1695,0.1506,0.1147,0.0702,0.034,0.0405,0.0289,0.0204,0.0297,0.0165,0.0,0.053,-0.113,-0.2973,-0.4489,-0.6552,-0.8051,-0.8617,-0.8579,-0.8623,-0.8907,-0.8847,-0.9155,-0.9844,-0.9926,-1.022,-1.0961,-1.0791,-1.0828,-1.1156,-1.09,-1.0864,-1.1111,-1.1027,-1.1249,-1.1706,-1.1409,-1.1554,-1.2006,-1.1793,-1.1837,-1.2112,-1.1915,-1.1908,-1.2126,-1.2353,-1.2564,-1.2819,-1.3186,-1.3259,-1.3273,0.0,0.0,0.0,0.0,0.0,0.0,0.0,1.1207,1.0774,1.0052,1.0059,1.0179,1.042,1.0204,1.0026,0.9849,0.9615,0.0,0.0,0.0,0.0,0.0,0.0,0.0,0.0,0.7642,0.7391,0.7132,0.693,0.6692,0.6499,0.6482,0.6528,0.66,0.6617,0.6786,0.0,0.0,0.0,0.0,0.0,0.0,0.6043,0.0,0.0,0.0,0.0,0.0,0.0,0.0,0.0,0.0,0.0,0.0,0.0,0.0,0.2019,0.2344,0.0,0.2274,0.2041,0.1888,0.1814,0.0,0.1771,0.1501,0.1266,0.1332,0.0938,0.0588,0.0581,0.0339,0.017,0.02,-0.1711,-0.3122,-0.2827,-0.4419,-0.5871,-0.6657,-0.7578,-0.8231,-0.8675,-0.8426,-0.8453,-0.8975,-0.8907,-0.9135,-0.9674,-0.9769,-1.0231,-1.1201,-1.0885,-1.087,-1.1126,-1.1046,-1.1015,-1.1111,-1.1111,-1.126,-1.1484,-1.1186,-1.139,-1.1801,-1.1294,-1.1388,0.0,-1.1377,-1.1465,-1.1737,-1.2239,-1.2539,-1.2743,-1.3212,-1.3173,-1.3007,0.0,0.0,0.0,0.0,0.0,0.0,0.0,1.1132,1.1094,1.0659,1.0582,1.0802,1.1367,1.1255,1.0904,1.0372,0.9595,0.0,0.0,0.0,0.0,0.0,0.0,0.0,0.8402,0.7671,0.7303,0.736,0.7278,0.7106,0.6781,0.6665,0.6932,0.7495,0.6714,0.6763,0.0,0.0,0.0,0.0,0.0,0.0,0.0,0.0,0.0,0.0,0.0,0.0,0.0,0.0,0.0,0.0,0.0,0.0,0.0,0.0,0.0,0.0,0.0,0.2275,0.2386,0.1779,0.1725,0.1769,0.1653,0.1171,0.0,0.1398,0.1059,0.0596,0.0531,0.0493,0.0405,0.009,-0.4578,-0.8226,-0.82,-0.8392,-0.8575,-0.8659,-0.7758,-0.7541,-0.847,-0.7928,-0.7953,-0.8971,-0.8818,-0.8904,-0.9367,-0.9372,-0.9865,-1.0922,-1.0789,-1.0685,-1.0803,-1.0791,-1.0882,-1.1081,-1.1081,-1.1069,-1.1057,-1.1057,-1.1279,-1.1544,-1.1007,-1.0979,-1.1301,-1.0962,-1.1022,-1.1414,-1.1939,-1.241,-1.2696,-1.3008,-1.2935,-1.2806,0.0,0.0,0.0,0.0,0.0,0.0,0.0,0.0,0.0,0.0,1.0273,1.039,1.0829,1.0544,1.0083,0.0,0.0,0.0,0.0,0.0,0.0,0.0,0.0,0.0,0.7586,0.7406,0.7183,0.694,0.6909,0.6827,0.6634,0.6626,0.6626,0.6665,0.644,0.627,0.0,0.0,0.0,0.0,0.0,0.0,0.0,0.0,0.0,0.0,0.4849,0.4535,0.0,0.0,0.0,0.0,0.0,0.0,0.0,0.0,0.1751,0.1877,0.2045,0.0,0.2066,0.2069,0.2035,0.2011,0.0,0.0,0.0,0.0,0.0,0.0209,0.0408,0.0473,0.0494,0.0405,-0.28,-0.5267,-0.5267,-0.6217,-0.7241,-0.8259,-0.792,-0.7582,-0.7504,-0.7617,-0.8154,-0.9252,-0.925,-0.9422,-0.9992,-1.0147,-1.0433,-1.0841,-1.1147,-1.1377,-1.1636,-1.1443,-1.116,-1.081,-1.081,-1.0707,-1.0514,-1.0514,-1.0514,-1.0637,-1.0238,-1.0294,-1.0622,-1.0292,-1.0423,-1.0994,-1.1563,-1.2179,-1.2696,-1.3008,-1.3061,-1.3001,0.0,0.0,0.0,0.0,0.0,0.0,0.0,0.0,0.0,0.0,1.0418,1.0534,1.0878,1.0582,1.024,0.0,0.0,0.0,0.0,0.0,0.0,0.0,0.0,0.7991,0.7713,0.7364,0.7054,0.6811,0.6742,0.6665,0.6595,0.6573,0.6564,0.6633,0.6546,0.6269,0.5865,0.0,0.0,0.0,0.5991,0.0,0.0,0.0,0.0,0.0,0.4403,0.4089,0.0,0.2992,0.2604,0.2299,0.0,0.0,0.0,0.0,0.1719,0.1833,0.2062,0.2002,0.1929,0.2036,0.2036,0.1952,0.1697,0.0,0.0,0.0,0.0,-0.0122,-0.122,-0.1399,-0.1208,-0.0757,-0.2177,-0.3755,-0.5098,-0.6502,-0.7538,-0.7979,-0.6993,-0.668,-0.7465,-0.7507,-0.803,-0.9247,-0.9443,-0.9712,-1.0308,-1.0343,-1.0578,-1.0993,-1.136,-1.154,-1.1546,-1.154,-1.1317,-1.09,-1.0779,-1.0647,-1.0508,-1.0508,-1.0441,-1.0327,-1.0309,-1.0226,-1.0153,-1.0268,-1.0445,-1.0852,-1.1527,-1.211,-1.2546,-1.2832,-1.2851,-1.2756,0.0,0.0,0.0,0.0,0.0,0.0,0.0,0.0,0.0,0.0,0.0,0.0,0.0,0.0,0.0,0.0,0.0,0.0,0.0,0.0,0.0,0.0,0.0,0.7771,0.8014,0.7324,0.6906,0.6781,0.6673,0.6634,0.6626,0.6582,0.6686,0.6877,0.6754,0.6416,0.5955,0.6164,0.5979,0.5537,0.5809,0.0,0.0,0.0,0.0,0.0,0.0,0.0,0.0,0.2457,0.2197,0.2211,0.1661,0.0,0.0,0.0,0.0,0.0,0.2025,0.1901,0.175,0.1907,0.1938,0.1832,0.1451,0.0,0.0,0.0,0.0,-0.0853,-0.3152,-0.3614,-0.3308,-0.2482,-0.2398,-0.3441,-0.6096,-0.7585,-0.8083,-0.7318,-0.5864,-0.5615,-0.7622,-0.7474,-0.776,-0.9185,-0.9607,-0.992,-1.035,-1.039,-1.0622,-1.1209,-1.1414,-1.1395,-1.1111,-1.1347,-1.1347,-1.1105,-1.0767,-1.0622,-1.0659,-1.0659,-1.0562,-1.0399,-1.0622,-1.0472,-1.0091,-1.0538,-1.0743,-1.0858,-1.1624,-1.2083,-1.2425,-1.2608,-1.2566,-1.2492,0.0,0.0,0.0,0.0,0.0,0.0,0.0,0.0,0.0,0.0,0.0,0.0,0.0,0.0,0.0,0.0,0.0,0.0,0.0,0.0,0.0,0.8312,0.7872,0.7466,0.7099,0.6976,0.6816,0.6634,0.6742,0.6781,0.6781,0.6824,0.6829,0.6797,0.6378,0.6188,0.6164,0.613,0.6032,0.5875,0.5648,0.0,0.0,0.0,0.0,0.0,0.0,0.0,0.0,0.2484,0.2095,0.1767,0.1556,0.0,0.0,0.0,0.0,0.0,0.2034,0.1514,0.1098,0.1927,0.2123,0.1992,0.1771,0.0,0.0,0.0,0.0,0.0,-0.3534,-0.3592,-0.3547,-0.3417,-0.3873,-0.4786,-0.6277,-0.6966,-0.6719,-0.5426,-0.5686,-0.6255,-0.684,-0.7114,-0.7866,-0.9174,-0.9847,-1.0296,-1.0819,-1.0874,-1.0956,-1.088,-1.1313,-1.1395,-1.1111,-1.1154,-1.1154,-1.1099,-1.0393,-1.0107,-1.0387,-1.0387,-1.049,-1.0659,-1.0701,-1.0677,-1.0604,-1.0689,-1.0852,-1.1105,-1.1697,-1.217,-1.2603,-1.2693,-1.2851,-1.2996,0.0,0.0,0.0,0.0,0.0,0.0,0.0,0.0,0.0,0.0,0.0,0.0,0.0,0.0,0.0,0.0,0.0,0.0,0.0,0.0,0.0,0.7806,0.7621,0.7484,0.744,0.7293,0.7065,0.6703,0.6893,0.6924,0.6863,0.6833,0.6742,0.6529,0.6229,0.6037,0.5937,0.5989,0.5907,0.5774,0.0,0.0,0.0,0.0,0.0,0.0,0.0,0.0,0.0,0.0,0.1963,0.1873,0.1659,0.0,0.0,0.0,0.0,0.0,0.1947,0.1705,0.1492,0.1842,0.1576,0.1098,0.0597,0.0,0.0,0.0,0.0,0.0,0.0,-0.3999,-0.4024,-0.4199,-0.469,-0.5193,-0.5603,-0.605,-0.6084,-0.5395,-0.5611,-0.6232,-0.7236,-0.7769,-0.8517,-0.9868,-1.0466,-1.0897,-1.1182,-1.1042,-1.0988,-1.1134,-1.123,-1.1317,-1.1341,-1.1045,-1.0972,-1.1105,-1.0598,-1.0423,-1.0544,-1.0544,-1.0526,-1.0667,-1.081,-1.0912,-1.0814,-1.1033,-1.1316,-1.1764,-1.217,-1.2582,-1.3052,-1.2917,-1.2881,-1.2881,0.0,0.0,0.0,0.0,0.0,0.0,0.0,0.0,0.0,0.0,0.0,0.0,0.0,0.0,0.0,0.0,0.0,0.0,0.0,0.0,0.7618,0.7539,0.7499,0.7551,0.7715,0.7551,0.7244,0.6872,0.7035,0.7095,0.7005,0.6863,0.6681,0.6399,0.6137,0.5953,0.5867,0.5877,0.5874,0.5791,0.0,0.0,0.0,0.0,0.0,0.0,0.0,0.0,0.0,0.0,0.0,0.0,0.0,0.0,0.0,0.1811,0.1811,0.1845,0.1878,0.1778,0.1634,0.1499,0.1188,0.0,0.0,0.0,0.0,0.0,0.0,0.0,-0.4079,-0.421,-0.4374,-0.4674,-0.5098,-0.5287,-0.5143,-0.5448,-0.5664,-0.5697,-0.5621,-0.5949,-0.7208,-0.8065,-0.8932,-0.9974,-1.083,-1.1313,-1.1414,-1.1201,-1.1129,-1.1425,-1.1286,-1.128,-1.1431,-1.1021,-1.0942,-1.1208,-1.0816,-1.0695,-1.081,-1.081,-1.0773,-1.0821,-1.1156,-1.1162,-1.1109,-1.1388,-1.1734,-1.2177,-1.2393,-1.2806,-1.3212,-1.3043,-1.2826,-1.2705,0.0,0.0,0.0,0.0,0.0,0.0,0.0,0.0,0.0,0.0,0.0,0.0,0.0,0.0,0.0,0.0,0.0,0.0,0.0,0.0,0.7734,0.7588,0.7656,0.7558,0.7271,0.7244,0.7175,0.7065,0.7145,0.7244,0.7361,0.6966,0.6777,0.6747,0.6114,0.6025,0.6338,0.6035,0.6063,0.6319,0.5961,0.0,0.0,0.0,0.0,0.0,0.0,0.0,0.0,0.0,0.0,0.0,0.0,0.0,0.2014,0.2047,0.1911,0.1742,0.1878,0.126,0.0658,0.0819,0.1444,0.0,0.0827,0.0089,0.0,-0.1079,0.0,0.0,0.0,-0.4024,-0.4364,-0.4667,-0.502,-0.5322,-0.5366,-0.5415,-0.5532,-0.5678,-0.5581,-0.5513,-0.5631,-0.7211,-0.8293,-0.8483,-1.0258,-1.1338,-1.1235,-1.1522,-1.1542,-1.1148,-1.1377,-1.1383,-1.1141,-1.1099,-1.1226,-1.1492,-1.0725,-1.061,-1.1081,-1.1081,-1.1149,-1.1366,-1.16,-1.1714,-1.1649,-1.1694,-1.1884,-1.2075,-1.2093,-1.2362,-1.2674,-1.2674,-1.2661,-1.2705,0.0,0.0,0.0,0.0,0.0,0.0,0.0,0.0,0.0,0.0,0.0,0.0,0.0,0.0,0.0,0.0,0.0,0.0,0.0,0.8099,0.7792,0.7656,0.7695,0.7539,0.7196,0.7412,0.7451,0.7342,0.7451,0.7392,0.7223,0.7026,0.6678,0.6221,0.5851,0.5721,0.5779,0.5707,0.5815,0.6038,0.5937,0.5786,0.0,0.0,0.0,0.0,0.0,0.0,0.0,0.0,0.2081,0.2311,0.2211,0.2114,0.2047,0.1981,0.1845,0.1742,0.1878,0.1595,0.13,0.1462,0.1775,0.0,0.0,-0.0687,-0.0847,-0.1286,-0.2221,0.0,0.0,-0.4284,-0.4274,-0.4668,-0.4813,-0.4939,-0.5216,-0.536,-0.5455,-0.5502,-0.5466,-0.5939,-0.7108,-0.8049,-0.9152,-1.0396,-1.1171,-1.1645,-1.1501,-1.1419,-1.1295,-1.1117,-1.1214,-1.122,-1.1111,-1.1111,-1.1166,-1.1268,-1.096,-1.0918,-1.1111,-1.1111,-1.126,-1.1564,-1.1527,-1.1733,-1.2077,-1.1929,-1.2179,-1.2542,-1.2733,-1.2698,-1.2581,-1.2751,-1.2794,-1.2739,0.0,0.0,0.0,0.0,0.0,0.0,0.0,0.0,0.0,0.0,0.0,0.0,0.0,0.0,0.0,0.0,0.0,0.0,0.8548,0.8119,0.784,0.7686,0.7637,0.751,0.7196,0.7412,0.7519,0.746,0.7608,0.748,0.7095,0.6936,0.6535,0.5952,0.5741,0.5638,0.5554,0.5683,0.5788,0.5861,0.6085,0.5885,0.0,0.0,0.0,0.0,0.0,0.0,0.0,0.0,0.2311,0.2444,0.2314,0.2214,0.2083,0.1981,0.1823,0.1695,0.173,0.1769,0.1784,0.1782,0.0,0.0,-0.0651,-0.0938,-0.106,-0.1856,-0.2915,-0.3964,-0.4568,-0.4405,-0.433,-0.4623,-0.4689,-0.4804,-0.5156,-0.5257,-0.5325,-0.5366,-0.5501,-0.6049,-0.7271,-0.8176,-0.9276,-1.0704,-1.1236,-1.1538,-1.1571,-1.1421,-1.1277,-1.1111,-1.1196,-1.1202,-1.1111,-1.1111,-1.1111,-1.1111,-1.1111,-1.1111,-1.1186,-1.1186,-1.1409,-1.1781,-1.1632,-1.1855,-1.2298,-1.215,-1.2276,-1.2625,-1.2762,-1.2668,-1.2463,-1.2648,-1.2613,-1.248,0.0,0.0,0.0,0.0,0.0,0.0,0.0,0.0,0.0,0.0,0.0,0.0,0.0,0.0,0.0,0.0,0.0,0.0,0.8591,0.8168,0.7811,0.7618,0.7539,0.7421,0.7196,0.7196,0.7264,0.739,0.7539,0.7412,0.7095,0.6673,0.636,0.6083,0.5885,0.585,0.5913,0.6123,0.6117,0.6009,0.6366,0.6269,0.5921,0.0,0.0,0.0,0.0,0.0,0.0,0.0,0.2441,0.2441,0.2646,0.2417,0.2117,0.2117,0.1882,0.1564,0.1447,0.1663,0.187,0.1641,0.0,0.0,0.0104,-0.0371,-0.1187,-0.2958,-0.3829,-0.4228,-0.3928,-0.4405,-0.4709,-0.4436,-0.4703,-0.5053,-0.5167,-0.5184,-0.523,-0.5352,-0.5665,-0.5746,-0.5511,-0.711,-0.8232,-0.868,-0.9976,-1.0962,-1.1335,-1.1682,-1.1554,-1.1117,-1.1383,-1.1395,-1.1117,-1.1111,-1.1111,-1.1111,-1.1111,-1.1186,-1.1409,-1.1409,-1.1632,-1.2003,-1.2003,-1.2077,-1.2305,-1.2305,-1.2305,-1.2305,-1.2077,-1.2035,-1.2068,-1.2075,-1.201,-1.1956,0.0,0.0,0.0,0.0,0.0,0.0,0.0,0.0,0.0,0.0,0.0,0.0,0.0,0.0,0.0,0.0,0.0,0.0,0.8247,0.8036,0.7811,0.7618,0.7627,0.7421,0.6996,0.6816,0.6936,0.7392,0.7314,0.7047,0.6673,0.6307,0.6056,0.5885,0.5678,0.5708,0.59,0.5883,0.5876,0.5908,0.5725,0.552,0.523,0.0,0.0,0.0,0.0,0.0,0.0,0.0,0.0,0.0,0.238,0.2281,0.2278,0.2081,0.196,0.1882,0.1954,0.1865,0.1866,0.2221,0.0,0.0,0.0,-0.1231,0.0,0.0,-0.382,-0.3806,-0.4239,-0.4262,-0.4273,-0.4452,-0.4504,-0.4651,-0.492,-0.5012,-0.5159,-0.5512,-0.5641,-0.6002,-0.6847,-0.754,-0.8307,-0.9079,-1.0056,-1.0778,-1.0974,-1.134,-1.1496,-1.1484,-1.1496,-1.1421,-1.1335,-1.1335,-1.1335,-1.1335,-1.1335,-1.1335,-1.1409,-1.1409,-1.1632,-1.2003,-1.2003,-1.2077,-1.2298,-1.215,-1.215,-1.2305,-1.2077,-1.1987,-1.2016,-1.2222,-1.2408,-1.2578,0.0,0.0,0.0,0.0,0.0,0.0,0.0,0.0,0.0,0.0,0.0,0.0,0.0,0.0,0.0,0.0,0.0,0.0,0.0,0.7937,0.7811,0.7618,0.753,0.7235,0.6725,0.6604,0.6634,0.6837,0.6798,0.6587,0.6268,0.6044,0.5948,0.5855,0.5684,0.5744,0.6005,0.5863,0.5762,0.5704,0.5516,0.5239,0.4881,0.0,0.0,0.0,0.0,0.0,0.0,0.0,0.0,0.0,0.2414,0.2314,0.2231,0.1943,0.1927,0.1959,0.1806,0.1891,0.1951,0.1952,0.1102,-0.0117,-0.1452,0.0,0.0,0.0,-0.4119,-0.3981,-0.4317,-0.433,-0.433,-0.4419,-0.4512,-0.4619,-0.4742,-0.4933,-0.5118,-0.5393,-0.5681,-0.6177,-0.678,-0.734,-0.7905,-0.8623,-0.9342,-0.9884,-1.0207,-1.0707,-1.107,-1.1254,-1.1409,-1.1484,-1.1484,-1.1484,-1.1335,-1.1037,-1.1335,-1.1409,-1.1186,-1.1484,-1.1781,-1.215,-1.215,-1.215,-1.215,-1.1929,-1.1929,-1.2003,-1.1855,-1.1781,-1.1874,-1.2061,-1.2235,-1.2324,0.0,0.0,0.0,0.0,0.0,0.0,0.0,0.0,0.0,0.0,0.0,0.0,0.0,0.0,0.0,0.0,0.0,0.0,0.0,0.0,0.7782,0.7618,0.7324,0.6927,0.6474,0.6504,0.6368,0.6005,0.6168,0.6122,0.5882,0.5859,0.5891,0.5999,0.5759,0.5856,0.6192,0.5955,0.5714,0.5469,0.5474,0.5215,0.4748,0.4272,0.0,0.0,0.0,0.0,0.0,0.0,0.0,0.0,0.2626,0.2426,0.2055,0.1809,0.1887,0.1889,0.1351,0.1798,0.2219,0.1333,0.0846,-0.0062,-0.2567,-0.3232,-0.354,-0.4469,-0.4588,-0.4455,-0.4253,-0.4496,-0.4678,-0.4432,-0.4563,-0.4681,-0.4814,-0.4961,-0.5082,-0.5205,-0.5864,-0.618,-0.6018,-0.6714,-0.7334,-0.7629,-0.8067,-0.8565,-0.9135,-0.9895,-1.0391,-1.0357,-1.1081,-1.1452,-1.1477,-1.1477,-1.1111,-1.0363,-1.1186,-1.1329,-1.0812,-1.1632,-1.2077,-1.2305,-1.2305,-1.215,-1.2003,-1.1781,-1.1706,-1.1706,-1.1484,-1.1484,-1.1706,-1.1706,-1.1651,-1.1559,0.0,0.0,0.0,0.0,0.0,0.0,0.0,0.0,0.0,0.0,0.0,0.0,0.0,0.0,0.0,0.0,0.0,0.0,0.0,0.0,0.7715,0.7618,0.7154,0.6885,0.6867,0.6291,0.6024,0.6153,0.6,0.5897,0.5882,0.5428,0.5524,0.6125,0.5679,0.5789,0.6318,0.5795,0.5465,0.5223,0.4835,0.4445,0.4051,0.359,0.3457,0.0,0.0,0.0,0.0,0.0,0.0,0.0,0.2571,0.2396,0.2228,0.2073,0.212,0.2223,0.2158,0.2378,0.2607,0.2499,0.0876,-0.1059,-0.2465,-0.3,-0.3454,-0.4216,-0.4342,-0.4338,-0.4271,-0.4379,-0.4436,-0.4499,-0.451,-0.4654,-0.5021,-0.503,-0.5286,-0.596,-0.6163,-0.6335,-0.6409,-0.6641,-0.6795,-0.6868,-0.7516,-0.804,-0.8309,-0.8862,-0.9285,-0.9518,-0.9643,-0.9712,-0.982,-0.9825,-0.975,-0.9599,-1.0346,-1.0789,-1.0864,-1.1626,-1.2077,-1.2298,-1.2157,-1.2003,-1.2003,-1.1632,-1.1558,-1.1706,-1.1484,-1.1484,-1.1706,-1.1706,-1.1934,-1.219,0.0,0.0,0.0,0.0,0.0,0.0,0.0,0.0,0.0,0.0,0.0,0.0,0.0,0.0,0.0,0.0,0.0,0.0,0.0,0.0,0.7627,0.7383,0.7014,0.6742,0.6587,0.6106,0.5853,0.5859,0.5599,0.5605,0.5848,0.5478,0.5694,0.6277,0.5943,0.5983,0.6283,0.5763,0.5326,0.4955,0.4492,0.4153,0.3841,0.3411,0.3336,0.3436,0.324,0.0,0.0,0.0,0.0,0.0,0.0,0.0,0.2172,0.1966,0.2109,0.2209,0.1657,0.1808,0.1959,0.1602,0.0,-0.1212,-0.1548,-0.215,-0.3011,-0.4098,-0.4375,-0.4382,-0.4382,-0.4431,-0.4469,-0.4469,-0.4607,-0.4792,-0.4928,-0.5216,-0.558,-0.5884,-0.6173,-0.6307,-0.6453,-0.6667,-0.6681,-0.6608,-0.7052,-0.7387,-0.7544,-0.8044,-0.8467,-0.8832,-0.9105,-0.9255,-0.9448,-0.9372,-0.9069,-0.8765,-0.9664,-1.0346,-1.0944,-1.1774,-1.215,-1.215,-1.2077,-1.1855,-1.1706,-1.1484,-1.1484,-1.1558,-1.1409,-1.1558,-1.1855,-1.1855,-1.2032,-1.2224,0.0,0.0,0.0,0.0,0.0,0.0,0.0,0.0,0.0,0.0,0.0,0.0,0.0,0.0,0.0,0.0,0.0,0.0,0.0,0.0,0.0,0.7095,0.6863,0.6582,0.6191,0.5983,0.5824,0.5716,0.5364,0.5501,0.599,0.5757,0.596,0.6428,0.6255,0.6159,0.6102,0.5692,0.5198,0.4622,0.4307,0.4016,0.3761,0.3442,0.3377,0.3434,0.3344,0.3245,0.3212,0.3245,0.0,0.0,0.0,0.0,0.2052,0.1753,0.1931,0.2024,0.1179,0.1052,0.0988,0.0195,-0.047,-0.0807,-0.0538,-0.1344,-0.2485,-0.3976,-0.4384,-0.4442,-0.4439,-0.4523,-0.4629,-0.4524,-0.4783,-0.4927,-0.4818,-0.5355,-0.5741,-0.5627,-0.6016,-0.635,-0.6336,-0.6666,-0.6757,-0.6522,-0.6682,-0.6753,-0.674,-0.7206,-0.765,-0.7999,-0.85,-0.8878,-0.9064,-0.8917,-0.8537,-0.7855,-0.8841,-0.9895,-1.1031,-1.1706,-1.2003,-1.2003,-1.1929,-1.1706,-1.1409,-1.1409,-1.1409,-1.1409,-1.1409,-1.1632,-1.1929,-1.1929,-1.2003,-1.2003,0.0,0.0,0.0,0.0,0.0,0.0,0.0,0.0,0.0,0.0,0.0,0.0,0.0,0.0,0.0,0.0,0.0,0.0,0.0,0.0,0.0,0.7017,0.6695,0.6551,0.6535,0.6052,0.6051,0.6543,0.5992,0.6056,0.0,0.0,0.593,0.6626,0.6217,0.5974,0.5831,0.5416,0.4768,0.4016,0.4021,0.3765,0.3377,0.3311,0.3311,0.3311,0.3245,0.3245,0.3303,0.336,0.3102,0.0,0.0,0.0,0.2022,0.1714,0.1762,0.1988,0.2209,0.0,0.0179,0.0,-0.0066,-0.0202,-0.0472,-0.1346,-0.2491,-0.3986,-0.433,-0.4333,-0.4325,-0.4338,-0.4408,-0.4587,-0.4721,-0.4898,-0.5149,-0.5567,-0.585,-0.5909,-0.6301,-0.6499,-0.6336,-0.6492,-0.6519,-0.6212,-0.632,-0.6332,-0.6132,-0.6186,-0.6324,-0.656,-0.6651,-0.6791,-0.7019,-0.6942,-0.6945,-0.6791,-0.7855,-0.9135,-1.0565,-1.0881,-1.1335,-1.2003,-1.1632,-1.1484,-1.1409,-1.1409,-1.1409,-1.1409,-1.1558,-1.1706,-1.1706,-1.1706,-1.1855,-1.2003,0.0,0.0,0.0,0.0,0.0,0.0,0.0,0.0,0.0,0.0,0.0,0.0,0.0,0.0,0.0,0.0,0.0,0.0,0.0,0.0,0.0,0.6885,0.6551,0.6457,0.661,0.6113,0.6186,0.6811,0.6278,0.0,0.0,0.6469,0.6478,0.0,0.6593,0.6194,0.5658,0.5322,0.4657,0.3798,0.3765,0.3564,0.3237,0.3289,0.3364,0.3466,0.3318,0.3378,0.3462,0.3166,0.294,0.2693,0.217,0.0,0.0,0.0,0.1562,0.1705,0.2197,0.1455,0.0515,0.0,0.0326,-0.0066,-0.0201,-0.0606,-0.1078,-0.1753,-0.2495,-0.31,-0.309,-0.3424,-0.3897,-0.4567,-0.4561,-0.4643,-0.5106,-0.5652,-0.5916,-0.5912,-0.6279,-0.6559,-0.6373,-0.6587,-0.666,-0.6468,-0.6463,-0.6412,-0.6343,-0.6197,-0.6225,-0.6452,-0.6466,-0.6585,-0.673,-0.6743,-0.6788,-0.6788,-0.7553,-0.8385,-0.921,-1.0056,-1.0887,-1.1632,-1.1484,-1.1335,-1.126,-1.126,-1.1335,-1.1409,-1.1632,-1.1706,-1.1706,-1.1929,-1.2003,-1.2003,0.0,0.0,0.0,0.0,0.0,0.0,0.0,0.0,0.0,0.0,0.0,0.0,0.0,0.0,0.0,0.0,0.0,0.0,0.0,0.0,0.0,0.6751,0.6558,0.653,0.6677,0.6357,0.6462,0.7003,0.0,0.0,0.6987,0.6947,0.6943,0.0,0.6829,0.6341,0.5535,0.5207,0.45,0.3651,0.3564,0.3357,0.3184,0.3217,0.3264,0.3303,0.3304,0.3361,0.344,0.3098,0.2914,0.2656,0.2008,0.1693,0.0,0.0,0.0,0.1438,0.1667,0.0,0.1082,0.0851,0.0568,0.0257,0.0265,0.0134,-0.0,-0.0,-0.0674,-0.1415,-0.1747,-0.2217,-0.2956,-0.4167,-0.4359,-0.4486,-0.5153,-0.5691,-0.6,-0.5859,-0.6244,-0.647,-0.6429,-0.6662,-0.6754,-0.6563,-0.6526,-0.6533,-0.6388,-0.6354,-0.6376,-0.6523,-0.654,-0.6622,-0.6767,-0.6783,-0.6788,-0.6865,-0.7246,-0.7706,-0.8084,-0.9301,-1.0288,-1.1037,-1.126,-1.126,-1.1111,-1.1186,-1.1335,-1.1484,-1.1781,-1.1855,-1.1855,-1.215,-1.215,-1.2003,0.0,0.0,0.0,0.0,0.0,0.0,0.0,0.0,0.0,0.0,0.0,0.0,0.0,0.0,0.8347,0.7927,0.0,0.0,0.0,0.0,0.0,0.6521,0.6747,0.0,0.6884,0.6928,0.704,0.0,0.0,0.0,0.7189,0.7049,0.7007,0.6979,0.6647,0.6145,0.5459,0.0,0.4224,0.3579,0.3343,0.3187,0.3112,0.0,0.2876,0.0,0.305,0.31,0.3007,0.3408,0.3174,0.2636,0.2202,0.1813,0.1373,0.0,0.0,0.0,0.0664,0.1148,0.0,0.0333,0.0532,0.1058,0.1029,0.0529,-0.0,-0.0,0.0472,0.0539,-0.0876,-0.0875,-0.1276,-0.322,-0.3954,-0.4619,-0.5481,-0.5684,-0.5859,-0.6069,-0.6082,-0.6248,-0.6587,-0.6522,-0.636,-0.6214,-0.6352,-0.6214,-0.5869,-0.6149,-0.6301,-0.6301,-0.6313,-0.6321,-0.6318,-0.6332,-0.6412,-0.6637,-0.6641,-0.7096,-0.7859,-0.8694,-0.9382,-0.9992,-1.0812,-1.1111,-1.1111,-1.1484,-1.1706,-1.1706,-1.215,-1.215,-1.2003,-1.2231,-1.215,-1.2003,0.0,0.0,0.0,0.0,0.0,0.0,0.0,0.0,0.0,0.0,0.0,0.0,0.0,0.8505,0.828,0.7879,0.7618,0.0,0.0,0.0,0.0,0.6844,0.7037,0.7229,0.7431,0.7162,0.7228,0.0,0.0,0.719,0.7405,0.7286,0.707,0.6689,0.6435,0.6073,0.5579,0.4853,0.4268,0.3805,0.3443,0.3256,0.3281,0.0,0.0,0.0,0.3187,0.3142,0.297,0.2924,0.2682,0.231,0.1911,0.1511,0.1097,0.0638,0.0728,0.0888,0.0,0.0,0.0,0.0637,0.0562,0.0707,0.1055,0.0899,0.0726,0.0739,0.0741,0.0539,-0.0,-0.0269,-0.1144,-0.3422,-0.3756,-0.4154,-0.5289,-0.5673,-0.5843,-0.5773,-0.5989,-0.6186,-0.6147,-0.6249,-0.6165,-0.5989,-0.6175,-0.6242,-0.6037,-0.6233,-0.6335,-0.6335,-0.6507,-0.663,-0.6693,-0.6707,-0.6637,-0.6563,-0.649,-0.6567,-0.6872,-0.8241,-0.8927,-0.9236,-1.0507,-1.1111,-1.1111,-1.126,-1.1335,-1.1335,-1.1781,-1.1706,-1.1484,-1.1929,-1.2003,-1.1855,0.0,0.0,0.0,0.0,0.0,0.0,0.0,0.0,0.0,0.0,0.0,0.0,0.0,0.0,0.8544,0.8146,0.7754,0.7557,0.7601,0.7484,0.7349,0.7213,0.7416,0.7602,0.781,0.7471,0.0,0.0,0.0,0.0,0.0,0.7328,0.6992,0.6428,0.6215,0.5865,0.0,0.0,0.0,0.3953,0.3434,0.3318,0.353,0.0,0.3232,0.3131,0.3248,0.3147,0.2927,0.2667,0.2416,0.2121,0.1786,0.1298,0.0,0.0,0.0,0.0,0.07,0.0,0.0,0.0,0.0732,0.0761,0.1,0.0989,0.0963,0.1057,0.0871,0.0607,0.0202,-0.0135,-0.101,-0.2817,-0.3084,-0.3418,-0.4622,-0.509,-0.5352,-0.5348,-0.5716,-0.597,-0.5981,-0.6026,-0.5962,-0.5911,-0.6051,-0.6083,-0.6083,-0.6214,-0.6378,-0.6372,-0.6559,-0.662,-0.668,-0.6697,-0.663,-0.6561,-0.6388,-0.6338,-0.649,-0.8016,-0.8703,-0.8775,-1.0432,-1.1111,-1.1111,-1.1186,-1.126,-1.1335,-1.1706,-1.1632,-1.1335,-1.1855,-1.1855,-1.1632,0.0,0.0,0.0,0.0,0.0,0.0,0.0,0.0,0.0,0.0,0.0,0.0,0.0,0.0,0.0,0.8751,0.8158,0.7744,0.7619,0.7476,0.7476,0.7619,0.0,0.0,0.0,0.0,0.0,0.0,0.0,0.0,0.0,0.0,0.6859,0.6289,0.607,0.5597,0.4934,0.0,0.4271,0.3944,0.3299,0.334,0.3719,0.3209,0.3061,0.3152,0.3187,0.3042,0.2892,0.2803,0.2495,0.2095,0.1871,0.0,0.0,0.0,0.0,0.0,0.0,0.0,0.0,0.0,0.0998,0.1223,0.0928,0.0823,0.0807,0.1024,0.1056,0.0741,-0.0202,-0.0472,-0.074,-0.1543,-0.1945,-0.248,-0.342,-0.402,-0.4486,-0.4815,-0.5156,-0.5621,-0.6123,-0.5847,-0.5681,-0.5841,-0.5914,-0.5888,-0.5888,-0.6083,-0.6293,-0.6394,-0.6405,-0.6352,-0.6301,-0.6309,-0.6392,-0.6555,-0.6412,-0.6405,-0.6633,-0.8089,-0.8703,-0.8856,-1.0432,-1.1111,-1.1111,-1.1335,-1.1484,-1.1706,-1.1929,-1.1855,-1.1706,-1.1929,-1.1706,-1.1409,0.0,0.0,0.0,0.0,0.0,0.0,0.9135,0.9351,0.0,0.0,0.0,0.0,0.0,0.0,0.9062,0.8984,0.8228,0.7834,0.8094,0.7932,0.7856,0.7961,0.8228,0.8383,0.8383,0.0,0.0,0.0,0.0,0.0,0.0,0.0,0.0,0.0,0.5766,0.523,0.4421,0.4508,0.0,0.4314,0.3865,0.3684,0.3672,0.3324,0.2895,0.2489,0.2711,0.2738,0.2635,0.2381,0.2425,0.251,0.1835,0.0,0.0,0.0,0.0,0.0,0.0684,0.0,0.0,0.0,0.0,0.0,0.0784,0.0793,0.0848,0.0957,0.0504,-0.0065,-0.0457,-0.139,-0.2144,-0.2477,-0.2945,-0.348,-0.4223,-0.4957,-0.5422,-0.5415,-0.5422,-0.5446,-0.5621,-0.5516,-0.5509,-0.5554,-0.5645,-0.5752,-0.5888,-0.6152,-0.6374,-0.6422,-0.6555,-0.6495,-0.6301,-0.6349,-0.6284,-0.6179,-0.6074,-0.6389,-0.7064,-0.8174,-0.9008,-0.9614,-1.0663,-1.1111,-1.1111,-1.1186,-1.1186,-1.126,-1.1484,-1.1409,-1.126,-1.1484,-1.1484,-1.1409,0.0,0.0,0.0,0.0,0.0,0.9205,0.9384,0.9574,0.9747,0.0,0.0,0.0,0.0,0.0,0.0,0.9203,0.8569,0.8231,0.8353,0.8339,0.826,0.8221,0.8407,0.848,0.8447,0.8152,0.0,0.0,0.0,0.0,0.0,0.0,0.0,0.0,0.0,0.0,0.0,0.0,0.0,0.0,0.395,0.3778,0.3791,0.333,0.2932,0.2624,0.2658,0.2633,0.2566,0.2239,0.2215,0.2269,0.182,0.1378,0.0,0.0,0.0,0.0,0.0,0.0,0.0,0.0,0.0,0.0,0.0279,0.0349,0.0373,-0.0,-0.0245,-0.0506,-0.0948,-0.2048,-0.2923,-0.2954,-0.3549,-0.409,-0.4148,-0.4824,-0.5289,-0.5084,-0.5289,-0.5428,-0.5428,-0.5428,-0.5428,-0.5428,-0.5488,-0.562,-0.5888,-0.6152,-0.635,-0.635,-0.6451,-0.6351,-0.6102,-0.6169,-0.6037,-0.5916,-0.5905,-0.6331,-0.7208,-0.8212,-0.907,-0.9922,-1.0738,-1.1111,-1.1111,-1.1111,-1.1186,-1.126,-1.1335,-1.1335,-1.126,-1.1335,-1.1335,-1.126,0.0,0.0,0.9201,0.9216,0.9189,0.9333,0.9738,0.9803,0.9861,0.0,0.0,0.0,0.0,0.0,0.0,0.0,0.9024,0.8741,0.8521,0.8602,0.8602,0.8455,0.8488,0.848,0.8414,0.8152,0.0,0.0,0.0,0.0,0.0,0.0,0.0,0.0,0.0,0.0,0.0,0.0,0.0,0.4309,0.3801,0.3765,0.3883,0.3254,0.3079,0.3067,0.2849,0.2713,0.2609,0.2411,0.208,0.1774,0.1811,0.1535,0.1178,0.1122,0.1051,0.0,0.0,0.0,0.0,0.0,0.0684,0.0,-0.0181,-0.0239,-0.0354,-0.1004,-0.082,-0.072,-0.132,-0.2414,-0.3179,-0.2945,-0.3864,-0.4385,-0.3735,-0.4289,-0.4625,-0.4486,-0.5024,-0.5428,-0.5428,-0.5428,-0.5428,-0.5428,-0.5425,-0.5557,-0.5822,-0.6083,-0.6148,-0.6148,-0.6148,-0.6094,-0.5914,-0.5905,-0.5837,-0.579,-0.5923,-0.6417,-0.7294,-0.8212,-0.9079,-1.0029,-1.0801,-1.1111,-1.1111,-1.1111,-1.1186,-1.1335,-1.1335,-1.1335,-1.1335,-1.1335,-1.126,-1.1186,0.0,0.0,0.9415,0.9919,0.9851,0.9915,1.0417,1.0454,1.046,0.0,0.0,0.0,0.0,0.0,0.0,0.0,0.8805,0.8602,0.8635,0.8529,0.8529,0.8643,0.8561,0.848,0.8414,0.825,0.8085,0.0,0.0,0.0,0.0,0.0,0.0,0.0,0.0,0.0,0.0,0.0,0.0,0.411,0.4237,0.4082,0.3689,0.3234,0.2906,0.2583,0.2378,0.2555,0.2856,0.3054,0.2648,0.2136,0.2158,0.1996,0.1659,0.1371,0.1186,0.0,0.0,0.0,0.0709,0.0517,0.0634,0.0,0.0532,-0.0,-0.0295,0.0179,-0.0192,-0.0553,-0.0553,-0.179,-0.2793,-0.2646,-0.3767,-0.4659,-0.4581,-0.5017,-0.5418,-0.5348,-0.5359,-0.5428,-0.5428,-0.5428,-0.5428,-0.5428,-0.5488,-0.5617,-0.5683,-0.5818,-0.5954,-0.5954,-0.5954,-0.5885,-0.5809,-0.6317,-0.6202,-0.5658,-0.6773,-0.7422,-0.7753,-0.8801,-0.9796,-1.0592,-1.0947,-1.1111,-1.1111,-1.1111,-1.1111,-1.1186,-1.1186,-1.1186,-1.1186,-1.1186,-1.126,-1.1335,0.0,0.9393,0.9493,0.9968,0.9951,1.0087,1.0707,1.0719,0.0,0.0,0.0,0.0,0.0,0.0,0.0,0.0,0.0,0.0,0.0,0.857,0.857,0.857,0.8521,0.8447,0.8299,0.8258,0.8085,0.7919,0.0,0.0,0.0,0.0,0.0,0.0,0.0,0.0,0.0,0.0,0.4249,0.429,0.4299,0.4041,0.357,0.3067,0.2758,0.2465,0.2296,0.2435,0.2828,0.2886,0.2626,0.2322,0.2331,0.219,0.1949,0.1544,0.1432,0.1335,0.1085,0.0814,0.061,0.0448,0.055,0.0,0.0,0.008,-0.0331,-0.0177,-0.0547,-0.0882,-0.0806,-0.169,-0.2424,-0.2513,-0.3501,-0.4243,-0.4082,-0.4967,-0.555,-0.5488,-0.5425,-0.5428,-0.5428,-0.5428,-0.5428,-0.5428,-0.5491,-0.5554,-0.5617,-0.5686,-0.5752,-0.5752,-0.5752,-0.5726,-0.5606,-0.6254,-0.6386,-0.6007,-0.7069,-0.7855,-0.8373,-0.8944,-0.9749,-1.0725,-1.0858,-1.0991,-1.1111,-1.1111,-1.1111,-1.1111,-1.1111,-1.1111,-1.1111,-1.1186,-1.1335,-1.1409,0.9521,0.9491,0.9607,0.998,1.0082,1.0307,1.0953,1.0829,0.0,0.0,0.0,0.0,0.0,0.0,0.0,0.0,0.0,0.0,0.0,0.8543,0.8543,0.8385,0.8438,0.8356,0.8143,0.8074,0.7961,0.7795,0.0,0.0,0.0,0.0,0.0,0.0,0.0,0.0,0.0,0.0,0.0,0.4483,0.42,0.3922,0.3545,0.3032,0.2758,0.2609,0.2402,0.2465,0.2687,0.2613,0.2511,0.2399,0.2437,0.2274,0.2039,0.166,0.1582,0.1465,0.1037,0.074,0.0505,0.0463,0.046,0.0499,0.0,0.0,0.0,-0.0589,-0.0756,-0.0875,-0.0913,-0.1331,-0.1767,-0.1947,-0.2896,-0.343,-0.3098,-0.4118,-0.4954,-0.499,-0.5199,-0.5304,-0.5212,-0.5209,-0.5232,-0.5359,-0.5239,-0.5298,-0.5547,-0.555,-0.555,-0.555,-0.555,-0.5554,-0.5624,-0.6272,-0.6597,-0.6597,-0.7386,-0.8128,-0.8836,-0.9019,-0.9633,-1.0647,-1.0695,-1.087,-1.1111,-1.1111,-1.1111,-1.1186,-1.1186,-1.1186,-1.1186,-1.1409,-1.1484,-1.1545,0.9571,0.9655,0.9991,1.0526,1.0697,1.0965,1.145,1.1047,0.0,0.0,0.0,0.0,0.0,0.0,0.0,0.0,0.0,0.0,0.8391,0.8384,0.8384,0.8412,0.8398,0.8265,0.796,0.7716,0.753,0.7461,0.0,0.0,0.0,0.0,0.0,0.0,0.4397,0.0,0.0,0.0,0.4103,0.0,0.4101,0.4052,0.401,0.3568,0.333,0.3166,0.2771,0.2691,0.2734,0.2972,0.2766,0.2407,0.2458,0.2359,0.2063,0.1583,0.1468,0.1375,0.0868,0.0608,0.0506,0.0548,0.0327,0.0158,0.0594,0.0,0.0477,0.0441,0.0,0.038,0.0399,0.0,0.0,-0.012,-0.139,-0.2294,-0.2073,-0.2395,-0.287,-0.3359,-0.4427,-0.4978,-0.4538,-0.4399,-0.4628,-0.5342,-0.4728,-0.4631,-0.5411,-0.5428,-0.5428,-0.5428,-0.5428,-0.5686,-0.6268,-0.6924,-0.7256,-0.7321,-0.863,-0.9034,-0.8603,-0.9423,-0.9956,-1.0387,-1.0622,-1.087,-1.1111,-1.1111,-1.1186,-1.1335,-1.1335,-1.1335,-1.1409,-1.1558,-1.1781,-1.1896,1.0052,1.0163,0.0,1.0654,1.0576,1.0639,1.1015,1.0313,0.0,0.0,0.0,0.0,0.0,0.0,0.0,0.0,0.0,0.8409,0.0,0.0,0.0,0.8122,0.8146,0.7972,0.7487,0.73,0.7196,0.7125,0.6598,0.0,0.0,0.0,0.0,0.0,0.424,0.0,0.4316,0.0,0.4153,0.0,0.4157,0.4125,0.416,0.3534,0.3138,0.2966,0.2845,0.2747,0.274,0.2811,0.2826,0.2787,0.2665,0.2564,0.2434,0.1842,0.1647,0.1447,0.1003,0.0541,0.0226,0.0573,0.0308,0.0044,0.0456,0.0613,0.0655,0.0655,0.0,0.0,0.0,0.0,0.0,0.0,-0.1036,-0.1701,-0.1253,-0.215,-0.2907,-0.3074,-0.355,-0.4011,-0.4284,-0.4687,-0.5026,-0.5352,-0.511,-0.5029,-0.5355,-0.5428,-0.5428,-0.5428,-0.5752,-0.6141,-0.64,-0.7512,-0.8037,-0.8032,-0.9022,-0.935,-0.9087,-0.9462,-0.979,-1.0042,-1.0087,-1.0431,-1.0882,-1.0888,-1.1126,-1.1409,-1.1632,-1.1706,-1.1632,-1.1781,-1.1929,-1.199,1.0285,0.0,0.0,1.0578,1.0372,1.0236,1.0403,0.9615,0.0,0.0,0.0,0.0,0.9249,0.912,0.0,0.0,0.8654,0.8485,0.0,0.846,0.826,0.7975,0.7878,0.7651,0.7238,0.7029,0.6859,0.6745,0.6301,0.0,0.0,0.0,0.0,0.0,0.0,0.4214,0.4383,0.0,0.412,0.4316,0.4086,0.4089,0.4154,0.3492,0.3053,0.28,0.2914,0.2858,0.2742,0.2771,0.283,0.2829,0.2634,0.2549,0.2417,0.2009,0.1645,0.1363,0.1158,0.056,0.0095,0.0409,0.0276,0.0093,0.0261,0.0515,0.0686,0.0686,0.0703,0.0,0.0,0.0,0.0,0.0,0.0,-0.1194,-0.0776,-0.1736,-0.2511,-0.2434,-0.2607,-0.3037,-0.3803,-0.4393,-0.4769,-0.4977,-0.4987,-0.5084,-0.5294,-0.5338,-0.5491,-0.5686,-0.6141,-0.6597,-0.6985,-0.7967,-0.8619,-0.8753,-0.9285,-0.9484,-0.9484,-0.9478,-0.9622,-0.9807,-0.9673,-1.003,-1.0725,-1.0797,-1.1101,-1.1558,-1.1855,-1.1929,-1.1855,-1.2003,-1.2077,-1.2063,0.9885,0.9863,0.0,0.0,1.023,1.0052,0.9866,0.9357,0.0,0.0,0.0,0.0,0.0,0.0,0.0,0.0,0.0,0.8423,0.8493,0.8118,0.7981,0.8091,0.7668,0.7389,0.7313,0.6925,0.6605,0.641,0.5798,0.0,0.0,0.0,0.0,0.0,0.4363,0.4396,0.4552,0.4094,0.3891,0.3912,0.3862,0.3889,0.399,0.3607,0.3317,0.3074,0.3074,0.3023,0.2901,0.3069,0.2709,0.2216,0.2297,0.2068,0.1742,0.1786,0.1396,0.0993,0.1311,0.0858,0.0237,-0.0,0.0135,0.0315,0.009,0.0359,0.0718,0.0718,0.0607,0.0469,0.0267,0.0,0.0,0.0,0.0,0.0,0.0,-0.0751,-0.0846,-0.0972,-0.1596,-0.2297,-0.2998,-0.2943,-0.3189,-0.399,-0.4068,-0.4357,-0.5058,-0.5281,-0.5686,-0.6334,-0.6396,-0.7051,-0.8425,-0.849,-0.8818,-0.9484,-0.9484,-0.9484,-0.9484,-0.9344,-0.9421,-0.9679,-0.9528,-0.9955,-1.0803,-1.0803,-1.1247,-1.2003,-1.2003,-1.215,-1.2305,-1.2298,-1.2298,-1.2258,0.0,0.0,0.0,0.0,0.0,0.9191,0.861,0.8668,0.0,0.0,0.8709,0.0,0.0,0.881,0.8656,0.0,0.0,0.8609,0.8657,0.8359,0.8187,0.8104,0.7572,0.7208,0.7111,0.6624,0.6349,0.6276,0.575,0.0,0.0,0.0,0.0,0.0,0.0,0.4321,0.0,0.0,0.0,0.0,0.3872,0.3847,0.3889,0.383,0.3707,0.3519,0.3355,0.3079,0.2798,0.2819,0.2657,0.2452,0.2263,0.222,0.2214,0.1978,0.137,0.079,0.0953,0.0154,-0.0575,0.0239,0.0238,0.0144,0.041,0.0597,0.0651,0.0542,0.05,0.0494,0.0543,0.0,0.0,0.0,0.0,0.0,0.0,-0.0713,-0.0712,-0.0744,-0.1427,-0.1998,-0.223,-0.3078,-0.3724,-0.3984,-0.4367,-0.4742,-0.5055,-0.5179,-0.5575,-0.6396,-0.6859,-0.7512,-0.849,-0.8877,-0.9139,-0.9344,-0.9215,-0.9215,-0.9344,-0.921,-0.9192,-0.9409,-0.9338,-0.977,-1.0542,-1.0746,-1.1293,-1.2003,-1.215,-1.2224,-1.2305,-1.2305,-1.2305,-1.2258,0.8629,0.0,0.0,0.0,0.0,0.0,0.0,0.0,0.0,0.0,0.849,0.0,0.8868,0.0,0.8753,0.0,0.8747,0.8818,0.8863,0.8553,0.8352,0.8214,0.755,0.707,0.683,0.6502,0.6144,0.5881,0.5707,0.5491,0.0,0.0,0.0,0.0,0.0,0.4486,0.4367,0.4066,0.3906,0.0,0.3836,0.3943,0.406,0.3935,0.3773,0.3684,0.3395,0.3079,0.2747,0.2691,0.2652,0.2503,0.228,0.2282,0.2374,0.2184,0.1379,0.0604,0.0805,-0.0276,-0.1229,-0.0357,-0.0152,-0.005,0.0561,0.0711,0.0532,-0.0189,0.0095,0.0282,-0.0223,0.0,0.0,0.0,0.0,0.0,0.0,-0.0719,-0.0711,-0.0699,-0.1122,-0.1536,-0.1817,-0.263,-0.3372,-0.3789,-0.4262,-0.4663,-0.4981,-0.5101,-0.5517,-0.6392,-0.7055,-0.7777,-0.849,-0.9011,-0.9274,-0.9274,-0.9081,-0.9081,-0.921,-0.9017,-0.9087,-0.9274,-0.921,-0.9652,-1.0474,-1.0672,-1.1204,-1.1999,-1.2078,-1.2211,-1.2305,-1.2305,-1.2238,-1.2091,0.7989,0.8157,0.0,0.0,0.9014,0.0,0.0,0.0,0.8691,0.0,0.851,0.8555,0.9013,0.8776,0.8657,0.8856,0.894,0.8996,0.9105,0.8657,0.0,0.8414,0.7639,0.7028,0.656,0.651,0.6121,0.538,0.0,0.0,0.0,0.0,0.0,0.0,0.4985,0.0,0.4515,0.4359,0.4033,0.3638,0.3744,0.407,0.4398,0.3802,0.3564,0.347,0.3204,0.3026,0.2867,0.2753,0.2587,0.2421,0.2247,0.2191,0.2208,0.2216,0.1354,0.0472,0.0707,-0.0412,-0.1745,-0.1635,-0.1016,-0.0314,0.0439,0.0692,0.0305,-0.1217,-0.0642,-0.0296,-0.1837,-0.1087,0.0,0.0,0.0,0.0,0.0,0.0,-0.0684,-0.0715,-0.072,-0.1006,-0.1604,-0.1716,-0.2213,-0.3362,-0.3713,-0.4131,-0.484,-0.504,-0.5499,-0.6392,-0.706,-0.7777,-0.8554,-0.9011,-0.9274,-0.9338,-0.9081,-0.9017,-0.9017,-0.8894,-0.8958,-0.9274,-0.9145,-0.9616,-1.0473,-1.0539,-1.1064,-1.185,-1.1864,-1.2044,-1.2305,-1.2305,-1.2111,-1.1764,0.856,0.8693,0.8941,0.0,0.9234,0.9096,0.0,0.0,0.0,0.0,0.8577,0.8448,0.85,0.8396,0.8365,0.8521,0.8698,0.0,0.0,0.0,0.8609,0.8677,0.7802,0.7334,0.7449,0.6848,0.6401,0.6213,0.6007,0.0,0.5663,0.0,0.0,0.0,0.0,0.4709,0.4466,0.4267,0.3984,0.3744,0.391,0.396,0.3934,0.36,0.3341,0.3199,0.3149,0.2902,0.2675,0.2617,0.2422,0.2158,0.2107,0.2184,0.2101,0.1712,0.0911,0.0063,-0.0306,-0.1362,-0.2237,-0.1808,-0.1663,-0.153,-0.0923,-0.0497,-0.0337,-0.0712,-0.105,-0.1308,-0.1098,-0.0924,0.0,0.0,0.0,0.0,0.0,-0.0701,-0.0699,-0.0707,-0.1135,-0.1336,-0.1005,-0.1823,-0.2494,-0.2794,-0.3733,-0.4421,-0.4897,-0.4906,-0.5647,-0.7107,-0.7321,-0.7977,-0.9215,-0.9151,-0.9204,-0.946,-0.8894,-0.8829,-0.921,-0.9022,-0.9081,-0.9338,-0.9594,-1.0012,-1.0539,-1.0797,-1.1142,-1.1563,-1.1784,-1.2044,-1.2305,-1.2305,-1.1977,-1.1516,0.8931,0.915,0.0,0.9732,0.0,0.0,0.9347,0.9289,0.0,0.8914,0.8767,0.0,0.8599,0.8448,0.8454,0.8646,0.8745,0.0,0.8926,0.0,0.8776,0.8817,0.8006,0.7562,0.7506,0.6619,0.6187,0.6133,0.5842,0.0,0.5755,0.0,0.0,0.0,0.0,0.4879,0.4698,0.4314,0.4004,0.3827,0.3886,0.3811,0.0,0.3387,0.3149,0.3002,0.2938,0.2781,0.2596,0.2632,0.2431,0.2151,0.2235,0.225,0.2156,0.1471,0.0689,-0.0129,-0.0897,-0.1944,-0.2729,-0.2291,-0.2448,-0.2481,-0.1791,-0.1465,-0.1253,-0.1231,-0.1523,-0.179,-0.1845,-0.1349,-0.0782,0.0,0.0,0.0,-0.0674,-0.0708,-0.0792,-0.0985,-0.1307,-0.1441,-0.1345,-0.2113,-0.2759,-0.3111,-0.3634,-0.4124,-0.4552,-0.5009,-0.5723,-0.6728,-0.7481,-0.8231,-0.8952,-0.8952,-0.9145,-0.9396,-0.8765,-0.8829,-0.9396,-0.9145,-0.921,-0.9594,-0.9856,-1.02,-1.0549,-1.0744,-1.0975,-1.1276,-1.1703,-1.1971,-1.2118,-1.2118,-1.1824,-1.139,0.9316,0.9609,0.0,0.0,0.0,0.0,0.0,0.9718,0.0,0.9188,0.0,0.9011,0.8982,0.8757,0.8642,0.8923,0.8804,0.8854,0.9041,0.902,0.8951,0.889,0.8228,0.7706,0.7219,0.6368,0.5899,0.5834,0.0,0.0,0.0,0.0,0.0,0.0,0.0,0.0,0.0,0.4375,0.4046,0.3856,0.3808,0.3691,0.3527,0.3188,0.3019,0.2865,0.2689,0.2606,0.256,0.2642,0.2551,0.2369,0.2361,0.2302,0.2068,0.128,0.0387,-0.0455,-0.1268,-0.2351,-0.3141,-0.2931,-0.3107,-0.3196,-0.2426,-0.2263,-0.2245,-0.2309,-0.2076,-0.2167,-0.319,-0.2009,-0.0849,0.0,-0.0875,-0.102,-0.0928,-0.094,-0.1101,-0.1634,-0.1533,0.0,-0.2121,-0.2479,-0.2941,-0.3689,-0.3541,-0.3717,-0.4319,-0.5234,-0.5897,-0.6263,-0.7754,-0.8425,-0.8366,-0.8823,-0.9145,-0.9402,-0.8835,-0.8894,-0.9582,-0.921,-0.9402,-0.9983,-1.0047,-1.0308,-1.0624,-1.0624,-1.0728,-1.1049,-1.1597,-1.1908,-1.1942,-1.1942,-1.1753,-1.1417,1.0314,0.0,0.0,0.0,0.0,1.0447,1.0221,1.0076,1.0009,0.9896,0.9392,0.8979,0.8985,0.8557,0.8325,0.848,0.848,0.8508,0.8659,0.8771,0.8837,0.8835,0.8231,0.7871,0.7759,0.705,0.6656,0.6508,0.6318,0.0,0.0,0.0,0.0,0.0,0.0,0.0,0.4579,0.4113,0.3883,0.3819,0.3683,0.3469,0.3188,0.313,0.2965,0.2711,0.2699,0.2509,0.2274,0.2345,0.2406,0.2378,0.2322,0.1951,0.132,0.0388,-0.0458,-0.1336,-0.2415,-0.2889,-0.3021,-0.3139,-0.3203,-0.3195,-0.3031,-0.3035,-0.2981,-0.3047,-0.323,-0.337,-0.3166,-0.2546,-0.1931,-0.1698,-0.2391,-0.2754,-0.2101,-0.2095,-0.2438,-0.3068,-0.2908,-0.2678,-0.2517,-0.2837,-0.3117,-0.3357,-0.3829,-0.4398,-0.505,-0.5572,-0.6459,-0.7691,-0.8217,-0.8753,-0.9285,-0.9332,-0.9588,-0.9856,-0.9215,-0.9274,-0.9919,-0.9588,-0.9658,-1.0047,-1.0364,-1.0561,-1.0624,-1.0624,-1.0728,-1.1022,-1.1369,-1.1796,-1.2155,-1.2155,-1.2033,-1.1791,1.0628,0.0,0.0,0.0,0.0,0.0,0.0,1.0113,0.9962,1.007,0.9518,0.9101,0.8978,0.8661,0.8425,0.8487,0.8527,0.858,0.8692,0.8752,0.8804,0.8804,0.8203,0.7925,0.7925,0.695,0.6519,0.6701,0.6208,0.0,0.0,0.0,0.0,0.5717,0.0,0.4927,0.0,0.0,0.3962,0.3701,0.3442,0.3135,0.2912,0.2912,0.2717,0.2483,0.25,0.2374,0.2236,0.2466,0.2462,0.2418,0.2386,0.1862,0.1073,0.0066,-0.0798,-0.1678,-0.2688,-0.3025,-0.3092,-0.3159,-0.3226,-0.3226,-0.3226,-0.3226,-0.3226,-0.3493,-0.3692,-0.3694,-0.3482,-0.2936,-0.2543,-0.2505,-0.2601,-0.2683,-0.2668,-0.2701,-0.2911,-0.3381,-0.3255,-0.3108,-0.3197,-0.317,-0.3325,-0.3666,-0.3739,-0.4264,-0.5332,-0.5825,-0.6723,-0.8106,-0.8748,-0.928,-0.9926,-0.9728,-0.9722,-0.9907,-0.9588,-0.9588,-0.9983,-0.9849,-0.9977,-1.0301,-1.0498,-1.0624,-1.0624,-1.0624,-1.0705,-1.0815,-1.1391,-1.1723,-1.1922,-1.2061,-1.2109,-1.1995,1.0817,1.0832,0.0,0.0,1.0573,1.0697,1.0285,0.9939,0.9748,1.0038,0.9529,0.9118,0.9065,0.8799,0.861,0.8593,0.8573,0.8633,0.8752,0.8752,0.8752,0.8699,0.8203,0.7871,0.7824,0.6794,0.6388,0.6738,0.6098,0.5966,0.0,0.0,0.0,0.0,0.0,0.0,0.4522,0.4244,0.389,0.3545,0.3152,0.291,0.2691,0.2691,0.2563,0.2332,0.2347,0.2332,0.2217,0.2417,0.2332,0.2202,0.2135,0.1539,0.0604,-0.0336,-0.1208,-0.2079,-0.2822,-0.3092,-0.3226,-0.3226,-0.3226,-0.3226,-0.3226,-0.3226,-0.3293,-0.3692,-0.3892,-0.3957,-0.3851,-0.3566,-0.3317,-0.3246,-0.2872,-0.2795,-0.3355,-0.3415,-0.3465,-0.3655,-0.345,-0.3445,-0.3809,-0.3551,-0.3623,-0.4176,-0.382,-0.4144,-0.5455,-0.6031,-0.6881,-0.8043,-0.8829,-0.946,-1.0021,-0.9894,-0.9856,-0.997,-0.9907,-0.9913,-1.011,-1.0047,-1.0244,-1.0624,-1.0624,-1.0624,-1.0624,-1.0618,-1.0624,-1.0742,-1.1471,-1.1771,-1.1847,-1.2053,-1.2211,-1.2305,0.0,0.0,0.0,0.0,0.0,1.0223,0.9838,0.9646,0.9642,1.0067,0.9381,0.8901,0.917,0.8809,0.8606,0.8573,0.8474,0.8474,0.8626,0.8626,0.858,0.8427,0.809,0.7771,0.7515,0.7192,0.6956,0.6895,0.663,0.6482,0.635,0.0,0.0,0.0,0.4958,0.4626,0.3991,0.3807,0.3511,0.3116,0.2852,0.2747,0.2691,0.2691,0.2583,0.2488,0.2563,0.2477,0.2208,0.1775,0.1617,0.1553,0.1358,0.0329,-0.0938,-0.1341,-0.2147,-0.2889,-0.3092,-0.3159,-0.3226,-0.3226,-0.3226,-0.3226,-0.3226,-0.3226,-0.3293,-0.3692,-0.4292,-0.4614,-0.4218,-0.4716,-0.4913,-0.4232,-0.4499,-0.4847,-0.4872,-0.4775,-0.4661,-0.4507,-0.4175,-0.3955,-0.3968,-0.3954,-0.4091,-0.4537,-0.4568,-0.4862,-0.5561,-0.6137,-0.6887,-0.7711,-0.8119,-0.8555,-0.9094,-0.9662,-1.018,-1.0491,-1.0174,-1.0174,-1.0561,-1.0174,-1.0244,-1.0624,-1.0624,-1.0624,-1.0624,-1.0744,-1.0807,-1.0862,-1.1671,-1.2051,-1.2291,-1.257,-1.2747,-1.2844,0.0,0.0,0.0,0.0,0.0,0.0,0.0,0.9227,0.9151,0.9394,0.9004,0.8751,0.8928,0.8767,0.8633,0.8692,0.8692,0.8639,0.8692,0.8745,0.8639,0.8427,0.809,0.7771,0.7521,0.7246,0.7019,0.6877,0.669,0.6546,0.639,0.0,0.0,0.4509,0.4313,0.4073,0.377,0.3361,0.3144,0.2963,0.28,0.2691,0.2691,0.2691,0.2667,0.2538,0.2522,0.249,0.2415,0.1776,0.154,0.1356,0.0722,-0.0266,-0.1206,-0.1676,-0.2348,-0.3023,-0.3159,-0.3295,-0.3362,-0.3362,-0.3362,-0.3362,-0.3362,-0.3493,-0.3692,-0.4023,-0.4691,-0.5127,-0.4942,-0.4807,-0.4725,-0.491,-0.4741,-0.4699,-0.52,-0.5242,-0.5098,-0.48,-0.4525,-0.4229,-0.4148,-0.3748,-0.3889,-0.4828,-0.5059,-0.5375,-0.5775,-0.6707,-0.751,-0.8043,-0.8843,-0.9569,-1.0243,-1.0557,-1.0681,-1.0744,-1.0681,-1.0561,-1.0434,-1.0364,-1.0491,-1.0744,-1.0618,-1.0681,-1.087,-1.0807,-1.087,-1.1038,-1.1666,-1.1902,-1.2078,-1.2463,-1.2647,-1.2723,1.037,0.0,1.0171,0.0,0.9572,0.9362,0.9053,0.8783,0.8667,0.8735,0.8657,0.8684,0.8867,0.8749,0.8692,0.8804,0.8804,0.8804,0.8804,0.8804,0.8646,0.8262,0.8037,0.7717,0.7413,0.7192,0.7052,0.6936,0.6801,0.6547,0.6229,0.5353,0.461,0.403,0.3822,0.357,0.3345,0.2989,0.2796,0.2683,0.2633,0.2635,0.2635,0.2747,0.2673,0.2604,0.2601,0.2577,0.2404,0.1601,0.1203,0.0903,-0.0,-0.0855,-0.1593,-0.2075,-0.2619,-0.3092,-0.3159,-0.3295,-0.3431,-0.3431,-0.3431,-0.3431,-0.3431,-0.3627,-0.3892,-0.4356,-0.496,-0.5428,-0.5428,-0.4926,-0.4728,-0.5325,-0.4922,-0.4731,-0.5262,-0.5362,-0.5233,-0.483,-0.4575,-0.4472,-0.4281,-0.4023,-0.4289,-0.5247,-0.5853,-0.618,-0.6182,-0.7111,-0.78,-0.8087,-0.9077,-0.9962,-1.0739,-1.0885,-1.0996,-1.0926,-1.1059,-1.087,-1.0555,-1.0681,-1.0814,-1.087,-1.0807,-1.0877,-1.1059,-1.0996,-1.1052,-1.1213,-1.1654,-1.184,-1.1884,-1.2335,-1.2584,-1.2694,1.0819,1.0329,1.001,0.9995,0.9266,0.8675,0.851,0.8354,0.8228,0.8228,0.8427,0.8691,0.8991,0.8877,0.8804,0.8804,0.8804,0.8804,0.8804,0.8804,0.8533,0.7925,0.7925,0.7664,0.7139,0.7085,0.7079,0.7079,0.705,0.6622,0.5897,0.4939,0.4141,0.3492,0.3653,0.3245,0.2519,0.2633,0.2521,0.224,0.241,0.2521,0.2521,0.2805,0.2749,0.2523,0.2805,0.2634,0.2118,0.0998,0.0306,-0.0192,-0.0746,-0.1574,-0.2465,-0.2867,-0.3092,-0.3226,-0.3226,-0.3226,-0.3226,-0.3226,-0.3226,-0.3226,-0.3226,-0.3493,-0.3959,-0.4628,-0.5096,-0.5428,-0.5428,-0.5425,-0.5359,-0.5428,-0.5425,-0.5289,-0.5153,-0.5292,-0.5128,-0.4503,-0.4452,-0.4512,-0.4473,-0.5112,-0.5579,-0.5857,-0.7131,-0.7594,-0.6912,-0.7085,-0.7362,-0.7695,-0.8363,-0.9051,-0.981,-1.047,-1.0989,-1.1303,-1.1185,-1.1122,-1.1059,-1.1059,-1.1059,-1.1122,-1.1059,-1.1122,-1.1122,-1.1247,-1.1303,-1.1331,-1.1775,-1.1971,-1.2007,-1.2401,-1.2723,-1.3001,0.9584,0.9526,0.9505,0.9142,0.8771,0.8419,0.831,0.8336,0.8324,0.8193,0.86,0.8841,0.873,0.8751,0.8857,0.891,0.8857,0.8804,0.8804,0.8639,0.8315,0.7925,0.7723,0.7461,0.7085,0.7085,0.7139,0.7257,0.6957,0.6267,0.5284,0.4392,0.3717,0.3189,0.2859,0.2548,0.2296,0.224,0.224,0.224,0.241,0.2577,0.2635,0.2747,0.2691,0.2635,0.2747,0.2347,0.1587,0.0705,-0.006,-0.0813,-0.1769,-0.2397,-0.2858,-0.3084,-0.3159,-0.3226,-0.3226,-0.3295,-0.3429,-0.3429,-0.3429,-0.3496,-0.3694,-0.4095,-0.4628,-0.5096,-0.5296,-0.5428,-0.5428,-0.5428,-0.5428,-0.5428,-0.5428,-0.5425,-0.5418,-0.5422,-0.5336,-0.5085,-0.4872,-0.4996,-0.5486,-0.5533,-0.5838,-0.6573,-0.6805,-0.688,-0.6923,-0.7829,-0.8305,-0.8265,-0.9229,-0.9949,-1.0352,-1.0759,-1.1122,-1.1303,-1.1185,-1.1122,-1.1122,-1.1122,-1.1122,-1.124,-1.1122,-1.1247,-1.1435,-1.1373,-1.1365,-1.1505,-1.167,-1.1714,-1.178,-1.2321,-1.2584,-1.2738,0.9599,0.9298,0.9071,0.8746,0.8427,0.823,0.8184,0.8259,0.8312,0.8193,0.8587,0.8782,0.854,0.8586,0.8752,0.8903,0.8857,0.8804,0.8804,0.8533,0.8256,0.7925,0.7616,0.7354,0.7085,0.7144,0.7203,0.7317,0.6617,0.591,0.5112,0.3993,0.3229,0.274,0.235,0.2128,0.2018,0.1962,0.2017,0.2127,0.2296,0.2465,0.2521,0.2635,0.2691,0.2635,0.2691,0.2132,0.1253,0.053,-0.0426,-0.1401,-0.2309,-0.2823,-0.3092,-0.3159,-0.3226,-0.3226,-0.3226,-0.3295,-0.3362,-0.3362,-0.3362,-0.3496,-0.4025,-0.4495,-0.4897,-0.5296,-0.5428,-0.5428,-0.5428,-0.5425,-0.5491,-0.5491,-0.5557,-0.5624,-0.5686,-0.5554,-0.5415,-0.5328,-0.5057,-0.5202,-0.6001,-0.5986,-0.6397,-0.7568,-0.7369,-0.7407,-0.7844,-0.8283,-0.8589,-0.8831,-0.9812,-1.0434,-1.0681,-1.0933,-1.1122,-1.1247,-1.1185,-1.1185,-1.131,-1.131,-1.131,-1.1428,-1.131,-1.1373,-1.1498,-1.1365,-1.1373,-1.1435,-1.1498,-1.157,-1.1723,-1.2131,-1.2349,-1.2599,1.0562,0.9474,0.869,0.883,0.8406,0.8021,0.8107,0.8184,0.8221,0.8221,0.8421,0.8521,0.8421,0.8421,0.848,0.8752,0.8804,0.8804,0.8752,0.8533,0.8203,0.7871,0.7622,0.7359,0.7139,0.7257,0.7317,0.7311,0.615,0.5483,0.5257,0.3732,0.274,0.2184,0.2183,0.2018,0.1797,0.1797,0.1906,0.2015,0.2127,0.2184,0.224,0.2521,0.2577,0.2465,0.2577,0.1925,0.0916,0.0357,-0.081,-0.2059,-0.2533,-0.2954,-0.3218,-0.3224,-0.3226,-0.3226,-0.3226,-0.3226,-0.3226,-0.3226,-0.3293,-0.3491,-0.422,-0.4625,-0.4964,-0.5362,-0.5425,-0.5428,-0.5428,-0.5554,-0.5617,-0.5617,-0.5752,-0.5892,-0.5888,-0.5752,-0.551,-0.5283,-0.5067,-0.5308,-0.6203,-0.6515,-0.722,-0.8573,-0.8604,-0.88,-0.94,-0.8476,-0.8394,-0.9389,-0.997,-1.0428,-1.0807,-1.0996,-1.1059,-1.1059,-1.1247,-1.1365,-1.156,-1.156,-1.156,-1.156,-1.156,-1.1435,-1.1303,-1.131,-1.1254,-1.115,-1.1247,-1.1496,-1.1775,-1.1775,-1.2101,-1.2473,0.0,0.0,0.8657,0.8561,0.8184,0.8019,0.8217,0.8233,0.8221,0.8321,0.8427,0.8421,0.8421,0.8421,0.8421,0.848,0.858,0.858,0.848,0.8203,0.7877,0.7622,0.7354,0.7192,0.7257,0.7257,0.7365,0.7467,0.6032,0.532,0.5101,0.3289,0.235,0.2184,0.1962,0.1853,0.1797,0.1906,0.1959,0.2015,0.2127,0.2184,0.2184,0.2296,0.2296,0.224,0.179,0.0918,-0.0119,-0.0967,-0.1911,-0.291,-0.3351,-0.349,-0.3466,-0.3476,-0.3431,-0.3429,-0.3627,-0.3692,-0.3692,-0.3692,-0.4028,-0.4495,-0.4821,-0.5153,-0.5418,-0.5554,-0.555,-0.562,-0.5756,-0.5822,-0.5822,-0.5822,-0.5888,-0.5954,-0.6083,-0.5815,-0.5654,-0.5719,-0.5452,-0.5834,-0.7232,-0.738,-0.7721,-0.8517,-0.863,-0.8636,-0.85,-0.8503,-0.8904,-0.9813,-1.0015,-1.0238,-1.0624,-1.0688,-1.0751,-1.087,-1.1059,-1.1185,-1.1247,-1.1247,-1.1247,-1.1247,-1.1247,-1.1247,-1.1303,-1.1185,-1.1305,-1.1475,-1.1326,-1.1418,-1.1674,-1.1891,-1.2014,-1.2233,1.0113,0.9238,0.8398,0.8309,0.8085,0.8038,0.8215,0.8261,0.8321,0.8368,0.8474,0.8421,0.8321,0.8321,0.8268,0.8103,0.8203,0.8309,0.8321,0.7883,0.761,0.7521,0.7306,0.7203,0.7317,0.7419,0.7467,0.7521,0.6027,0.5097,0.4718,0.3014,0.2128,0.2018,0.1852,0.1852,0.1906,0.1906,0.1961,0.2071,0.2127,0.2127,0.2127,0.2127,0.2127,0.2015,0.1285,0.04,-0.059,-0.158,-0.2544,-0.3351,-0.3654,-0.3654,-0.362,-0.361,-0.3659,-0.3627,-0.3758,-0.3825,-0.3823,-0.4023,-0.4425,-0.4827,-0.5024,-0.5352,-0.555,-0.5554,-0.555,-0.5617,-0.5752,-0.5885,-0.6017,-0.6017,-0.5887,-0.5841,-0.626,-0.5754,-0.5456,-0.5873,-0.5627,-0.6013,-0.7707,-0.7772,-0.8127,-0.9248,-0.9234,-0.9128,-0.8918,-0.911,-0.9448,-0.9983,-1.011,-1.0301,-1.0624,-1.0624,-1.0688,-1.0807,-1.0933,-1.0996,-1.1122,-1.1122,-1.1122,-1.1122,-1.1185,-1.1122,-1.1066,-1.1121,-1.1125,-1.1177,-1.1447,-1.1488,-1.1414,-1.1646,-1.1847,-1.2043,1.0265,0.9266,0.8265,0.8113,0.8099,0.811,0.8205,0.8321,0.8427,0.848,0.8527,0.8521,0.8268,0.8221,0.8055,0.7783,0.7723,0.783,0.8002,0.7563,0.7295,0.7354,0.7311,0.7257,0.7317,0.7515,0.7563,0.7354,0.5864,0.4824,0.4223,0.2792,0.2018,0.1797,0.1797,0.1906,0.1961,0.1908,0.1964,0.2128,0.2015,0.2015,0.1961,0.1961,0.1903,0.1677,0.0838,-0.0057,-0.0995,-0.1932,-0.2859,-0.3627,-0.3644,-0.3648,-0.3648,-0.3768,-0.3846,-0.387,-0.3887,-0.3892,-0.4025,-0.4356,-0.4691,-0.5027,-0.5156,-0.5418,-0.562,-0.5491,-0.5554,-0.5683,-0.5683,-0.6013,-0.6195,-0.6074,-0.5868,-0.5794,-0.6234,-0.5612,-0.5321,-0.5855,-0.569,-0.621,-0.7767,-0.7897,-0.8549,-1.011,-0.9989,-0.9881,-0.986,-0.9887,-0.9945,-1.0046,-1.02,-1.0371,-1.0624,-1.0624,-1.0681,-1.0744,-1.0744,-1.0891,-1.1129,-1.1129,-1.1129,-1.1129,-1.1255,-1.1164,-1.0821,-1.1033,-1.1019,-1.0856,-1.1595,-1.1664,-1.1256,-1.1298,-1.1602,-1.1942,1.0151,0.9439,0.8658,0.8191,0.8001,0.8051,0.8328,0.8374,0.848,0.8699,0.8633,0.8573,0.8521,0.8162,0.7901,0.7901,0.7359,0.7144,0.7246,0.7192,0.7025,0.6815,0.7031,0.7198,0.7317,0.7467,0.7241,0.6578,0.5206,0.4168,0.3453,0.2352,0.1853,0.1797,0.1905,0.1905,0.1852,0.2074,0.2018,0.1852,0.1961,0.1905,0.1852,0.1852,0.14,0.067,-0.0,-0.0952,-0.2091,-0.2865,-0.3382,-0.3771,-0.3808,-0.384,-0.384,-0.3899,-0.3985,-0.4102,-0.4204,-0.4431,-0.4761,-0.516,-0.5491,-0.5756,-0.5756,-0.5822,-0.5822,-0.5822,-0.5822,-0.5954,-0.6218,-0.635,-0.6185,-0.5697,-0.5978,-0.6117,-0.5686,-0.5728,-0.5767,-0.5885,-0.6079,-0.6662,-0.7642,-0.8415,-0.9122,-0.9983,-1.018,-1.0219,-1.0126,-1.018,-1.0283,-1.0324,-1.0303,-1.0371,-1.0624,-1.0624,-1.0624,-1.0618,-1.0618,-1.088,-1.1255,-1.1255,-1.1255,-1.1255,-1.1379,-1.124,-1.0877,-1.0898,-1.112,-1.1465,-1.1851,-1.1781,-1.1544,-1.1551,-1.1589,-1.1677,0.9589,0.8902,0.8166,0.7911,0.7871,0.8008,0.8268,0.8374,0.848,0.8692,0.8692,0.8639,0.8427,0.8215,0.7901,0.7521,0.7198,0.6982,0.6864,0.6761,0.6707,0.6701,0.6977,0.7192,0.7419,0.7031,0.6588,0.6095,0.4659,0.3671,0.307,0.2186,0.1797,0.1797,0.1961,0.1961,0.1905,0.2015,0.2017,0.1906,0.1906,0.1852,0.1741,0.1459,0.0952,0.0335,-0.0782,-0.1619,-0.2355,-0.3249,-0.3696,-0.382,-0.3819,-0.3779,-0.3662,-0.3662,-0.3912,-0.4145,-0.4268,-0.4564,-0.4897,-0.5296,-0.5627,-0.5954,-0.6017,-0.5954,-0.5888,-0.5888,-0.5888,-0.5954,-0.6214,-0.635,-0.6298,-0.6002,-0.5955,-0.5947,-0.5974,-0.5635,-0.5559,-0.5997,-0.6272,-0.6789,-0.7767,-0.8544,-0.932,-1.011,-1.038,-1.0523,-1.046,-1.0751,-1.0817,-1.0593,-1.0515,-1.0498,-1.0624,-1.0624,-1.0624,-1.0624,-1.0624,-1.0843,-1.1317,-1.103,-1.1101,-1.1376,-1.1217,-1.1058,-1.0933,-1.1156,-1.121,-1.1091,-1.1603,-1.1696,-1.1625,-1.16,-1.1622,-1.1633,0.8995,0.8362,0.783,0.7723,0.7783,0.7949,0.8221,0.8321,0.8421,0.8521,0.8639,0.854,0.8162,0.8055,0.7788,0.7246,0.7085,0.6977,0.6761,0.6598,0.6544,0.6647,0.6923,0.7144,0.7359,0.6539,0.5878,0.5437,0.4113,0.3178,0.2629,0.2076,0.1797,0.1797,0.1961,0.1959,0.1961,0.1959,0.1959,0.1961,0.1852,0.1797,0.1741,0.1122,0.0616,-0.0,-0.1341,-0.2124,-0.2633,-0.3452,-0.379,-0.3807,-0.3779,-0.3696,-0.3554,-0.3503,-0.3688,-0.3945,-0.4251,-0.4631,-0.503,-0.5296,-0.5693,-0.602,-0.6148,-0.6017,-0.5892,-0.5954,-0.5954,-0.5954,-0.6214,-0.635,-0.6326,-0.6242,-0.5939,-0.5817,-0.6133,-0.5616,-0.5413,-0.6052,-0.6404,-0.6985,-0.7767,-0.8672,-0.9454,-1.0174,-1.0503,-1.0691,-1.0823,-1.1175,-1.1196,-1.0836,-1.0675,-1.0658,-1.0789,-1.0658,-1.0658,-1.0789,-1.0658,-1.0843,-1.1317,-1.0962,-1.1047,-1.15,-1.1354,-1.1136,-1.0996,-1.1425,-1.1295,-1.0853,-1.1417,-1.1625,-1.1603,-1.1578,-1.1622,-1.1696,0.8415,0.8262,0.8209,0.7777,0.7723,0.7889,0.8315,0.8368,0.8421,0.8421,0.8421,0.8315,0.7984,0.7723,0.7521,0.7467,0.7144,0.6933,0.6879,0.6761,0.6593,0.6436,0.6712,0.6933,0.6933,0.6213,0.5328,0.433,0.34,0.2573,0.1853,0.1797,0.1797,0.1797,0.1961,0.1905,0.1797,0.1961,0.1905,0.1797,0.1797,0.1797,0.1741,0.1122,0.0168,-0.0894,-0.1566,-0.2517,-0.3527,-0.3593,-0.3724,-0.3793,-0.3629,-0.3746,-0.3819,-0.3488,-0.34,-0.35,-0.414,-0.4831,-0.5362,-0.5362,-0.5888,-0.635,-0.6214,-0.6017,-0.5954,-0.6148,-0.602,-0.602,-0.635,-0.642,-0.6242,-0.5663,-0.5982,-0.6141,-0.5651,-0.5736,-0.5862,-0.5888,-0.6736,-0.7386,-0.7451,-0.8818,-0.9798,-0.9983,-1.0242,-1.0642,-1.1035,-1.1028,-1.1026,-1.1038,-1.0758,-1.0816,-1.1224,-1.0823,-1.0823,-1.1224,-1.0816,-1.0843,-1.1324,-1.1383,-1.1448,-1.1514,-1.2145,-1.1897,-1.1122,-1.1457,-1.1541,-1.1549,-1.1597,-1.1589,-1.1589,-1.163,-1.1622,-1.163,0.8296,0.7883,0.7681,0.7467,0.7568,0.7777,0.7937,0.8049,0.8109,0.8109,0.8103,0.7984,0.767,0.7568,0.7413,0.7246,0.709,0.7036,0.7036,0.6977,0.6815,0.6598,0.6332,0.6337,0.6603,0.5167,0.434,0.4058,0.285,0.2076,0.1797,0.1797,0.1852,0.1905,0.1959,0.1959,0.1905,0.1959,0.1905,0.1797,0.1797,0.1797,0.1685,0.0504,-0.0335,-0.1061,-0.2179,-0.3021,-0.3585,-0.3585,-0.3613,-0.364,-0.3599,-0.3529,-0.3362,-0.3232,-0.3421,-0.3732,-0.4129,-0.4576,-0.5049,-0.5463,-0.5885,-0.628,-0.635,-0.6086,-0.5954,-0.6284,-0.6086,-0.602,-0.635,-0.642,-0.6306,-0.6105,-0.6262,-0.6306,-0.6101,-0.6067,-0.6214,-0.6675,-0.7256,-0.7777,-0.8242,-0.9215,-0.9872,-1.0099,-1.0501,-1.0834,-1.1073,-1.1142,-1.1132,-1.1224,-1.1037,-1.0925,-1.0978,-1.0742,-1.0678,-1.0857,-1.086,-1.1019,-1.1331,-1.1236,-1.1423,-1.1645,-1.1666,-1.1553,-1.1442,-1.1582,-1.1582,-1.1575,-1.163,-1.1622,-1.1622,-1.1622,-1.1622,-1.1652,0.7978,0.7509,0.7257,0.7317,0.7359,0.7456,0.7563,0.7676,0.7681,0.7628,0.7723,0.767,0.7408,0.7354,0.73,0.7139,0.7085,0.7085,0.7085,0.6977,0.6756,0.6539,0.6114,0.59,0.6,0.4398,0.3624,0.3732,0.2352,0.1629,0.1629,0.1629,0.174,0.1961,0.1905,0.1903,0.2015,0.1961,0.1906,0.1798,0.1816,0.1813,0.163,0.017,-0.0733,-0.1341,-0.2627,-0.3302,-0.3585,-0.3585,-0.3583,-0.3527,-0.3527,-0.3383,-0.3145,-0.3191,-0.351,-0.3899,-0.4209,-0.4501,-0.4849,-0.5384,-0.5818,-0.6148,-0.6218,-0.602,-0.5888,-0.6152,-0.602,-0.5888,-0.6218,-0.6284,-0.635,-0.635,-0.635,-0.642,-0.642,-0.628,-0.6474,-0.7129,-0.7517,-0.7972,-0.8694,-0.9344,-0.9851,-1.0182,-1.0523,-1.0849,-1.1209,-1.1283,-1.1348,-1.1455,-1.1284,-1.1122,-1.0933,-1.0807,-1.0862,-1.1022,-1.1091,-1.1193,-1.1338,-1.1047,-1.1155,-1.1565,-1.1376,-1.1403,-1.1622,-1.1582,-1.1575,-1.1622,-1.1622,-1.1622,-1.1622,-1.1622,-1.1622,-1.1659,0.7402,0.7085,0.7139,0.7257,0.7095,0.6982,0.7235,0.7289,0.7235,0.7139,0.7354,0.7413,0.7139,0.7085,0.7085,0.7085,0.7085,0.7085,0.7085,0.6652,0.6327,0.6209,0.6055,0.5727,0.5124,0.4125,0.3405,0.3074,0.1905,0.1291,0.1291,0.1291,0.1459,0.1797,0.1685,0.1738,0.2015,0.1852,0.1797,0.1802,0.1858,0.1847,0.1634,0.0174,-0.0978,-0.1902,-0.2794,-0.3302,-0.3585,-0.3585,-0.3527,-0.3413,-0.3413,-0.3377,-0.3313,-0.3479,-0.363,-0.3899,-0.4267,-0.4559,-0.4788,-0.5259,-0.5627,-0.5888,-0.5888,-0.5752,-0.5683,-0.5888,-0.5752,-0.5683,-0.5888,-0.6083,-0.621,-0.621,-0.6284,-0.642,-0.642,-0.628,-0.647,-0.7116,-0.7507,-0.7962,-0.8672,-0.921,-0.9722,-1.0188,-1.0244,-1.0645,-1.1475,-1.157,-1.1687,-1.179,-1.1467,-1.1303,-1.1303,-1.1185,-1.1347,-1.192,-1.1652,-1.1462,-1.1411,-1.0879,-1.0766,-1.1138,-1.1442,-1.1611,-1.1622,-1.1622,-1.1622,-1.1622,-1.1622,-1.1622,-1.1622,-1.1622,-1.1622,-1.1622,0.7295,0.6923,0.6815,0.6869,0.6712,0.6603,0.6652,0.6647,0.6652,0.6598,0.6815,0.6923,0.6815,0.6977,0.7085,0.7085,0.7085,0.7031,0.6815,0.6381,0.6,0.5782,0.5508,0.5066,0.4457,0.3458,0.2792,0.2462,0.1569,0.1234,0.1291,0.1291,0.1403,0.1629,0.1459,0.1515,0.1738,0.1684,0.1685,0.1686,0.1758,0.1812,0.1629,-0.0113,-0.1184,-0.1958,-0.3077,-0.3527,-0.3585,-0.3585,-0.3527,-0.3357,-0.3137,-0.3314,-0.351,-0.329,-0.3745,-0.4382,-0.4417,-0.4686,-0.5037,-0.545,-0.5617,-0.5752,-0.5888,-0.5752,-0.5683,-0.5888,-0.5752,-0.5683,-0.6017,-0.6148,-0.6214,-0.635,-0.635,-0.642,-0.642,-0.635,-0.6741,-0.7772,-0.7912,-0.8301,-0.9338,-0.9478,-0.9657,-0.9983,-1.0342,-1.0754,-1.1034,-1.1034,-1.1097,-1.1326,-1.1234,-1.1247,-1.1498,-1.1397,-1.1311,-1.1192,-1.1708,-1.1887,-1.1803,-1.1785,-1.1648,-1.1369,-1.1565,-1.1589,-1.1622,-1.1622,-1.1622,-1.1622,-1.1622,-1.1622,-1.1622,-1.1622,-1.1622,-1.1622,0.7079,0.681,0.6647,0.6534,0.6327,0.6168,0.6168,0.6168,0.6168,0.6168,0.649,0.6701,0.6701,0.6923,0.7085,0.7085,0.7025,0.681,0.6539,0.6114,0.5841,0.5622,0.5289,0.4791,0.407,0.3236,0.2516,0.2015,0.1345,0.1066,0.1122,0.1122,0.129,0.1459,0.1291,0.1347,0.1572,0.1515,0.1459,0.1518,0.1595,0.1419,0.0953,-0.0397,-0.1583,-0.2629,-0.3357,-0.3585,-0.3585,-0.3585,-0.3471,-0.3246,-0.2914,-0.3136,-0.3438,-0.3416,-0.3867,-0.4505,-0.4607,-0.4852,-0.5165,-0.545,-0.5554,-0.5554,-0.569,-0.5624,-0.5554,-0.569,-0.5624,-0.562,-0.5881,-0.6017,-0.6148,-0.628,-0.635,-0.642,-0.642,-0.642,-0.6872,-0.8166,-0.8172,-0.8565,-0.9734,-0.974,-0.9786,-1.0049,-1.0495,-1.0888,-1.1156,-1.1142,-1.117,-1.1369,-1.1311,-1.1373,-1.1622,-1.1689,-1.1689,-1.1518,-1.1764,-1.1964,-1.213,-1.2591,-1.2324,-1.1528,-1.1608,-1.1589,-1.1622,-1.1622,-1.1622,-1.1622,-1.1622,-1.1622,-1.1622,-1.1622,-1.1622,-1.1622,0.6864,0.6647,0.6539,0.6213,0.595,0.574,0.574,0.574,0.574,0.574,0.6277,0.6647,0.6647,0.6923,0.7085,0.7085,0.6815,0.6485,0.6209,0.5896,0.5681,0.5567,0.5234,0.4625,0.3796,0.3183,0.2516,0.1734,0.1177,0.0898,0.0898,0.0898,0.1066,0.129,0.1178,0.129,0.1572,0.1403,0.1291,0.1294,0.1334,0.0863,-0.0056,-0.0809,-0.2123,-0.353,-0.3585,-0.3638,-0.3638,-0.3583,-0.3357,-0.3074,-0.28,-0.2864,-0.3189,-0.3643,-0.3989,-0.4297,-0.4915,-0.5084,-0.5145,-0.5353,-0.5387,-0.5394,-0.5422,-0.5428,-0.5425,-0.5411,-0.5418,-0.5422,-0.5533,-0.5741,-0.5947,-0.6129,-0.6272,-0.6346,-0.633,-0.6408,-0.6937,-0.8291,-0.8361,-0.8689,-0.9856,-0.9862,-0.9968,-1.0409,-1.0657,-1.1002,-1.1546,-1.1487,-1.1537,-1.1804,-1.165,-1.156,-1.1622,-1.1931,-1.2223,-1.2382,-1.19,-1.1888,-1.2242,-1.3127,-1.2804,-1.1573,-1.1577,-1.1625,-1.1622,-1.1622,-1.1622,-1.1622,-1.1622,-1.1622,-1.1622,-1.1622,-1.1622,-1.1622,0.6756,0.6332,0.5955,0.59,0.5626,0.5411,0.5411,0.5411,0.5411,0.5411,0.5736,0.6059,0.6263,0.6593,0.681,0.681,0.6277,0.5955,0.59,0.5572,0.5407,0.5352,0.4904,0.4236,0.34,0.3072,0.2348,0.1233,0.1009,0.0954,0.1066,0.1066,0.1066,0.1122,0.1234,0.1234,0.1234,0.1459,0.1459,0.1292,0.1188,0.0903,0.0336,-0.1069,-0.2249,-0.3195,-0.358,-0.3744,-0.3688,-0.3355,-0.3188,-0.3074,-0.28,-0.2864,-0.3175,-0.3495,-0.3865,-0.4256,-0.4618,-0.4921,-0.5088,-0.5185,-0.5257,-0.5387,-0.5373,-0.5428,-0.5328,-0.5206,-0.5277,-0.5391,-0.5463,-0.5538,-0.5709,-0.5777,-0.5933,-0.5975,-0.5841,-0.6383,-0.712,-0.8027,-0.8431,-0.8958,-0.9734,-0.9676,-0.9823,-1.052,-1.0586,-1.0934,-1.1574,-1.1326,-1.1354,-1.1607,-1.1269,-1.1233,-1.1622,-1.1696,-1.1733,-1.1811,-1.2123,-1.208,-1.1755,-1.2986,-1.28,-1.1629,-1.1596,-1.1619,-1.1622,-1.1622,-1.1622,-1.1622,-1.1622,-1.1622,-1.1622,-1.1622,-1.1622,-1.1622,0.6431,0.6064,0.574,0.5576,0.5411,0.5297,0.5297,0.5407,0.5407,0.5301,0.5626,0.5896,0.6,0.6218,0.6327,0.6164,0.5955,0.574,0.5576,0.5407,0.5297,0.5297,0.4794,0.4125,0.3345,0.2794,0.2071,0.1122,0.0954,0.0954,0.1122,0.1122,0.1122,0.1178,0.129,0.1234,0.1122,0.1347,0.1347,0.1178,0.101,0.0616,-0.0,-0.1396,-0.2348,-0.3135,-0.3688,-0.391,-0.3855,-0.3469,-0.3299,-0.3188,-0.2914,-0.2836,-0.2996,-0.3508,-0.3765,-0.403,-0.4689,-0.4857,-0.4942,-0.5196,-0.5218,-0.5204,-0.5238,-0.5272,-0.5248,-0.5102,-0.5154,-0.5191,-0.5359,-0.5405,-0.5434,-0.5542,-0.5728,-0.5804,-0.5713,-0.6419,-0.7149,-0.7756,-0.8425,-0.9157,-0.974,-0.9612,-0.974,-1.0238,-1.0308,-1.0618,-1.131,-1.1185,-1.1247,-1.156,-1.1365,-1.1365,-1.1622,-1.1622,-1.1622,-1.163,-1.192,-1.1924,-1.1602,-1.2649,-1.2508,-1.1588,-1.1692,-1.1685,-1.1622,-1.1622,-1.1622,-1.1622,-1.1622,-1.1622,-1.1622,-1.1622,-1.1622,-1.1622,0.6055,0.5896,0.5686,0.5407,0.5352,0.5352,0.5352,0.5517,0.5513,0.5352,0.5677,0.5841,0.5736,0.5786,0.5782,0.5622,0.5626,0.5572,0.5301,0.5297,0.5297,0.5297,0.4684,0.4015,0.3345,0.2516,0.1737,0.1122,0.0954,0.0954,0.1122,0.1122,0.1234,0.1347,0.1403,0.1291,0.1122,0.1291,0.129,0.1066,0.0785,0.0224,-0.0503,-0.1566,-0.2404,-0.313,-0.3688,-0.391,-0.391,-0.3638,-0.3471,-0.3302,-0.2972,-0.2858,-0.2927,-0.3582,-0.3713,-0.3851,-0.4765,-0.4862,-0.4796,-0.5166,-0.5083,-0.4959,-0.5012,-0.5054,-0.5083,-0.5058,-0.4958,-0.4979,-0.5282,-0.524,-0.5254,-0.5384,-0.5516,-0.5672,-0.5706,-0.6419,-0.7126,-0.7588,-0.8499,-0.928,-0.9676,-0.9612,-0.9606,-0.9983,-1.0053,-1.0364,-1.1052,-1.1129,-1.1317,-1.156,-1.1622,-1.1622,-1.1622,-1.1622,-1.1622,-1.163,-1.1603,-1.1572,-1.1643,-1.2195,-1.2156,-1.1704,-1.1859,-1.1817,-1.1622,-1.1622,-1.1622,-1.1622,-1.1622,-1.1622,-1.1622,-1.1622,-1.1622,-1.1622,0.6,0.5782,0.5622,0.5567,0.5567,0.5567,0.5567,0.5567,0.5567,0.5567,0.5462,0.5403,0.5395,0.5285,0.5344,0.5563,0.5348,0.5238,0.5297,0.5297,0.5297,0.5297,0.4294,0.368,0.3569,0.2183,0.129,0.1122,0.0954,0.101,0.129,0.129,0.1403,0.1572,0.1685,0.1572,0.1291,0.1628,0.1515,0.1122,0.0617,0.0112,-0.0448,-0.1455,-0.2237,-0.2794,-0.3299,-0.3633,-0.3796,-0.3524,-0.3299,-0.3132,-0.297,-0.2968,-0.3135,-0.349,-0.3761,-0.403,-0.4458,-0.473,-0.4886,-0.4804,-0.4919,-0.5031,-0.4808,-0.4845,-0.488,-0.4807,-0.4826,-0.4918,-0.4979,-0.502,-0.5164,-0.536,-0.5427,-0.548,-0.5661,-0.6617,-0.7437,-0.7668,-0.8737,-0.9484,-0.9548,-0.9548,-0.9606,-0.9983,-1.0123,-1.0371,-1.0912,-1.1339,-1.1541,-1.1622,-1.1622,-1.1622,-1.1622,-1.1622,-1.1622,-1.1622,-1.1597,-1.1626,-1.1578,-1.1681,-1.1869,-1.2126,-1.2081,-1.1934,-1.174,-1.174,-1.1685,-1.1622,-1.1622,-1.1622,-1.1622,-1.1622,-1.1622,-1.1622,0.6005,0.5841,0.5736,0.5736,0.5736,0.5681,0.5622,0.5732,0.5732,0.5462,0.5348,0.523,0.5117,0.4959,0.4963,0.5073,0.5124,0.5128,0.5183,0.5242,0.5187,0.4853,0.407,0.3403,0.3014,0.1903,0.1234,0.1122,0.0954,0.101,0.1291,0.1291,0.1459,0.1741,0.1797,0.1685,0.1459,0.1685,0.1628,0.1291,0.0617,0.0168,-0.028,-0.1399,-0.2179,-0.2792,-0.3685,-0.4021,-0.3965,-0.3799,-0.3524,-0.3246,-0.3079,-0.3077,-0.3188,-0.3527,-0.3802,-0.4079,-0.4522,-0.4684,-0.4794,-0.4794,-0.4849,-0.4853,-0.4743,-0.4685,-0.4704,-0.4692,-0.4676,-0.4749,-0.4897,-0.4903,-0.4914,-0.5064,-0.5202,-0.5403,-0.5903,-0.681,-0.7712,-0.8624,-0.9018,-0.931,-0.9466,-0.9484,-0.9606,-0.9983,-0.9868,-1.018,-1.0989,-1.087,-1.1066,-1.156,-1.1622,-1.1622,-1.1622,-1.1622,-1.1622,-1.1622,-1.1622,-1.1615,-1.1608,-1.1964,-1.2243,-1.2437,-1.236,-1.215,-1.1802,-1.1802,-1.1747,-1.1622,-1.1622,-1.1622,-1.1622,-1.1622,-1.1622,-1.1622]},{"header":{"parameterUnit":"m.s-1","parameterCategory":1,"la1":30.6,"la2":28.766,"lo1":-90.7593,"lo2":-88.6598,"dy":0.0162,"dx":0.0183,"nx":116,"ny":114,"refTime":"2023-05-14T06:00:00:Z","depth":0,"parameterNumber":3,"parameterNumberName":"V-component_of_WINDS"},"data":[0.0,0.0,0.0,0.0,0.0,0.0,0.0,0.0,0.0,0.0,0.0,0.0,0.0,0.0,0.0,0.0,0.0,0.0,0.0,0.0,0.0,0.0,0.0,0.0,0.0,0.0,0.0,0.0,0.0,0.0,0.0,0.0,0.0,0.0,0.0,0.0,0.0,0.0,0.0,0.0,0.0,0.0,0.0,0.0,0.0,0.0,0.0,0.0,0.0,0.0,0.0,0.0,0.0,0.0,0.0,0.0,0.0,0.0,0.0,0.0,0.0,0.0,0.0,0.0,0.0,0.0,0.0,0.0,0.0,0.0,0.0,0.0,0.0,0.0,0.0,0.0,0.0,0.0,0.0,0.0,0.0,0.0,0.0,0.0,0.0,0.0,0.0,0.0,0.0,0.0,0.0,0.0,0.0,0.0,0.0,0.0,0.0,0.0,0.0,0.0,0.0,0.0,0.0,0.0,0.0,0.0,0.0,0.0,0.0,0.0,0.0,0.0,0.0,0.0,0.0,0.0,0.0,0.0,0.0,0.0,0.0,0.0,0.0,0.0,0.0,0.0,0.0,0.0,0.0,0.0,0.0,0.0,0.0,0.0,0.0,0.0,0.0,0.0,0.0,0.0,0.0,0.0,0.0,0.0,0.0,0.0,0.0,0.0,0.0,0.0,0.0,0.0,0.0,0.0,0.0,0.0,0.0,0.0,0.0,0.0,0.0,0.0,0.0,0.0,0.0,0.0,0.0,0.0,0.0,0.0,0.0,0.0,0.0,0.0,0.0,0.0,0.0,0.0,0.0,0.0,0.0,0.0,0.0,0.0,0.0,0.0,0.0,0.0,0.0,0.0,0.0,0.0,0.0,0.0,0.0,0.0,0.0,0.0,0.0,0.0,0.0,0.0,0.0,0.0,0.0,0.0,0.0,0.0,0.0,0.0,0.0,0.0,0.0,0.0,0.0,0.0,0.0,0.0,0.0,0.0,0.0,0.0,0.0,0.0,0.0,0.0,0.0,0.0,0.0,0.0,0.0,0.0,0.0,0.0,0.0,0.0,0.0,0.0,0.0,0.0,0.0,0.0,0.0,0.0,0.0,0.0,0.0,0.0,0.0,0.0,0.0,0.0,0.0,0.0,0.0,0.0,0.0,0.0,0.0,0.0,0.0,0.0,0.0,0.0,0.0,0.0,0.0,0.0,0.0,0.0,0.0,0.0,0.0,0.0,0.0,0.0,0.0,0.0,0.0,0.0,0.0,0.0,0.0,0.0,0.0,0.0,0.0,0.0,0.0,0.0,0.0,0.0,0.0,0.0,0.0,0.0,0.0,0.0,0.0,0.0,0.0,0.0,0.0,0.0,0.0,0.0,0.0,0.0,0.0,0.0,0.0,0.0,0.0,0.0,0.0,0.0,0.0,0.0,0.0,0.0,0.0,0.0,0.0,0.0,0.0,0.0,0.0,0.0,0.0,0.0,0.0,0.0,0.0,0.0,0.0,0.0,0.0,0.0,0.0,0.0,0.0,0.0,0.0,0.0,0.0,0.0,0.0,0.0,0.0,0.0,0.0,0.0,0.0,0.0,0.0,0.0,0.0,0.0,0.0,0.0,0.0,0.0,0.0,0.0,0.0,0.0,0.0,0.0,0.0,0.0,0.0,0.0,0.0,0.0,0.0,0.0,0.0,0.0,0.0,0.0,0.0,0.0,0.0,0.0,0.0,0.0,0.0,0.0,0.0,0.0,0.0,0.0,0.0,0.0,0.0,0.0,0.0,0.0,0.0,0.0,0.0,0.0,0.0,0.0,0.0,0.0,0.0,0.0,0.0,0.0,0.0,0.0,0.0,0.0,0.0,0.0,0.0,0.0,0.0,0.0,0.0,0.0,0.0,0.0,0.0,0.0,0.0,0.0,0.0,0.0,0.0,0.0,0.0,0.0,0.0,0.0,0.0,0.0,0.0,0.0,0.0,0.0,0.0,0.0,0.0,0.0,0.0,0.0,0.0,0.0,0.0,0.0,0.0,0.0,0.0,0.0,0.0,0.0,0.0,0.0,0.0,0.0,0.0,0.0,0.0,0.0,0.0,0.0,0.0,0.0,0.0,0.0,0.0,0.0,0.0,0.0,0.0,0.0,0.0,0.0,0.0,0.0,0.0,0.0,0.0,0.0,0.0,0.0,0.0,0.0,0.0,0.0,0.0,0.0,0.0,0.0,0.0,0.0,0.0,0.0,0.0,0.0,0.0,0.0,0.0,0.0,0.0,0.0,0.0,0.0,0.0,0.0,0.0,0.0,0.0,0.0,0.0,0.0,0.0,0.0,0.0,0.0,0.0,0.0,0.0,0.0,0.0,0.0,0.0,0.0,0.0,0.0,0.0,0.0,0.0,0.0,0.0,0.0,0.0,0.0,0.0,0.0,0.0,0.0,0.0,0.0,0.0,0.0,0.0,0.0,0.0,0.0,0.0,0.0,0.0,0.0,0.0,0.0,0.0,0.0,0.0,0.0,0.0,0.0,0.0,0.0,0.0,0.0,0.0,0.0,0.0,0.0,0.0,0.0,0.0,0.0,0.0,0.0,0.0,0.0,0.0,0.0,0.0,0.0,0.0,0.0,0.0,0.0,0.0,0.0,0.0,0.0,0.0,0.0,0.0,0.0,0.0,0.0,0.0,0.0,0.0,0.0,0.0,0.0,0.0,0.0,0.0,0.0,0.0,0.0,0.0,0.0,0.0,0.0,0.0,0.0,0.0,0.0,0.0,0.0,0.0,0.0,0.0,0.0,0.0,0.0,0.0,0.0,0.0,0.0,0.0,0.0,0.0,0.0,0.0,0.0,0.0,0.0,0.0,0.0,0.0,0.0,0.0,0.0,0.0,0.0,0.0,0.0,0.0,0.0,0.0,0.0,0.0,0.0,0.0,0.0,0.0,0.0,0.0,0.0,0.0,0.0,0.0,0.0,0.0,0.0,0.0,0.0,0.0,0.0,0.0,0.0,0.0,0.0,0.0,0.0,0.0,0.0,0.0,0.0,0.0,0.0,0.0,0.0,0.0,0.0,0.0,0.0,0.0,0.0,0.0,0.0,0.0,0.0,0.0,0.0,0.0,0.0,0.0,0.0,0.0,0.0,0.0,0.0,0.0,0.0,0.0,0.0,0.0,0.0,0.0,0.0,0.0,0.0,0.0,0.0,0.0,0.0,0.0,0.0,0.0,0.0,0.0,0.0,0.0,0.0,0.0,0.0,0.0,0.0,0.0,0.0,0.0,0.0,0.0,0.0,0.0,0.0,0.0,0.0,0.0,0.0,0.0,0.0,0.0,0.0,0.0,0.0,0.0,0.0,0.0,0.0,0.0,0.0,0.0,0.0,0.0,0.0,0.0,0.0,0.0,0.0,0.0,0.0,0.0,0.0,0.0,0.0,0.0,0.0,0.0,0.0,0.0,0.0,0.0,0.0,0.0,0.0,0.0,0.0,0.0,0.0,0.0,0.0,0.0,0.0,0.0,0.0,0.0,0.0,0.0,0.0,0.0,0.0,0.0,0.0,0.0,0.0,0.0,0.0,0.0,0.0,0.0,0.0,0.0,0.0,0.0,0.0,0.0,0.0,0.0,0.0,0.0,0.0,0.0,0.0,0.0,0.0,0.0,0.0,0.0,0.0,0.0,0.0,0.0,0.0,0.0,0.0,0.0,0.0,0.0,0.0,0.0,0.0,0.0,0.0,0.0,0.0,0.0,0.0,0.0,0.0,0.0,0.0,0.0,0.0,0.0,0.0,0.0,0.0,0.0,0.0,0.0,0.0,0.0,0.0,0.0,0.0,0.0,0.0,0.0,0.0,0.0,0.0,0.0,0.0,0.0,0.0,0.0,0.0,0.0,0.0,0.0,0.0,0.0,0.0,0.0,0.0,0.0,0.0,0.0,0.0,0.0,0.0,0.0,0.0,0.0,0.0,0.0,0.0,0.0,0.0,0.0,0.0,0.0,0.0,0.0,0.0,0.0,0.0,0.0,0.0,0.0,0.0,0.0,0.0,0.0,0.0,0.0,0.0,0.0,0.0,0.0,0.0,0.0,0.0,0.0,0.0,0.0,0.0,0.0,0.0,0.0,0.0,0.0,0.0,0.0,0.0,0.0,0.0,0.0,0.0,0.0,0.0,0.0,0.0,0.0,0.0,0.0,0.0,0.0,0.0,0.0,0.0,0.0,0.0,0.0,0.0,0.0,0.0,0.0,0.0,0.0,0.0,0.0,0.0,0.0,0.0,0.0,0.0,0.0,0.0,0.0,0.0,0.0,0.0,0.0,0.0,0.0,0.0,0.0,0.0,0.0,0.0,0.0,0.0,0.0,0.0,0.0,0.0,0.0,0.0,0.0,0.0,0.0,0.0,0.0,0.0,0.0,0.0,0.0,0.0,0.0,0.0,0.0,0.0,0.0,0.0,0.0,0.0,0.0,0.0,0.0,0.0,0.0,0.0,0.0,0.0,0.0,0.0,0.0,0.0,0.0,0.0,0.0,0.0,0.0,0.0,0.0,0.0,0.0,0.0,0.0,0.0,0.0,0.0,0.0,0.0,0.0,0.0,0.0,0.0,0.0,0.0,0.0,0.0,0.0,0.0,0.0,0.0,0.0,0.0,0.0,0.0,0.0,0.0,0.0,0.0,0.0,0.0,0.0,0.0,0.0,0.0,0.0,0.0,0.0,0.0,0.0,0.0,0.0,0.0,0.0,0.0,0.0,0.0,0.0,0.0,0.0,0.0,0.0,0.0,0.0,0.0,0.0,0.0,0.0,0.0,0.0,0.0,0.0,0.0,0.0,0.0,0.0,0.0,0.0,0.0,0.0,0.0,0.0,0.0,0.0,0.0,0.0,0.0,0.0,0.0,0.0,0.0,0.0,0.0,0.0,0.0,0.0,0.0,0.0,0.0,0.0,0.0,0.0,0.0,0.0,0.0,0.0,0.0,0.0,0.0,0.0,0.0,0.0,0.0,0.0,0.0,0.0,0.0,0.0,0.0,0.0,0.0,0.0,0.0,0.0,0.0,0.0,0.0,0.0,0.0,0.0,0.0,0.0,0.0,0.0,0.0,0.0,0.0,0.0,0.0,0.0,0.0,0.0,0.0,0.0,0.0,0.0,0.0,0.0,0.0,0.0,0.0,0.0,0.0,0.0,0.0,0.0,0.0,0.0,0.0,0.0,0.0,0.0,0.0,0.0,0.0,0.0,0.0,0.0,0.0,0.0,0.0,0.0,0.0,0.0,0.0,0.0,0.0,0.0,0.0,0.0,0.0,0.0,0.0,0.0,0.0,0.0,0.0,0.0,0.0,0.0,0.0,0.0,0.0,0.0,0.0,0.0,0.0,0.0,0.0,0.0,0.0,0.0,0.0,0.0,0.0,0.0,0.0,0.0,0.0,0.0,0.0,0.0,0.0,0.0,0.0,0.0,0.0,0.0,0.0,0.0,0.0,0.0,0.0,0.0,0.0,0.0,0.0,0.0,0.0,0.0,0.0,0.0,0.0,0.0,0.0,0.0,0.0,0.0,0.0,0.0,0.0,0.0,0.0,0.0,0.0,0.0,0.0,0.0,0.0,0.0,0.0,0.0,0.0,0.0,0.0,0.0,0.0,0.0,0.0,0.0,0.0,0.0,0.0,0.0,0.0,0.0,0.0,0.0,0.0,0.0,0.0,0.0,0.0,0.0,0.0,0.0,0.0,0.0,0.0,0.0,0.0,0.0,0.0,0.0,0.0,0.0,0.0,0.0,0.0,0.0,0.0,0.0,0.0,0.0,0.0,0.0,0.0,0.0,0.0,0.0,0.0,0.0,0.0,0.0,0.0,0.0,0.0,0.0,0.0,0.0,0.0,0.0,0.0,0.0,0.0,0.0,0.0,0.0,0.0,0.0,0.0,0.0,0.0,0.0,0.0,0.0,0.0,0.0,0.0,0.0,0.0,0.0,0.0,0.0,0.0,0.0,0.0,0.0,0.0,0.0,0.0,0.0,0.0,0.0,0.0,0.0,0.0,0.0,0.0,0.0,0.0,0.0,0.0,0.0,0.0,0.0,0.0,0.0,0.0,0.0,0.0,0.0,0.0,0.0,0.0,0.0,0.0,0.0,0.0,0.0,0.0,-1.8926,-1.9684,0.0,0.0,0.0,0.0,0.0,0.0,0.0,0.0,0.0,0.0,0.0,0.0,0.0,0.0,0.0,0.0,0.0,0.0,0.0,0.0,0.0,0.0,0.0,0.0,0.0,0.0,0.0,0.0,0.0,0.0,0.0,0.0,0.0,0.0,0.0,0.0,0.0,0.0,0.0,0.0,0.0,0.0,0.0,0.0,0.0,0.0,0.0,0.0,0.0,0.0,0.0,0.0,0.0,0.0,0.0,0.0,0.0,0.0,0.0,0.0,0.0,0.0,0.0,0.0,0.0,0.0,0.0,0.0,0.0,0.0,0.0,0.0,0.0,0.0,0.0,0.0,0.0,0.0,0.0,0.0,0.0,0.0,0.0,0.0,0.0,0.0,0.0,0.0,0.0,0.0,0.0,0.0,0.0,0.0,0.0,0.0,0.0,0.0,0.0,0.0,0.0,0.0,0.0,0.0,0.0,0.0,0.0,0.0,0.0,0.0,0.0,0.0,0.0,0.0,-1.9184,-1.9742,0.0,0.0,0.0,0.0,0.0,0.0,0.0,0.0,0.0,0.0,0.0,0.0,0.0,0.0,0.0,0.0,0.0,0.0,0.0,0.0,0.0,0.0,0.0,0.0,0.0,0.0,0.0,0.0,0.0,0.0,0.0,0.0,0.0,0.0,0.0,0.0,0.0,0.0,0.0,0.0,0.0,0.0,0.0,0.0,0.0,0.0,0.0,0.0,0.0,0.0,0.0,0.0,0.0,0.0,0.0,0.0,0.0,0.0,0.0,0.0,0.0,0.0,0.0,0.0,0.0,0.0,0.0,0.0,0.0,0.0,0.0,0.0,0.0,0.0,0.0,0.0,0.0,0.0,0.0,0.0,0.0,0.0,0.0,0.0,0.0,0.0,0.0,0.0,0.0,0.0,0.0,0.0,0.0,0.0,0.0,0.0,0.0,0.0,0.0,0.0,0.0,0.0,0.0,0.0,0.0,0.0,0.0,0.0,-2.0881,-2.0509,-2.036,-2.0063,-1.9808,-1.9631,-1.9797,-1.9948,-2.0065,-1.997,0.0,0.0,0.0,0.0,0.0,0.0,0.0,0.0,0.0,0.0,0.0,0.0,0.0,0.0,0.0,0.0,0.0,0.0,0.0,0.0,0.0,0.0,0.0,0.0,0.0,0.0,0.0,0.0,0.0,0.0,0.0,0.0,0.0,0.0,0.0,0.0,0.0,0.0,-2.0433,-2.0538,-2.0587,-2.0629,-2.0779,0.0,0.0,0.0,0.0,0.0,0.0,0.0,0.0,0.0,0.0,0.0,0.0,0.0,0.0,0.0,0.0,0.0,0.0,0.0,0.0,0.0,0.0,0.0,0.0,0.0,0.0,0.0,0.0,0.0,0.0,0.0,0.0,0.0,0.0,0.0,0.0,0.0,0.0,0.0,0.0,0.0,0.0,0.0,-2.2853,-2.2901,0.0,0.0,0.0,0.0,0.0,0.0,0.0,0.0,0.0,0.0,0.0,0.0,0.0,-2.1683,-2.2347,-2.2889,-2.3086,-2.2955,-2.3456,-2.3492,-2.3058,-2.2335,-2.1885,-2.1702,-2.1728,0.0,-2.0065,-2.0826,0.0,0.0,0.0,0.0,0.0,0.0,0.0,0.0,0.0,0.0,0.0,0.0,0.0,0.0,0.0,0.0,0.0,0.0,0.0,0.0,0.0,0.0,0.0,0.0,0.0,0.0,0.0,0.0,0.0,0.0,0.0,0.0,0.0,0.0,0.0,0.0,-1.9029,-2.007,-2.0645,-2.1115,-2.1354,-2.1464,-2.1978,-2.1551,-2.0483,-2.0652,0.0,0.0,0.0,0.0,0.0,0.0,0.0,0.0,0.0,0.0,0.0,0.0,0.0,0.0,0.0,0.0,0.0,0.0,0.0,0.0,0.0,0.0,0.0,0.0,0.0,0.0,0.0,0.0,0.0,0.0,0.0,0.0,0.0,0.0,0.0,0.0,0.0,0.0,0.0,-2.2032,-2.2271,-2.2306,-2.2004,-2.1613,0.0,0.0,0.0,0.0,0.0,0.0,0.0,0.0,0.0,-2.2067,-2.2493,-2.2824,-2.3036,-2.3657,-2.3893,-2.3715,-2.3925,-2.391,-2.3667,-2.2836,-2.2614,-2.2855,-2.2424,-2.205,-2.1747,-2.0946,-2.0499,-2.0292,0.0,0.0,0.0,0.0,-1.982,-1.9176,0.0,0.0,0.0,0.0,0.0,0.0,0.0,0.0,0.0,0.0,0.0,0.0,0.0,0.0,0.0,-1.8881,0.0,0.0,0.0,0.0,0.0,0.0,0.0,0.0,0.0,0.0,0.0,0.0,-2.0793,-2.1412,-2.1468,-2.1868,-2.2084,-2.215,-2.2765,-2.2371,-2.1255,-2.127,-2.0952,0.0,0.0,0.0,0.0,0.0,0.0,0.0,0.0,0.0,0.0,0.0,0.0,0.0,0.0,0.0,0.0,0.0,0.0,0.0,0.0,0.0,0.0,0.0,0.0,0.0,0.0,0.0,0.0,0.0,0.0,0.0,0.0,0.0,0.0,0.0,0.0,0.0,0.0,-2.2103,-2.2315,-2.2087,-2.2293,-2.2129,0.0,0.0,0.0,0.0,0.0,0.0,-2.2621,-2.3179,-2.3257,-2.2662,-2.332,-2.3872,-2.4276,-2.4492,-2.4761,-2.5015,-2.4846,-2.4852,-2.5005,-2.3909,-2.3671,-2.4082,-2.341,-2.3145,-2.31,-2.1468,-2.0727,-2.0603,-2.0083,-1.9808,-1.9769,-2.0481,-2.0299,-1.9842,0.0,0.0,0.0,0.0,0.0,0.0,0.0,0.0,0.0,0.0,0.0,0.0,0.0,0.0,-1.733,-1.8863,-1.9127,-1.9273,0.0,0.0,0.0,0.0,0.0,0.0,0.0,0.0,0.0,-2.2775,-2.2863,-2.3214,-2.3796,-2.3076,-2.2764,-2.2747,-2.2989,-2.2682,-2.1931,-2.2025,-2.1654,-2.1028,0.0,0.0,0.0,0.0,0.0,0.0,0.0,0.0,0.0,0.0,0.0,0.0,0.0,0.0,0.0,0.0,0.0,0.0,0.0,0.0,0.0,0.0,0.0,0.0,0.0,0.0,0.0,0.0,0.0,0.0,0.0,0.0,0.0,0.0,0.0,0.0,0.0,0.0,0.0,-2.3132,-2.3769,0.0,0.0,0.0,0.0,-2.4129,-2.421,-2.4471,-2.4995,-2.5117,-2.5457,-2.6034,-2.4471,-2.4679,-2.6875,-2.5935,-2.6144,-2.7519,-2.7445,-2.7731,-2.8297,-2.6658,-2.5883,-2.576,-2.5472,-2.4549,-2.3264,-2.3041,-2.2636,-2.2182,-2.2064,-2.1732,-2.1351,-2.1962,-2.2164,-2.2167,0.0,0.0,0.0,0.0,0.0,0.0,0.0,0.0,0.0,0.0,0.0,0.0,0.0,-1.8636,-1.9362,-2.0457,-2.0656,-2.0622,-2.0276,0.0,0.0,0.0,0.0,0.0,0.0,0.0,-2.2869,-2.306,-2.4194,-2.4505,-2.4068,-2.4427,-2.4533,-2.439,-2.448,-2.4375,-2.4146,-2.3382,-2.2704,-2.2132,-2.2118,-2.1565,0.0,0.0,0.0,0.0,0.0,0.0,0.0,0.0,0.0,0.0,0.0,0.0,0.0,0.0,0.0,0.0,0.0,0.0,0.0,0.0,0.0,0.0,0.0,0.0,0.0,0.0,0.0,0.0,0.0,0.0,0.0,0.0,0.0,0.0,0.0,0.0,0.0,-2.3963,-2.5108,0.0,-2.473,-2.5143,-2.5592,-2.5898,-2.6237,-2.6352,-2.6169,-2.6527,-2.6537,-2.6115,-2.6437,-2.6689,-2.6839,-2.7358,-2.7622,-2.7652,-2.8008,-2.8316,-2.85,-2.7327,-2.6982,-2.7243,-2.6086,-2.5517,-2.537,-2.4654,-2.3779,-2.2758,-2.2224,-2.1922,-2.1856,-2.2447,-2.2625,-2.2683,0.0,0.0,0.0,0.0,0.0,0.0,0.0,0.0,0.0,0.0,0.0,-1.6999,-1.8758,-1.9989,-2.0993,-2.1773,-2.1719,-2.1405,-2.0842,0.0,0.0,0.0,0.0,0.0,0.0,-2.3464,-2.4329,-2.4312,-2.5464,-2.5632,-2.4906,-2.5314,-2.5447,-2.533,-2.5428,-2.5491,-2.5525,-2.4841,-2.4069,-2.3275,-2.3271,-2.2741,-2.1797,0.0,0.0,0.0,0.0,0.0,0.0,0.0,0.0,0.0,0.0,0.0,0.0,0.0,0.0,0.0,0.0,0.0,0.0,0.0,0.0,0.0,0.0,0.0,0.0,0.0,0.0,0.0,0.0,0.0,0.0,0.0,0.0,0.0,0.0,-2.4258,-2.5312,-2.4798,-2.6194,-2.687,-2.6025,-2.6685,-2.7296,-2.7586,-2.7926,-2.7911,-2.7424,-2.77,-2.757,-2.6865,-2.747,-2.7718,-2.7544,-2.814,-2.8299,-2.8009,-2.8395,-2.8587,-2.8525,-2.7633,-2.7422,-2.7727,-2.6203,-2.595,-2.6504,-2.5849,-2.5181,-2.4471,-2.3152,-2.2828,-2.309,-2.3215,-2.3673,-2.4328,0.0,0.0,0.0,0.0,0.0,0.0,0.0,0.0,0.0,0.0,-1.7339,-1.812,-1.887,-2.0548,-2.1927,-2.2643,-2.2071,-2.1499,-2.1025,-2.0132,0.0,0.0,0.0,0.0,-2.3312,-2.5464,-2.6623,-2.669,-2.6669,-2.6602,-2.6481,-2.5775,-2.548,-2.5526,-2.5798,-2.5968,-2.6074,-2.639,-2.5775,-2.4523,-2.4044,-2.3967,-2.3879,0.0,0.0,0.0,0.0,0.0,0.0,0.0,0.0,0.0,0.0,0.0,0.0,0.0,0.0,0.0,0.0,0.0,0.0,0.0,0.0,0.0,0.0,0.0,0.0,0.0,0.0,0.0,0.0,0.0,0.0,0.0,0.0,0.0,-2.4463,-2.5074,-2.5648,-2.5707,-2.7136,-2.7803,-2.7037,-2.7597,-2.8375,-2.9221,-2.9206,-2.9082,-2.8869,-2.8734,-2.8644,-2.8548,-2.7457,-2.7635,-2.9169,-2.8292,-2.8158,-2.8785,-2.8725,-2.8682,-2.8639,-2.7673,-2.7227,-2.7183,-2.6098,-2.5991,-2.6609,-2.6603,-2.6965,-2.7339,-2.506,-2.4607,-2.5101,-2.4371,-2.5426,-2.7252,0.0,0.0,0.0,0.0,0.0,0.0,0.0,0.0,0.0,0.0,-1.8257,-1.9092,-1.9836,-2.1387,-2.2488,-2.2694,-2.2013,-2.1357,-2.0886,0.0,0.0,0.0,0.0,0.0,-2.5712,-2.6289,-2.6623,-2.669,-2.7359,-2.7303,-2.6602,-2.7692,-2.8174,-2.8169,-2.8776,-2.914,-2.9301,-2.9311,-2.8818,-2.7951,-2.6326,-2.5012,-2.3984,0.0,0.0,0.0,0.0,0.0,0.0,0.0,0.0,0.0,0.0,0.0,0.0,0.0,0.0,0.0,0.0,0.0,0.0,0.0,0.0,0.0,0.0,0.0,0.0,0.0,0.0,0.0,0.0,0.0,0.0,0.0,-2.4603,-2.5544,-2.5215,-2.6947,-2.8267,-2.8275,-2.9754,-3.0655,-3.0378,-3.0576,-3.0788,-3.0917,-3.0797,-3.0456,-2.9914,-3.0262,-3.0122,-2.9325,-2.8989,-2.8885,-2.8984,-2.8677,-2.8584,-2.8737,-2.8576,-2.8243,-2.7767,-2.7816,-2.7834,-2.786,-2.7929,-2.8338,-2.894,-2.8771,-2.881,-2.8793,-2.6579,-2.5495,-2.5275,-2.5876,-2.7127,-2.844,0.0,0.0,0.0,0.0,0.0,0.0,0.0,0.0,0.0,0.0,-1.8898,-1.9829,-2.025,-2.179,-2.2764,-2.2738,-2.1794,-2.108,-2.0785,0.0,0.0,0.0,0.0,-2.5561,-2.6854,-2.7493,-2.767,-2.736,-2.8208,-2.8312,-2.7798,-2.9129,-2.9804,-2.9886,-3.0273,-3.0755,-3.1207,-3.079,-3.0603,-3.042,-2.8902,-2.7378,-2.5957,-2.4996,-2.4118,-2.3336,-2.2699,-2.2017,-2.1419,-2.1542,0.0,0.0,0.0,0.0,0.0,0.0,0.0,0.0,0.0,0.0,0.0,0.0,0.0,0.0,0.0,0.0,0.0,0.0,0.0,0.0,0.0,0.0,0.0,0.0,-2.6305,-2.7811,-2.7734,-2.895,-3.0127,-3.0847,-3.1728,-3.2261,-3.225,-3.2237,-3.2045,-3.1636,-3.1776,-3.1408,-3.0324,-3.0868,-3.071,-2.9626,-2.9569,-2.9386,-2.9025,-2.8936,-2.8864,-2.8828,-2.8931,-2.8771,-2.8431,-2.8881,-2.9098,-2.9052,-2.8594,-2.8749,-2.9238,-2.8876,-2.8862,-2.8903,0.0,0.0,0.0,0.0,-2.8609,-2.9017,0.0,0.0,0.0,0.0,0.0,0.0,0.0,0.0,0.0,0.0,0.0,-2.0164,-2.0164,-2.1702,-2.2669,-2.2505,-2.1475,-2.0783,0.0,0.0,0.0,-2.3507,-2.6007,-2.7399,-2.7502,-2.8793,-2.9187,-2.8569,-2.9055,-2.9394,-2.954,-3.022,-3.0683,-3.0952,-3.1045,-3.1588,-3.2336,-3.1704,-3.182,-3.2349,-3.1495,-3.0295,-2.874,-2.6573,-2.5737,-2.554,-2.4149,-2.3098,-2.241,-2.2585,0.0,0.0,0.0,0.0,0.0,0.0,0.0,0.0,0.0,0.0,0.0,0.0,0.0,0.0,0.0,0.0,0.0,0.0,0.0,0.0,0.0,0.0,0.0,0.0,-2.8254,-3.0914,-3.1191,-3.1111,-3.1571,-3.3017,-3.3106,-3.3077,-3.3122,-3.2933,-3.2498,-3.179,-3.2244,-3.1919,-3.0437,-3.0887,0.0,0.0,0.0,-2.9574,-2.9384,-2.9347,-2.9271,-2.9138,-2.9696,-2.9916,-2.9781,-3.027,-3.0421,-3.0308,-2.8682,-2.8303,-2.8812,-2.8268,-2.8265,-2.8528,-2.8305,-2.8682,-2.938,-2.981,-2.9695,-2.933,0.0,0.0,0.0,0.0,0.0,0.0,0.0,0.0,0.0,-1.771,-1.8602,-1.9256,-1.9256,-2.0719,-2.1387,-2.062,-2.0884,-2.0917,0.0,0.0,-2.2746,-2.5144,-2.6809,-2.8401,-2.9891,-2.9587,-2.9658,-3.0159,-2.9647,-2.9737,-3.0362,-3.11,-3.1565,-3.1815,-3.3045,-3.3803,-3.416,-3.4568,-3.4875,-3.4925,-3.3448,-3.1462,-2.9337,-2.8236,-2.7562,-2.7063,-2.6136,-2.5041,-2.4038,-2.4139,-2.3376,-2.235,-2.2035,0.0,0.0,0.0,0.0,0.0,0.0,0.0,0.0,0.0,0.0,0.0,0.0,0.0,0.0,0.0,0.0,0.0,0.0,0.0,0.0,-2.8019,-2.9854,-3.1578,-3.3587,-3.3757,-3.3525,-3.3161,-3.366,-3.3986,-3.3903,-3.3288,-3.2785,-3.2512,-3.201,-3.1589,-3.1269,-3.1306,-3.155,-3.1929,-3.1186,-3.0696,-3.0482,-3.1046,-3.086,-2.9905,-3.0636,0.0,-2.9656,-3.0113,-3.03,-3.0203,-2.9872,-3.0434,-3.1549,-3.0658,-3.0421,-3.0476,-2.8905,-2.899,-2.9972,-2.9476,-2.9649,-3.0063,0.0,0.0,0.0,0.0,0.0,0.0,0.0,0.0,0.0,0.0,-1.8477,-1.8998,-1.8998,-2.0074,-2.0602,-2.0128,-2.0433,0.0,0.0,-2.1933,-2.3919,-2.6109,-2.8198,-2.9765,-3.079,-3.0818,-3.0818,-3.0808,-3.0779,-3.0977,-3.142,-3.2152,-3.2559,-3.2762,-3.3967,-3.48,-3.5327,-3.5739,-3.6188,-3.6541,-3.5289,-3.3796,-3.2119,-3.0387,-2.9032,-2.8051,-2.777,-2.6489,-2.4985,-2.5225,-2.4572,-2.3524,-2.2745,-2.2544,-2.2195,0.0,0.0,0.0,0.0,0.0,0.0,0.0,0.0,0.0,0.0,0.0,0.0,0.0,0.0,-2.3807,-2.5957,0.0,-2.7793,-3.038,-3.1931,-3.3227,-3.4488,-3.4892,-3.49,-3.4453,-3.4648,-3.4755,-3.4703,-3.4297,-3.37,-3.2832,-3.2756,-3.2182,-3.092,-3.1647,-3.2012,-3.1798,-3.1836,-3.173,-3.1503,-3.182,-3.1717,-3.1102,-3.137,-3.129,-3.0966,-3.1004,-3.1266,-3.156,-3.0935,-3.1054,-3.1619,-3.0836,-3.0837,-3.1244,-3.0216,-3.0179,-3.07,-3.0418,-3.0592,-3.0813,0.0,0.0,0.0,0.0,0.0,0.0,0.0,0.0,0.0,0.0,-1.8312,-1.8741,-1.8765,-1.9457,-1.9898,0.0,0.0,0.0,0.0,-2.2591,-2.4846,-2.6788,-2.9258,-3.0819,-3.1297,-3.1926,-3.1944,-3.14,-3.1906,-3.2231,-3.2451,-3.3189,-3.3599,-3.3694,-3.4757,-3.5581,-3.6261,-3.6479,-3.7026,-3.7624,-3.667,-3.5862,-3.4954,-3.2493,-3.0529,-2.9112,-2.9101,-2.7622,-2.5725,-2.6034,-2.5589,-2.4712,-2.3438,-2.2961,-2.2352,-1.9849,-1.9972,0.0,0.0,0.0,0.0,0.0,0.0,0.0,0.0,-2.16,-2.2724,-2.6227,-2.6933,-2.7695,-3.0136,-3.0544,-3.1086,-3.2824,-3.4142,-3.5009,-3.5188,-3.5483,-3.5688,-3.5678,-3.5463,-3.5304,-3.5285,-3.5089,-3.4423,-3.313,-3.3483,-3.2947,-3.1063,-3.2115,-3.2504,-3.1929,-3.2504,-3.2722,-3.2504,-3.2593,-3.255,-3.2339,-3.2255,-3.2348,-3.2557,-3.2267,-3.2469,-3.3001,-3.1951,-3.1399,-3.1205,-3.0675,-3.0916,-3.1576,-3.1389,-3.1295,-3.1295,-3.1406,-3.1414,-3.1247,0.0,0.0,0.0,0.0,0.0,0.0,0.0,0.0,0.0,0.0,0.0,0.0,0.0,0.0,0.0,0.0,0.0,0.0,-2.0226,-2.2334,-2.4723,-2.7362,-2.9029,-3.07,-3.237,-3.2115,-3.2236,-3.2786,-3.2441,-3.2617,-3.3284,-3.4152,-3.4545,-3.4618,-3.6291,-3.7064,-3.7211,-3.7986,-3.8365,-3.8328,-3.6833,-3.615,-3.5881,-3.4154,-3.2445,-3.0876,-3.0064,-2.8441,-2.6635,-2.6635,-2.5897,-2.4961,-2.4731,-2.422,-2.3258,-2.0718,0.0,-1.8641,-1.6157,-1.6817,-1.8896,-2.1734,-2.1997,-2.2957,0.0,-2.7783,-2.7164,-3.0676,-3.1381,-3.1949,-3.3797,-3.4122,-3.4686,-3.6428,-3.6224,-3.6124,-3.6907,-3.6211,-3.5615,-3.5611,-3.5422,-3.5285,-3.5226,-3.456,-3.406,-3.3876,-3.3283,-3.3144,-3.3647,-3.3072,-3.3353,-3.4786,-3.408,-3.3652,-3.3614,-3.4263,-3.411,-3.3173,-3.3792,-3.3889,-3.356,-3.333,-3.3259,-3.3243,-3.2991,-3.2571,-3.204,-3.1878,-3.179,-3.1839,-3.1449,-3.1295,-3.1295,-3.1295,-3.1018,-3.0602,0.0,0.0,0.0,0.0,0.0,0.0,0.0,0.0,0.0,0.0,0.0,0.0,0.0,0.0,0.0,0.0,0.0,0.0,-2.0333,-2.2843,-2.5316,-2.7554,-2.9082,-3.0527,-3.1915,-3.1773,-3.1836,-3.2125,-3.1929,-3.2253,-3.3122,-3.3926,-3.4366,-3.4532,-3.625,-3.703,-3.7119,-3.7949,-3.848,-3.8709,-3.7911,-3.718,-3.6414,-3.5143,-3.2784,-3.006,-2.9507,-2.7879,0.0,0.0,-2.4816,-2.4128,-2.4193,-2.3738,-2.2698,-2.0098,-1.9495,0.0,-1.9708,-2.0263,-2.1543,-2.4526,-2.539,-2.6422,-2.9983,-2.9943,-3.0019,-3.2996,-3.4415,-3.5196,-3.5428,-3.6258,-3.6836,-3.6573,-3.6633,-3.6655,-3.6504,-3.5962,-3.5424,-3.4958,-3.4691,-3.4722,-3.5203,-3.4955,-3.4565,-3.4078,-3.3748,-3.3485,-3.3283,-3.3383,-3.3738,-3.4401,-3.4503,-3.4507,-3.4433,-3.4756,-3.466,-3.418,-3.3923,-3.3846,-3.3839,-3.3176,-3.2993,-3.3166,-3.2755,-3.2552,-3.2463,-3.1548,-3.1479,-3.1913,-3.147,-3.147,-3.1694,-3.1524,-3.1336,-3.1153,0.0,0.0,0.0,0.0,0.0,0.0,0.0,0.0,0.0,0.0,0.0,0.0,0.0,0.0,0.0,0.0,0.0,0.0,0.0,-2.2838,-2.5201,-2.7156,-2.8543,-2.9811,-3.0991,-3.1168,-3.1306,-3.1537,-3.1631,-3.2117,-3.2965,-3.3981,-3.4512,-3.4731,-3.6432,-3.721,-3.7275,-3.7874,-3.8323,-3.8623,-3.7794,-3.6989,-3.6077,-3.4271,-3.1648,-2.8931,-2.8688,-2.6783,0.0,0.0,-2.3157,-2.2537,-2.2874,-2.2361,-2.1273,-1.9409,-1.8849,-1.9342,-2.1662,-2.2654,-2.3767,-2.6841,-2.8454,-2.9795,-3.1778,-3.2226,-3.2871,-3.5259,-3.6752,-3.7448,-3.6801,-3.771,-3.8127,-3.6894,-3.6972,-3.6982,-3.6342,-3.5698,-3.5078,-3.4449,-3.3975,-3.3944,-3.4576,-3.4829,-3.4715,-3.4146,-3.4319,-3.4136,-3.3459,-3.3964,-3.4263,-3.4163,-3.4734,-3.5001,-3.4908,-3.4868,-3.4848,-3.4749,-3.4041,-3.3844,-3.408,-3.3276,-3.3076,-3.3372,-3.2819,-3.2788,-3.2991,-3.1716,-3.1568,-3.2092,-3.175,-3.175,-3.1967,-3.1894,-3.1821,-3.1765,0.0,0.0,0.0,0.0,0.0,0.0,0.0,0.0,0.0,0.0,0.0,0.0,0.0,0.0,0.0,0.0,0.0,0.0,0.0,-2.1876,-2.3798,-2.604,-2.7039,-2.8279,-2.981,-3.0305,-3.0879,-3.16,-3.1906,-3.2439,-3.3122,-3.4794,-3.5548,-3.5652,-3.7461,-3.819,-3.8068,-3.8158,-3.8176,-3.7916,-3.5549,-3.4761,-3.455,-3.0667,-2.8756,-2.8124,-2.7902,0.0,0.0,0.0,-2.1071,-2.0064,-2.0915,-2.0169,0.0,-1.9,-1.7318,-1.6173,-1.9569,-2.1761,-2.4113,-2.8349,-3.0715,-3.2649,-3.5243,-3.5794,-3.625,-3.8012,-3.8434,-3.8466,-3.8434,-3.8517,-3.8551,-3.8449,-3.7747,-3.7188,-3.717,-3.5643,-3.4481,-3.4313,-3.3492,-3.2935,-3.2974,-3.3614,-3.4064,-3.4088,-3.4825,-3.5251,-3.5224,-3.5119,-3.5054,-3.5054,-3.4964,-3.4908,-3.4887,-3.4848,-3.4768,-3.4687,-3.4476,-3.4386,-3.4363,-3.4105,-3.4005,-3.4049,-3.3689,-3.368,-3.3797,-3.3057,-3.2648,-3.2484,-3.2401,-3.2197,-3.1966,-3.2386,-3.2386,-3.2109,0.0,0.0,0.0,0.0,0.0,0.0,0.0,0.0,0.0,0.0,0.0,0.0,0.0,0.0,0.0,0.0,0.0,0.0,0.0,-2.1764,-2.345,-2.4719,-2.6627,-2.7892,-2.8448,-2.911,-2.9589,-2.9872,-2.9946,-3.0414,-3.1275,-3.2303,-3.3452,-3.464,-3.5747,-3.6482,-3.6878,-3.6342,-3.6524,-3.6889,-3.4487,-3.3687,-3.3616,-3.0277,-2.7518,-2.5318,0.0,0.0,0.0,0.0,-2.061,-1.9856,-2.0205,-1.9658,-1.8586,-1.7016,-1.7148,-1.844,-2.1333,-2.4657,-2.8314,-3.2661,-3.4649,-3.6222,-3.8799,-3.8504,-3.7689,-3.7694,-3.6323,-3.4597,-3.2846,-3.3496,-3.4094,-3.3496,-3.4555,-3.548,-3.5463,-3.4911,-3.4054,-3.285,-3.2819,-3.2447,-3.1296,-3.2415,-3.3442,-3.405,-3.4308,-3.4649,-3.5141,-3.5127,-3.5057,-3.4965,-3.4927,-3.4888,-3.4829,-3.4768,-3.4666,-3.4561,-3.4363,-3.4269,-3.4269,-3.4074,-3.3998,-3.3928,-3.3185,-3.3195,-3.3634,-3.2517,-3.2411,-3.2809,-3.1936,-3.2044,-3.2616,-3.2004,-3.2257,-3.2766,0.0,0.0,0.0,0.0,0.0,0.0,0.0,0.0,0.0,0.0,0.0,0.0,0.0,0.0,0.0,0.0,0.0,0.0,0.0,0.0,-2.2233,-2.3265,-2.4857,-2.5842,-2.6196,-2.669,-2.7151,-2.7444,-2.7434,-2.7993,-2.9142,-2.9905,-3.1031,-3.2474,-3.3491,-3.4211,-3.4623,-3.4072,-3.4055,-3.4146,-3.1724,-3.0787,-3.0501,-2.7442,-2.4874,0.0,0.0,0.0,0.0,0.0,-1.9307,-1.8938,-1.9023,-1.8801,-1.8254,-1.7023,-1.8045,-2.0469,-2.4606,-2.7964,-3.1388,-3.574,-3.7279,-3.8241,-4.0212,-3.9346,-3.7931,-3.7377,-3.4707,-3.1867,-2.9871,-3.0152,-3.032,-2.9135,-3.0833,-3.2528,-3.3122,-3.2925,-3.2746,-3.2831,-3.2938,-3.2557,-3.1388,-3.2218,-3.3034,-3.3556,-3.4106,-3.4601,-3.5037,-3.5039,-3.5002,-3.4887,-3.4907,-3.4849,-3.4768,-3.4687,-3.443,-3.3975,-3.412,-3.4048,-3.377,-3.3894,-3.3921,-3.3876,-3.314,-3.3131,-3.3578,-3.269,-3.2469,-3.2601,-3.1911,-3.1857,-3.2176,-3.1852,-3.2176,-3.2703,0.0,0.0,0.0,0.0,0.0,0.0,0.0,0.0,0.0,0.0,0.0,0.0,0.0,0.0,0.0,0.0,0.0,0.0,0.0,0.0,0.0,-2.1744,-2.2006,-2.2463,-2.3242,-2.343,-2.3891,-2.4641,-2.4641,-2.539,-2.6835,-2.7603,-2.8423,-2.928,-3.0743,-3.1422,-3.1462,-3.1342,-3.0832,-2.9897,-2.7493,-2.6286,-2.5595,-2.2564,0.0,0.0,0.0,0.0,0.0,0.0,-1.7415,-1.7574,-1.7719,-1.7892,-1.8249,-1.9161,-2.0069,-2.2243,-2.8914,-3.1479,-3.3271,-3.7519,-3.8568,-3.8786,-3.9648,-3.8432,-3.7087,-3.6902,-3.3495,-3.0243,-2.9287,-2.8461,-2.7422,-2.5861,-2.7139,-2.8922,-3.0609,-3.0225,-3.0938,-3.4119,-3.3763,-3.3199,-3.3062,-3.2993,-3.2894,-3.2771,-3.4232,-3.5086,-3.5001,-3.4927,-3.4887,-3.4887,-3.4887,-3.4848,-3.4706,-3.4586,-3.4023,-3.3008,-3.377,-3.3733,-3.3027,-3.3515,-3.3778,-3.3868,-3.3512,-3.3437,-3.3616,-3.3408,-3.2744,-3.1881,-3.2155,-3.1608,-3.0801,-3.1937,-3.2246,-3.2085,0.0,0.0,0.0,0.0,0.0,0.0,0.0,0.0,0.0,0.0,0.0,0.0,0.0,0.0,0.0,0.0,0.0,0.0,0.0,0.0,0.0,0.0,0.0,0.0,0.0,0.0,0.0,0.0,0.0,-2.4016,-2.4409,-2.4581,-2.5426,-2.6746,-2.7139,-2.7601,-2.8099,-2.752,-2.7406,-2.743,0.0,-2.451,-2.4769,0.0,0.0,0.0,0.0,0.0,0.0,0.0,-1.8259,-1.9716,-2.0986,-2.1474,-2.1913,-2.3488,-2.4982,-2.7062,-3.1366,-3.4139,-3.6377,-3.8797,-3.9427,-3.9375,-3.9002,-3.7577,-3.5564,-3.2962,-2.9541,-2.6339,-2.416,-2.4101,-2.4682,-2.5539,-2.8193,-3.0743,-3.2465,-3.3054,-3.3604,-3.4406,-3.4251,-3.4042,-3.3913,-3.3733,-3.3605,-3.3527,-3.3927,-3.439,-3.4908,-3.4907,-3.4868,-3.4827,-3.4827,-3.4768,-3.4623,-3.3874,-3.331,-3.299,-3.3213,-3.3194,-3.3008,-3.2926,-3.3246,-3.377,-3.2883,-3.2534,-3.2573,-3.2534,-3.1988,-3.1192,-3.0649,-3.103,-3.1846,-3.1583,-3.2238,-3.3239,0.0,0.0,0.0,0.0,0.0,0.0,0.0,0.0,0.0,0.0,0.0,0.0,0.0,0.0,0.0,0.0,0.0,0.0,0.0,0.0,0.0,0.0,0.0,0.0,0.0,0.0,0.0,0.0,0.0,0.0,0.0,-2.1964,-2.2607,-2.3807,-2.4105,-2.451,-2.4906,-2.4426,0.0,0.0,0.0,0.0,0.0,0.0,0.0,0.0,0.0,0.0,0.0,0.0,0.0,-2.2125,-2.3793,-2.4724,-2.5607,-2.7743,-2.9303,-3.1083,-3.4507,-3.6512,-3.7964,-3.9359,-3.9455,-3.8717,-3.6752,-3.5261,-3.3296,-2.9801,-2.6376,-2.3547,-2.2073,-2.2204,-2.2715,-2.3319,-2.5984,-2.886,-3.1332,-3.24,-3.3614,-3.547,-3.5551,-3.5568,-3.5879,-3.5383,-3.5007,-3.4902,-3.4542,-3.449,-3.4888,-3.4887,-3.4887,-3.4848,-3.443,-3.399,-3.3449,-3.2829,-3.2515,-3.247,-3.2823,-3.2966,-3.2913,-3.3066,-3.3156,-3.3149,-3.2492,-3.2027,-3.171,-3.1701,-3.1229,-3.0476,-3.0049,-3.0264,-3.0763,-3.0732,-3.1558,-3.2719,0.0,0.0,0.0,0.0,0.0,0.0,0.0,0.0,0.0,0.0,-1.8151,0.0,0.0,0.0,0.0,0.0,0.0,0.0,0.0,0.0,0.0,0.0,0.0,0.0,0.0,0.0,0.0,0.0,0.0,0.0,0.0,0.0,0.0,0.0,0.0,0.0,0.0,0.0,0.0,0.0,0.0,0.0,0.0,0.0,0.0,0.0,0.0,0.0,0.0,0.0,-2.4043,-2.47,-2.6381,-2.7846,-2.9419,-3.1867,-3.304,-3.4281,-3.7704,-3.8471,-3.853,-3.946,-3.8827,-3.7118,-3.3818,-3.2299,-3.056,-2.6967,-2.3952,-2.1869,-2.1525,-2.1551,-2.1501,-2.1093,-2.3026,-2.581,-2.9341,-3.0602,-3.2619,-3.6551,-3.6783,-3.6922,-3.7684,-3.6857,-3.6153,-3.5817,-3.5172,-3.4832,-3.4907,-3.4793,-3.4717,-3.4678,-3.3881,-3.3023,-3.2123,-3.1812,-3.1634,-3.1634,-3.2451,-3.2771,-3.2668,-3.3327,-3.3176,-3.2383,-3.2155,-3.1637,-3.0929,-3.0849,-3.0396,-2.9722,-2.978,-2.946,-2.9065,-2.9917,-3.0796,-3.1678,0.0,0.0,0.0,0.0,0.0,0.0,0.0,0.0,0.0,0.0,-1.813,-1.8211,0.0,0.0,0.0,0.0,0.0,0.0,0.0,0.0,0.0,0.0,0.0,0.0,0.0,0.0,0.0,0.0,0.0,0.0,0.0,0.0,0.0,0.0,0.0,0.0,0.0,0.0,0.0,0.0,0.0,0.0,0.0,0.0,0.0,0.0,0.0,0.0,0.0,0.0,-2.5736,-2.7343,-2.9091,-3.1311,-3.3684,-3.5638,-3.5791,-3.6073,-3.946,-3.9374,-3.853,-3.948,-3.7471,-3.4569,-3.1877,-3.0063,0.0,-2.3552,-2.2781,-2.2232,-2.0118,-2.0323,-2.1443,-2.3418,-2.4718,-2.6922,-3.107,-3.2391,-3.3746,-3.5872,-3.5882,-3.5755,-3.5854,-3.5452,-3.4585,-3.3182,-3.3563,-3.415,-3.4849,-3.4225,-3.3732,-3.351,-3.329,-3.3026,-3.2739,-3.1467,-3.082,-3.0838,-3.1615,-3.1936,-3.1837,-3.2507,-3.2672,-3.2347,-3.1574,-3.0776,-3.0015,-3.0015,-2.9536,-2.883,-2.8855,-2.9239,-2.9885,-3.0713,-3.1594,-3.2522,0.0,0.0,0.0,0.0,0.0,0.0,0.0,-1.765,-1.7983,-1.8087,-1.7807,-1.759,-1.7631,-1.7706,-1.7489,0.0,0.0,0.0,0.0,0.0,0.0,0.0,0.0,0.0,0.0,0.0,0.0,0.0,0.0,0.0,0.0,0.0,0.0,0.0,0.0,0.0,0.0,0.0,0.0,0.0,0.0,0.0,0.0,0.0,0.0,0.0,0.0,0.0,0.0,0.0,-2.5437,-2.8164,-3.0821,-3.2937,-3.4788,-3.6578,-3.7139,-3.7597,-3.9635,-3.9287,-3.8355,-3.8355,-3.611,-3.2775,-2.8402,0.0,0.0,-2.0756,-2.0853,-2.1282,-1.9617,-2.0006,-2.0985,-2.2182,-2.3859,-2.6204,-2.9581,-3.1597,-3.3507,-3.5657,-3.5631,-3.5604,-3.6029,-3.5365,-3.4585,-3.3807,-3.4093,-3.4283,-3.4283,-3.4205,-3.3857,-3.3172,-3.2717,-3.2404,-3.2284,-3.1166,-3.082,-3.1225,-3.1615,-3.1913,-3.2121,-3.2438,-3.2491,-3.2256,-3.1374,-3.0532,-2.9779,-2.9355,-2.8956,-2.8612,-2.8662,-2.8973,-2.9466,-3.0344,-3.1224,-3.2082,0.0,0.0,0.0,0.0,0.0,0.0,0.0,-1.7394,-1.7783,-1.7889,-1.7356,-1.6861,-1.6574,-1.7168,-1.7124,0.0,0.0,0.0,0.0,0.0,0.0,0.0,0.0,0.0,0.0,0.0,0.0,-1.7435,0.0,0.0,0.0,0.0,0.0,0.0,-1.8824,0.0,0.0,0.0,0.0,0.0,0.0,0.0,0.0,0.0,0.0,0.0,0.0,0.0,0.0,0.0,-2.4286,-2.7102,-3.0113,-3.2387,-3.4235,-3.5793,-3.6878,-3.7821,-3.9005,-3.8734,-3.7927,-3.7065,-3.48,-3.1285,-2.5603,-2.4745,-2.3764,-1.8896,-1.9331,-2.0288,-1.9212,-1.9573,-2.0092,-2.0211,-2.1968,-2.4333,-2.7256,-2.9733,-3.2201,-3.4711,-3.5068,-3.5316,-3.5803,-3.5255,-3.4699,-3.4242,-3.449,-3.4282,-3.3449,-3.4012,-3.3902,-3.284,-3.2184,-3.1875,-3.195,-3.0887,-3.0838,-3.1782,-3.1782,-3.207,-3.2614,-3.2797,-3.2529,-3.1908,-3.1455,-3.0695,-2.9753,-2.93,-2.9029,-2.8866,-2.8991,-2.9059,-2.915,-3.0058,-3.0913,-3.1719,0.0,0.0,0.0,0.0,0.0,0.0,0.0,-1.6993,-1.6872,-1.6993,-1.6963,-1.6365,-1.4894,-1.5021,-1.5207,0.0,0.0,0.0,0.0,0.0,0.0,0.0,0.0,0.0,0.0,0.0,0.0,-1.7576,-1.8414,0.0,0.0,0.0,0.0,0.0,0.0,-1.8788,-1.8788,0.0,0.0,0.0,0.0,0.0,0.0,0.0,0.0,0.0,0.0,0.0,0.0,0.0,0.0,-2.3231,-2.4645,-2.8291,-3.2232,-3.3189,0.0,0.0,-3.7773,-3.784,-3.7025,-3.6212,-3.351,-2.9863,-2.5403,0.0,-2.2296,-1.8656,-1.9333,-2.0093,-1.8434,-1.8174,-1.8503,-1.9277,-1.9609,-2.1208,-2.5359,-2.7452,-2.946,-3.1887,-3.3388,-3.3916,-3.3149,-3.4181,-3.3998,-3.1792,-3.3045,-3.3467,-3.2487,-3.2945,-3.2851,-3.1942,-3.1728,-3.1996,-3.2784,-3.0609,-3.0281,-3.1782,-3.1782,-3.207,-3.2632,-3.3366,-3.273,-3.1148,-3.1799,-3.122,-2.987,-3.0496,-3.0351,-2.9707,-2.9777,-2.9802,-2.9893,-3.0771,-3.1618,-3.242,0.0,0.0,0.0,0.0,0.0,0.0,-1.7337,-1.7361,-1.7241,-1.6946,-1.6404,-1.5649,-1.46,-1.4127,-1.3972,-1.4183,0.0,0.0,0.0,0.0,0.0,0.0,0.0,0.0,0.0,0.0,-1.7223,-1.6815,-1.7185,0.0,0.0,0.0,0.0,0.0,0.0,-1.8039,-1.8075,0.0,0.0,0.0,0.0,0.0,0.0,0.0,0.0,0.0,0.0,0.0,-2.0025,0.0,0.0,0.0,-2.1801,-2.3597,0.0,0.0,-3.1441,-3.3488,-3.6085,-3.6589,-3.6162,-3.533,-3.1759,-2.759,-2.4349,0.0,-2.0898,-1.8415,-1.9335,-2.0069,-1.8314,-1.8429,-1.839,-1.7143,0.0,0.0,-2.3047,-2.5244,-2.7918,-3.139,-3.2232,-3.2768,-3.3353,-3.3878,-3.3979,-3.3486,-3.3673,-3.3771,-3.375,-3.3824,-3.3417,-3.2366,-3.2342,-3.2484,-3.2847,-3.1978,-3.1875,-3.2507,-3.2507,-3.2532,-3.2614,-3.3022,-3.292,-3.2433,-3.2365,-3.1901,-3.122,-3.1057,-3.0514,-2.9852,-3.0412,-3.0348,-3.0057,-3.1401,-3.2119,-3.2502,0.0,0.0,0.0,0.0,0.0,-1.685,-1.7216,-1.7336,-1.7265,-1.6946,-1.6319,-1.5609,-1.4811,-1.4347,-1.4032,-1.3803,-1.4705,0.0,0.0,0.0,0.0,0.0,0.0,0.0,0.0,0.0,-1.7011,-1.6287,-1.66,-1.6524,0.0,0.0,-1.6574,-1.6874,0.0,0.0,0.0,0.0,0.0,0.0,0.0,0.0,0.0,0.0,0.0,0.0,0.0,0.0,0.0,0.0,0.0,0.0,0.0,0.0,0.0,0.0,-2.8194,-3.0582,-3.3195,-3.4318,-3.4542,-3.3684,-3.0161,-2.6179,0.0,0.0,-2.0096,-1.831,-1.9342,-2.015,-1.8666,-1.888,-1.8528,0.0,0.0,-2.0717,-2.1024,-2.3488,-2.6393,-2.955,-3.0009,-3.0781,-3.2599,-3.3351,-3.4055,-3.4832,-3.4452,-3.4302,-3.4651,-3.4561,-3.3873,-3.2508,-3.2225,-3.2342,-3.2847,-3.2479,-3.2637,-3.3343,-3.3101,-3.3,-3.3015,-3.3098,-3.3146,-3.3099,-3.2611,-3.2174,-3.1799,-3.122,-3.0659,-3.0232,-3.0866,-3.0884,-3.0739,-3.192,-3.2529,-3.2774,0.0,0.0,0.0,0.0,0.0,0.0,-1.6942,-1.6656,-1.6524,-1.687,-1.6891,-1.6465,-1.5313,-1.5846,-1.5714,-1.4316,-1.4516,0.0,0.0,0.0,0.0,0.0,0.0,0.0,0.0,0.0,-1.7099,-1.6303,-1.7099,-1.6708,-1.5228,-1.6029,-1.6794,-1.7471,0.0,0.0,0.0,0.0,0.0,0.0,0.0,0.0,0.0,0.0,0.0,0.0,0.0,0.0,0.0,0.0,0.0,0.0,0.0,0.0,0.0,0.0,-2.4196,-2.6142,-2.8759,-3.0727,-3.1856,-3.1036,-2.8844,-2.6012,-2.2586,-2.1172,-2.0104,-1.8356,-1.9391,-2.0332,-1.9453,-1.9294,-1.8723,-1.6969,-1.8884,0.0,-1.9451,-2.2263,-2.4665,-2.5385,-2.6226,-2.7637,-2.9927,-3.2353,-3.411,-3.4832,-3.4945,-3.487,-3.4604,-3.4666,-3.3851,-3.1968,-3.0932,-3.1238,-3.2971,-3.1411,-3.1819,-3.4179,-3.338,-3.3345,-3.3998,-3.3998,-3.3401,-3.2402,-3.2383,-3.1865,-3.1003,-3.0985,-3.0985,-3.1012,-3.1084,-3.1547,-3.218,-3.2254,-3.2762,-3.3393,0.0,0.0,0.0,0.0,0.0,0.0,0.0,-1.6995,-1.7009,-1.6783,-1.6733,-1.6298,-1.5237,-1.5433,-1.5408,-1.4944,-1.4934,0.0,0.0,0.0,0.0,0.0,0.0,0.0,0.0,0.0,-1.6319,-1.554,-1.5256,-1.4879,-1.4442,-1.4659,-1.4938,-1.526,-1.552,-1.5773,0.0,0.0,0.0,0.0,0.0,0.0,0.0,0.0,0.0,0.0,0.0,0.0,0.0,0.0,0.0,0.0,0.0,0.0,0.0,0.0,0.0,0.0,-2.5363,-2.6312,-2.6684,-2.6421,-2.3991,-2.1347,-2.0266,-1.9379,-1.8611,-1.8108,-1.8913,-1.945,-1.857,-1.8904,-1.8729,-1.699,-1.8886,0.0,-2.0227,-2.2491,-2.5118,-2.7566,-3.0496,-3.2594,-3.3318,-3.4093,-3.4908,-3.5723,-3.5818,-3.572,-3.5496,-3.4905,-3.4229,-3.3486,-3.3213,-3.3324,-3.3833,-3.33,-3.3436,-3.4197,-3.3937,-3.3864,-3.3998,-3.4099,-3.3555,-3.2543,-3.2621,-3.2085,-3.1146,-3.1243,-3.1224,-3.1182,-3.1765,-3.2101,-3.2337,-3.2842,-3.3234,-3.3481,0.0,0.0,0.0,0.0,0.0,0.0,0.0,-1.7175,-1.7243,-1.7064,-1.6992,-1.6692,-1.5893,-1.594,-1.589,-1.561,-1.5387,0.0,0.0,0.0,0.0,0.0,0.0,0.0,0.0,-1.6112,-1.5582,-1.5121,-1.4612,-1.427,-1.4016,-1.398,-1.4325,-1.4999,-1.4863,-1.5151,0.0,0.0,0.0,0.0,0.0,0.0,-1.9167,0.0,0.0,0.0,0.0,0.0,0.0,0.0,0.0,0.0,0.0,0.0,0.0,0.0,-1.8071,-1.9803,0.0,-2.3091,-2.3329,-2.3342,-2.127,0.0,-1.8823,-1.8063,-1.7552,-1.7919,-1.8687,-1.9229,-1.9015,-1.9411,-1.9433,-1.8358,-2.0064,-2.1533,-2.1475,-2.3554,-2.5946,-2.827,-3.1564,-3.3636,-3.3545,-3.4433,-3.521,-3.5665,-3.5723,-3.5645,-3.5482,-3.4929,-3.4817,-3.5256,-3.4003,-3.3454,-3.374,-3.3746,-3.39,-3.4197,-3.4197,-3.4148,-3.4074,-3.4173,-3.3796,-3.3096,-3.257,-3.1937,0.0,-3.1047,-3.1078,-3.1393,-3.2519,-3.3095,-3.3414,-3.4196,-3.4316,-3.4108,0.0,0.0,0.0,0.0,0.0,0.0,0.0,-1.7224,-1.7248,-1.7566,-1.7612,-1.7455,-1.7093,-1.7167,-1.6952,-1.6203,-1.5812,0.0,0.0,0.0,0.0,0.0,0.0,0.0,-1.7132,-1.5729,-1.4974,-1.4924,-1.4921,-1.457,-1.3903,-1.3894,-1.4697,-1.6073,-1.4648,-1.484,0.0,0.0,0.0,0.0,0.0,0.0,0.0,0.0,0.0,0.0,0.0,0.0,0.0,0.0,0.0,0.0,0.0,0.0,0.0,0.0,0.0,0.0,0.0,-2.0774,-2.1351,-2.1411,-2.022,-1.8804,-1.7991,-1.7285,0.0,-1.7758,-1.8642,-1.9522,-2.0286,-2.0521,-2.0601,-2.0605,-2.2009,-2.3069,-2.2996,-2.5264,-2.7196,-2.7886,-3.0272,-3.1713,-3.1336,-3.3669,-3.5147,-3.5001,-3.504,-3.5059,-3.4958,-3.4977,-3.5571,-3.6873,-3.3706,-3.2405,-3.325,-3.3213,-3.3491,-3.4104,-3.4104,-3.4067,-3.403,-3.403,-3.3957,-3.3765,-3.2194,-3.1439,-3.1262,-3.0533,-3.0698,-3.1574,-3.3254,-3.433,-3.5119,-3.5983,-3.5781,-3.5183,0.0,0.0,0.0,0.0,0.0,0.0,0.0,0.0,0.0,0.0,-1.7794,-1.7726,-1.7415,-1.7635,-1.7204,0.0,0.0,0.0,0.0,0.0,0.0,0.0,0.0,0.0,-1.5553,-1.5185,-1.4728,-1.4151,-1.4167,-1.4076,-1.3909,-1.3891,-1.4129,-1.4541,-1.4214,-1.4333,0.0,0.0,0.0,0.0,0.0,0.0,0.0,0.0,0.0,0.0,-2.0007,-2.004,0.0,0.0,0.0,0.0,0.0,0.0,0.0,0.0,-1.6313,-1.6475,-1.7282,0.0,-1.7791,-1.781,-1.7519,-1.6991,0.0,0.0,0.0,0.0,0.0,-1.9159,-1.8706,-1.9701,-2.0599,-2.0601,-2.201,-2.3279,-2.3759,-2.6928,-2.9314,-2.9531,-3.2365,-3.3508,-3.1561,-3.3661,-3.5321,-3.5776,-3.6422,-3.6761,-3.6651,-3.6588,-3.6385,-3.6021,-3.5088,-3.5014,-3.5813,-3.5219,-3.4346,-3.3268,-3.3268,-3.2953,-3.2358,-3.2358,-3.2358,-3.2256,-3.1277,-3.0765,-3.0632,-3.0539,-3.0927,-3.1703,-3.3345,-3.4392,-3.5119,-3.5983,-3.613,-3.5964,0.0,0.0,0.0,0.0,0.0,0.0,0.0,0.0,0.0,0.0,-1.7687,-1.7618,-1.7408,-1.7612,-1.7384,0.0,0.0,0.0,0.0,0.0,0.0,0.0,0.0,-1.5941,-1.5469,-1.477,-1.4226,-1.3888,-1.39,-1.3894,-1.3906,-1.3938,-1.4158,-1.4556,-1.4617,-1.4504,-1.4335,0.0,0.0,0.0,-1.8302,0.0,0.0,0.0,0.0,0.0,-2.0069,-1.9877,0.0,-1.9162,-1.8529,-1.7762,0.0,0.0,0.0,0.0,-1.6021,-1.6087,-1.6493,-1.6303,-1.5997,-1.6004,-1.6004,-1.5896,-1.5493,0.0,0.0,0.0,0.0,-1.8671,-1.8612,-2.001,-2.1274,-2.1686,-2.314,-2.4756,-2.6228,-2.7885,-2.9683,-3.1707,-3.2898,-3.358,-3.3675,-3.4945,-3.585,-3.608,-3.6513,-3.6887,-3.7171,-3.637,-3.5998,-3.624,-3.5758,-3.5516,-3.5535,-3.5516,-3.4829,-3.3547,-3.3175,-3.2767,-3.234,-3.234,-3.2135,-3.1782,-3.1727,-3.124,-3.0565,-3.137,-3.1908,-3.2432,-3.4451,-3.5676,-3.6436,-3.7267,-3.7322,-3.7045,0.0,0.0,0.0,0.0,0.0,0.0,0.0,0.0,0.0,0.0,0.0,0.0,0.0,0.0,0.0,0.0,0.0,0.0,0.0,0.0,0.0,0.0,0.0,-1.5089,-1.5645,-1.4374,-1.3776,-1.3903,-1.3912,-1.3909,-1.3891,-1.3955,-1.4338,-1.5003,-1.508,-1.4845,-1.4467,-1.5352,-1.5885,-1.6312,-1.7745,0.0,0.0,0.0,0.0,0.0,0.0,0.0,0.0,-1.8982,-1.7893,-1.6513,-1.6499,0.0,0.0,0.0,0.0,0.0,-1.6202,-1.606,-1.5664,-1.5528,-1.5504,-1.5478,-1.542,0.0,0.0,0.0,0.0,-1.8613,-1.9354,-2.0762,-2.2137,-2.3129,-2.4904,-2.7048,-2.9633,-2.9328,-3.0166,-3.3707,-3.3256,-3.3557,-3.5859,-3.6329,-3.6509,-3.6499,-3.6168,-3.6387,-3.7322,-3.5646,-3.5292,-3.6664,-3.5926,-3.507,-3.4197,-3.4922,-3.4922,-3.4179,-3.3138,-3.2692,-3.2804,-3.2804,-3.2507,-3.2005,-3.2692,-3.2228,-3.1058,-3.2432,-3.3064,-3.3417,-3.5776,-3.7188,-3.7959,-3.8804,-3.8674,-3.8164,0.0,0.0,0.0,0.0,0.0,0.0,0.0,0.0,0.0,0.0,0.0,0.0,0.0,0.0,0.0,0.0,0.0,0.0,0.0,0.0,0.0,-1.4843,-1.4882,-1.4653,-1.416,-1.3916,-1.3821,-1.3909,-1.39,-1.3903,-1.3903,-1.3838,-1.3923,-1.4091,-1.4242,-1.4666,-1.5352,-1.6287,-1.7154,-1.795,-1.8329,0.0,0.0,0.0,0.0,0.0,0.0,0.0,0.0,-1.825,-1.7374,-1.6468,-1.5802,0.0,0.0,0.0,0.0,0.0,-1.5453,-1.6474,-1.7329,-1.6588,-1.6406,-1.6226,-1.5544,0.0,0.0,0.0,0.0,0.0,-2.03,-2.1182,-2.2397,-2.3937,-2.6713,-2.9794,-3.3062,-3.3861,-3.417,-3.426,-3.59,-3.64,-3.4783,-3.5764,-3.7005,-3.8211,-3.675,-3.6506,-3.8042,-3.6419,-3.5557,-3.5866,-3.5609,-3.507,-3.4197,-3.4327,-3.4327,-3.416,-3.1987,-3.134,-3.1968,-3.1968,-3.2284,-3.2804,-3.2934,-3.286,-3.2637,-3.2897,-3.3398,-3.4179,-3.5999,-3.718,-3.7942,-3.8776,-3.8971,-3.884,0.0,0.0,0.0,0.0,0.0,0.0,0.0,0.0,0.0,0.0,0.0,0.0,0.0,0.0,0.0,0.0,0.0,0.0,0.0,0.0,0.0,-1.3939,-1.4109,-1.4225,-1.4293,-1.3862,-1.3717,-1.3897,-1.3826,-1.3811,-1.3841,-1.3856,-1.39,-1.4002,-1.4074,-1.4665,-1.5671,-1.6568,-1.7527,-1.8454,0.0,0.0,0.0,0.0,0.0,0.0,0.0,0.0,0.0,0.0,-1.6583,-1.5827,-1.5458,0.0,0.0,0.0,0.0,0.0,-1.5306,-1.5885,-1.6632,-1.7167,-1.8017,-1.862,-1.8232,0.0,0.0,0.0,0.0,0.0,0.0,-2.2677,-2.505,-2.8521,-2.9611,-3.1033,-3.3935,-3.3878,-3.407,-3.557,-3.5932,-3.6265,-3.6795,-3.6946,-3.7262,-3.7816,-3.6498,-3.6208,-3.7448,-3.5837,-3.5118,-3.5584,-3.5082,-3.4829,-3.4903,-3.3993,-3.377,-3.4179,-3.2618,-3.208,-3.2451,-3.2451,-3.2395,-3.2349,-3.3268,-3.3091,-3.2321,-3.3215,-3.4068,-3.4907,-3.611,-3.7331,-3.845,-3.8887,-3.9064,-3.9064,0.0,0.0,0.0,0.0,0.0,0.0,0.0,0.0,0.0,0.0,0.0,0.0,0.0,0.0,0.0,0.0,0.0,0.0,0.0,0.0,-1.3396,-1.3462,-1.3529,-1.3835,-1.4435,-1.3835,-1.3624,-1.3859,-1.3733,-1.3702,-1.3748,-1.3841,-1.393,-1.404,-1.4114,-1.4826,-1.601,-1.6712,-1.7683,-1.8796,0.0,0.0,0.0,0.0,0.0,0.0,0.0,0.0,0.0,0.0,0.0,0.0,0.0,0.0,0.0,-1.5303,-1.5303,-1.5299,-1.5295,-1.5602,-1.6227,-1.7573,-1.8751,0.0,0.0,0.0,0.0,0.0,0.0,0.0,-2.2008,-2.4187,-2.7229,-3.1274,-3.1742,-3.2463,-3.4936,-3.4395,-3.4776,-3.7559,-3.6523,-3.653,-3.8888,-3.7941,-3.7204,-3.7222,-3.5984,-3.5609,-3.6479,-3.5256,-3.4766,-3.5163,-3.4736,-3.4717,-3.5182,-3.3918,-3.3677,-3.4494,-3.3287,-3.2915,-3.3268,-3.3268,-3.2911,-3.2339,-3.3833,-3.3605,-3.2262,-3.3549,-3.4567,-3.5365,-3.5992,-3.7193,-3.8644,-3.8701,-3.8897,-3.9101,0.0,0.0,0.0,0.0,0.0,0.0,0.0,0.0,0.0,0.0,0.0,0.0,0.0,0.0,0.0,0.0,0.0,0.0,0.0,0.0,-1.3329,-1.3412,-1.3396,-1.3496,-1.3675,-1.3624,-1.3638,-1.3717,-1.3653,-1.3624,-1.3627,-1.3746,-1.3818,-1.3833,-1.4145,-1.5197,-1.673,-1.6925,-1.799,-1.9448,-1.8763,0.0,0.0,0.0,0.0,0.0,0.0,0.0,0.0,0.0,0.0,0.0,0.0,0.0,-1.5298,-1.5293,-1.5291,-1.5292,-1.5295,-1.6475,-1.7742,-1.7872,-1.7381,0.0,-1.9944,-2.0508,0.0,-2.1477,0.0,0.0,0.0,-2.505,-2.7171,-2.827,-3.1695,-3.5087,-3.7588,-3.8528,-3.9359,-4.0404,-3.9707,-3.9224,-3.9444,-3.7536,-3.6651,-3.749,-3.548,-3.4637,-3.5634,-3.546,-3.5002,-3.4309,-3.5014,-3.5033,-3.429,-3.416,-3.455,-3.5367,-3.3008,-3.2655,-3.4104,-3.4104,-3.4061,-3.3969,-3.4921,-3.4759,-3.3832,-3.3961,-3.4515,-3.5317,-3.5373,-3.6416,-3.7877,-3.7877,-3.8396,-3.9101,0.0,0.0,0.0,0.0,0.0,0.0,0.0,0.0,0.0,0.0,0.0,0.0,0.0,0.0,0.0,0.0,0.0,0.0,0.0,-1.3681,-1.3295,-1.3396,-1.3396,-1.3462,-1.3605,-1.351,-1.3511,-1.3593,-1.3511,-1.3544,-1.3657,-1.3715,-1.3845,-1.4056,-1.4214,-1.5001,-1.6207,-1.6812,-1.7764,-1.8862,-1.9119,-1.8777,0.0,0.0,0.0,0.0,0.0,0.0,0.0,0.0,-1.5545,-1.5236,-1.5251,-1.5284,-1.5293,-1.5302,-1.5299,-1.5292,-1.5295,-1.6564,-1.802,-1.8575,-1.8862,0.0,0.0,-2.247,-2.2816,-2.2639,-2.4764,0.0,0.0,-2.7836,-2.9477,-3.0326,-3.2694,-3.5143,-3.7116,-3.8141,-3.8818,-3.9146,-3.8895,-3.8588,-3.8351,-3.7465,-3.6708,-3.6254,-3.5429,-3.4803,-3.4624,-3.4631,-3.4507,-3.4216,-3.4513,-3.4531,-3.4197,-3.4197,-3.4364,-3.468,-3.3733,-3.3603,-3.4197,-3.4197,-3.4148,-3.4067,-3.4451,-3.4319,-3.3868,-3.3921,-3.4392,-3.5174,-3.5708,-3.6362,-3.7063,-3.7563,-3.7961,-3.835,0.0,0.0,0.0,0.0,0.0,0.0,0.0,0.0,0.0,0.0,0.0,0.0,0.0,0.0,0.0,0.0,0.0,0.0,-1.4368,-1.3646,-1.3244,-1.3379,-1.343,-1.3479,-1.3605,-1.351,-1.3496,-1.3528,-1.3446,-1.3495,-1.3702,-1.3761,-1.3934,-1.4193,-1.4574,-1.5282,-1.6245,-1.7108,-1.7814,-1.8447,-1.9298,-1.8808,0.0,0.0,0.0,0.0,0.0,0.0,0.0,0.0,-1.5236,-1.5215,-1.5255,-1.527,-1.5308,-1.5302,-1.5695,-1.6122,-1.6118,-1.7194,-1.8528,-1.9391,0.0,0.0,-2.2959,-2.3868,-2.4274,-2.4265,-2.6088,-2.7765,-2.8048,-2.9477,-3.081,-3.14,-3.3363,-3.53,-3.669,-3.7406,-3.7889,-3.8179,-3.7943,-3.7662,-3.7405,-3.6878,-3.6193,-3.5287,-3.5101,-3.4735,-3.4086,-3.4383,-3.4451,-3.4197,-3.4457,-3.4476,-3.4197,-3.4197,-3.4197,-3.4197,-3.4197,-3.4197,-3.4173,-3.4173,-3.4099,-3.3972,-3.4023,-3.3947,-3.3788,-3.3842,-3.4191,-3.4688,-3.5303,-3.5772,-3.6196,-3.6731,-3.7156,-3.7571,0.0,0.0,0.0,0.0,0.0,0.0,0.0,0.0,0.0,0.0,0.0,0.0,0.0,0.0,0.0,0.0,0.0,0.0,-1.4297,-1.3594,-1.3261,-1.3396,-1.3462,-1.3528,-1.3605,-1.3605,-1.3591,-1.3611,-1.3462,-1.351,-1.3702,-1.3912,-1.4037,-1.4159,-1.5231,-1.6182,-1.7051,-1.7908,-1.8281,-1.8358,-1.9166,-1.9012,-1.8222,0.0,0.0,0.0,0.0,0.0,0.0,0.0,-1.5196,-1.5196,-1.5201,-1.5259,-1.5303,-1.5303,-1.6514,-1.7881,-1.7891,-1.8539,-1.9422,-2.0285,0.0,0.0,-2.373,-2.4274,-2.4718,-2.6476,-2.6818,-2.7074,-2.7948,-2.9477,-3.0597,-3.0598,-3.346,-3.5955,-3.6767,-3.6884,-3.7212,-3.8083,-3.7346,-3.68,-3.6876,-3.5745,-3.4962,-3.4813,-3.4505,-3.4245,-3.4124,-3.4914,-3.5039,-3.4216,-3.5033,-3.507,-3.4216,-3.4197,-3.4197,-3.4197,-3.4197,-3.4173,-3.4099,-3.4099,-3.4023,-3.3895,-3.3895,-3.3868,-3.3807,-3.3807,-3.3807,-3.3807,-3.3868,-3.4463,-3.5299,-3.5317,-3.5895,-3.6798,0.0,0.0,0.0,0.0,0.0,0.0,0.0,0.0,0.0,0.0,0.0,0.0,0.0,0.0,0.0,0.0,0.0,0.0,-1.3524,-1.3309,-1.3261,-1.3396,-1.3413,-1.3528,-1.3731,-1.3821,-1.3761,-1.3544,-1.3542,-1.3682,-1.3912,-1.4082,-1.4531,-1.5231,-1.56,-1.6233,-1.7014,-1.733,-1.7435,-1.7403,-1.7752,-1.7776,-1.7517,0.0,0.0,0.0,0.0,0.0,0.0,0.0,0.0,0.0,-1.5245,-1.526,-1.5241,-1.5289,-1.5679,-1.62,-1.682,-1.852,-2.0305,-2.1134,0.0,0.0,0.0,-2.5634,0.0,0.0,-2.8534,-2.7965,-2.8791,-2.9853,-3.0404,-2.9786,-3.2048,-3.4177,-3.5007,-3.5665,-3.6137,-3.6342,-3.6125,-3.5868,-3.5637,-3.5856,-3.5626,-3.4792,-3.5071,-3.4979,-3.4282,-3.4389,-3.4358,-3.4074,-3.4358,-3.4383,-3.4124,-3.4124,-3.4124,-3.4124,-3.4124,-3.4124,-3.4099,-3.4099,-3.4023,-3.3895,-3.3895,-3.3868,-3.3788,-3.3842,-3.3842,-3.3807,-3.3868,-3.4086,-3.4408,-3.4998,-3.5781,-3.6528,0.0,0.0,0.0,0.0,0.0,0.0,0.0,0.0,0.0,0.0,0.0,0.0,0.0,0.0,0.0,0.0,0.0,0.0,0.0,-1.3209,-1.3261,-1.3396,-1.3445,-1.3606,-1.3865,-1.3923,-1.3909,-1.3789,-1.3786,-1.3888,-1.4078,-1.4154,-1.4723,-1.566,-1.5723,-1.622,-1.6956,-1.7027,-1.6855,-1.6565,-1.6978,-1.7004,-1.6745,0.0,0.0,0.0,0.0,0.0,0.0,0.0,0.0,0.0,-1.524,-1.5255,-1.5386,-1.6114,-1.6588,-1.7193,-1.8761,-2.0577,-2.2298,-2.3493,-2.523,-2.6875,-2.7696,0.0,0.0,0.0,-3.0268,-2.9735,-3.024,-3.1303,-3.1816,-3.0956,-3.2106,-3.3393,-3.4283,-3.4552,-3.4762,-3.5037,-3.5367,-3.5482,-3.5292,-3.5679,-3.5658,-3.4908,-3.4864,-3.4755,-3.4458,-3.3957,-3.382,-3.413,-3.4099,-3.4074,-3.4074,-3.4074,-3.4124,-3.4221,-3.4124,-3.4099,-3.4173,-3.4074,-3.3972,-3.3842,-3.3842,-3.3842,-3.3842,-3.3921,-3.3921,-3.3895,-3.3947,-3.3972,-3.4002,-3.4537,-3.5034,-3.5541,0.0,0.0,0.0,0.0,0.0,0.0,0.0,0.0,0.0,0.0,0.0,0.0,0.0,0.0,0.0,0.0,0.0,0.0,0.0,0.0,-1.3278,-1.3396,-1.3559,-1.3743,-1.3963,-1.3949,-1.4054,-1.4319,-1.4186,-1.4163,-1.4201,-1.4232,-1.4767,-1.5731,-1.5716,-1.62,-1.7014,-1.6933,-1.6479,-1.5882,-1.6601,-1.6541,-1.603,-1.6083,0.0,0.0,0.0,0.0,0.0,0.0,0.0,0.0,-1.5284,-1.5317,-1.5607,-1.721,-1.8341,-1.9616,-2.2088,-2.3505,-2.4744,-2.6549,-2.7682,-2.8555,-2.9341,-2.9511,-2.9908,-3.1304,-3.1642,-3.17,-3.1767,-3.3035,-3.3819,-3.3103,-3.2987,-3.3305,-3.4253,-3.3699,-3.3503,-3.4314,-3.504,-3.5501,-3.5489,-3.5364,-3.5261,-3.5138,-3.4258,-3.4036,-3.4696,-3.3674,-3.3463,-3.4413,-3.4104,-3.3981,-3.4055,-3.4055,-3.4197,-3.4431,-3.4173,-3.4105,-3.4293,-3.4023,-3.3868,-3.3807,-3.3807,-3.3842,-3.3895,-3.3972,-3.3998,-3.3998,-3.4074,-3.4074,-3.3998,-3.3998,-3.4079,-3.4296,0.0,0.0,0.0,0.0,0.0,0.0,0.0,0.0,0.0,0.0,0.0,0.0,0.0,0.0,0.0,0.0,0.0,0.0,0.0,0.0,-1.3362,-1.3396,-1.3671,-1.3809,-1.3774,-1.4046,-1.4544,-1.523,-1.4575,-1.4237,-1.4201,-1.4422,-1.5282,-1.6602,-1.6036,-1.6577,-1.784,-1.6595,-1.5986,-1.5841,-1.5453,-1.563,-1.61,-1.5548,-1.5758,0.0,0.0,0.0,0.0,0.0,0.0,0.0,-1.6006,-1.5796,-1.5367,-1.5743,-1.6958,-1.8441,-1.9706,-2.2158,-2.4805,-2.6562,-2.8658,-3.0333,-3.0467,-3.0458,-3.0312,-2.9998,-3.0414,-3.0868,-3.0878,-3.1159,-3.1565,-3.201,-3.2087,-3.2599,-3.4105,-3.4163,-3.4342,-3.5143,-3.5405,-3.5474,-3.5441,-3.5398,-3.5369,-3.5335,-3.4983,-3.4826,-3.4944,-3.396,-3.3766,-3.4614,-3.3909,-3.3869,-3.4529,-3.4548,-3.4569,-3.4612,-3.4375,-3.4218,-3.4195,-3.4005,-3.3868,-3.3788,-3.386,-3.3895,-3.3895,-3.4023,-3.4049,-3.3998,-3.4074,-3.4074,-3.3998,-3.3998,-3.4415,-3.4905,0.0,0.0,0.0,0.0,0.0,0.0,0.0,0.0,0.0,0.0,0.0,0.0,0.0,0.0,0.0,0.0,0.0,0.0,0.0,0.0,-1.3413,-1.3527,-1.3765,-1.39,-1.3888,-1.4127,-1.4487,-1.4969,-1.4587,-1.4794,-1.5537,-1.5257,-1.5968,-1.7482,-1.6667,-1.6778,-1.75,-1.6275,-1.5579,-1.525,-1.4925,-1.5103,-1.5548,-1.5228,-1.5365,-1.5663,-1.5245,0.0,0.0,0.0,0.0,0.0,0.0,0.0,-1.5454,-1.6308,-1.7176,-1.8324,-2.048,-2.2976,-2.5609,-2.8216,0.0,-3.0836,-3.082,-3.0745,-3.0575,-3.0113,-3.0646,-3.1178,-3.1178,-3.1526,-3.1797,-3.1797,-3.1777,-3.2066,-3.2974,-3.3404,-3.38,-3.4244,-3.5007,-3.532,-3.4817,-3.5115,-3.5192,-3.4808,-3.4661,-3.4751,-3.5117,-3.4163,-3.396,-3.4775,-3.428,-3.424,-3.4653,-3.4674,-3.4754,-3.4832,-3.4553,-3.4375,-3.4189,-3.3954,-3.3842,-3.3842,-3.3868,-3.3947,-3.3998,-3.4074,-3.4074,-3.4049,-3.4099,-3.4049,-3.3947,-3.3947,-3.4215,-3.452,0.0,0.0,0.0,0.0,0.0,0.0,0.0,0.0,0.0,0.0,0.0,0.0,0.0,0.0,0.0,0.0,0.0,0.0,0.0,0.0,0.0,-1.3702,-1.3841,-1.3955,-1.4069,-1.418,-1.4415,-1.4794,-1.4738,-1.5643,-1.7396,-1.6257,-1.6599,-1.8153,-1.7303,-1.6922,-1.688,-1.6073,-1.5314,-1.466,-1.4776,-1.4857,-1.4944,-1.5061,-1.5076,-1.5023,-1.5083,-1.5105,-1.5112,-1.5264,0.0,0.0,0.0,0.0,-1.5588,-1.7039,-1.7629,-1.8483,-2.1589,-2.4098,-2.6622,-2.9863,-3.0758,-3.0829,-3.0816,-3.0771,-3.072,-3.072,-3.1197,-3.1603,-3.1584,-3.2184,-3.2425,-3.169,-3.1534,-3.1551,-3.1765,-3.2432,-3.2981,-3.3179,-3.4558,-3.5114,-3.4183,-3.4697,-3.4759,-3.3949,-3.3978,-3.4342,-3.5081,-3.427,-3.4154,-3.4996,-3.4737,-3.4642,-3.4735,-3.4793,-3.4889,-3.5069,-3.4813,-3.4508,-3.4203,-3.3998,-3.3895,-3.3895,-3.3921,-3.3998,-3.4099,-3.4099,-3.4099,-3.4099,-3.4099,-3.4023,-3.3921,-3.3921,-3.3895,-3.3895,0.0,0.0,0.0,0.0,0.0,0.0,0.0,0.0,0.0,0.0,0.0,0.0,0.0,0.0,0.0,0.0,0.0,0.0,0.0,0.0,0.0,-1.3698,-1.388,-1.397,-1.3934,-1.4172,-1.4976,-1.6399,-1.5817,-1.6751,0.0,0.0,-1.6631,-1.8082,-1.7316,-1.6988,-1.6934,-1.6188,-1.5474,-1.4857,-1.4876,-1.4963,-1.5076,-1.509,-1.509,-1.509,-1.5105,-1.5105,-1.5212,-1.5979,-1.5772,0.0,0.0,0.0,-1.5356,-1.5649,-1.6763,-1.8153,-1.9386,0.0,-2.7285,0.0,-3.0332,-3.0898,-3.0895,-3.083,-3.0798,-3.0798,-3.081,-3.083,-3.0772,-3.0868,-3.0878,-3.0694,-3.0674,-3.0923,-3.1615,-3.2396,-3.3179,-3.3943,-3.4845,-3.5067,-3.4183,-3.4194,-3.393,-3.3114,-3.369,-3.4164,-3.4339,-3.4211,-3.4543,-3.5393,-3.4621,-3.4534,-3.5285,-3.53,-3.532,-3.535,-3.5069,-3.4696,-3.4288,-3.425,-3.4124,-3.3895,-3.4023,-3.4074,-3.4099,-3.4099,-3.4099,-3.4099,-3.4049,-3.3998,-3.3998,-3.3998,-3.3947,-3.3895,0.0,0.0,0.0,0.0,0.0,0.0,0.0,0.0,0.0,0.0,0.0,0.0,0.0,0.0,0.0,0.0,0.0,0.0,0.0,0.0,0.0,-1.3809,-1.397,-1.425,-1.4674,-1.4401,-1.5027,-1.6649,-1.5937,0.0,0.0,-1.7536,-1.7679,0.0,-1.8489,-1.7863,-1.7034,-1.6753,-1.5976,-1.4955,-1.4963,-1.5594,-1.6462,-1.5475,-1.5998,-1.7034,-1.5608,-1.5395,-1.5777,-1.5739,-1.5485,-1.5272,-1.569,0.0,0.0,0.0,-1.6606,-1.8555,-2.1352,-2.3784,-2.6206,0.0,-2.9881,-3.0293,-3.0781,-3.0873,-3.086,-3.0868,-3.0837,-3.0782,-3.0685,-3.0649,-3.0632,-3.0559,-3.052,-3.0607,-3.0929,-3.1648,-3.2314,-3.2692,-3.3876,-3.4141,-3.2785,-3.3499,-3.3485,-3.2149,-3.2867,-3.3374,-3.3407,-3.3434,-3.3588,-3.3983,-3.4059,-3.4275,-3.4625,-3.51,-3.533,-3.533,-3.5155,-3.4925,-3.4676,-3.4502,-3.4269,-3.4023,-3.4074,-3.4124,-3.4148,-3.4148,-3.4124,-3.4099,-3.4023,-3.3998,-3.3998,-3.3921,-3.3895,-3.3895,0.0,0.0,0.0,0.0,0.0,0.0,0.0,0.0,0.0,0.0,0.0,0.0,0.0,0.0,0.0,0.0,0.0,0.0,0.0,0.0,0.0,-1.3918,-1.4225,-1.4667,-1.5264,-1.4976,-1.5504,-1.6908,0.0,0.0,-1.8322,-1.8337,-1.8694,0.0,-1.942,-1.868,-1.7423,-1.73,-1.6507,-1.5353,-1.5594,-1.6498,-1.7605,-1.6745,-1.761,-1.8972,-1.6608,-1.6158,-1.654,-1.5753,-1.5351,-1.5259,-1.5515,-1.5454,0.0,0.0,0.0,-1.8793,-2.2438,0.0,-2.4781,-2.7839,-2.892,-2.9471,-3.037,-3.0742,-3.0898,-3.0898,-3.0891,-3.0866,-3.0771,-3.074,-3.0698,-3.0616,-3.053,-3.0472,-3.0386,-3.1085,-3.1603,-3.161,-3.2889,-3.3283,-3.1957,-3.2747,-3.2828,-3.1551,-3.2077,-3.2474,-3.2483,-3.2689,-3.2804,-3.2795,-3.3647,-3.4069,-3.4021,-3.4894,-3.533,-3.5315,-3.5219,-3.5122,-3.5016,-3.4713,-3.4454,-3.4221,-3.4148,-3.4148,-3.4197,-3.4173,-3.4124,-3.4074,-3.3972,-3.3947,-3.3947,-3.3842,-3.3842,-3.3895,0.0,0.0,0.0,0.0,0.0,0.0,0.0,0.0,0.0,0.0,0.0,0.0,0.0,0.0,-1.2977,-1.3192,0.0,0.0,0.0,0.0,0.0,-1.3984,-1.4719,0.0,-1.5193,-1.6028,-1.6892,0.0,0.0,0.0,-1.9227,-1.9237,-1.9253,-1.9305,-1.9442,-1.9053,-1.8284,0.0,-1.6942,-1.6311,-1.7198,-1.7624,-1.7876,0.0,-2.0147,0.0,-1.8223,-1.758,-1.7497,-1.6567,-1.5778,-1.5342,-1.6179,-1.5913,-1.531,0.0,0.0,0.0,-2.0282,-2.1903,0.0,-2.5427,-2.7104,-2.8515,-2.9455,-3.0308,-3.0898,-3.0898,-3.0895,-3.0894,-3.0886,-3.0847,-3.0755,-3.0632,-3.0546,-3.0452,-3.0309,-3.1046,-3.161,-3.159,-3.2423,-3.2908,-3.2742,-3.2058,-3.1613,-3.1602,-3.1574,-3.1602,-3.1668,-3.239,-3.2799,-3.2799,-3.3651,-3.4107,-3.4087,-3.5018,-3.546,-3.5379,-3.5398,-3.527,-3.5088,-3.487,-3.4711,-3.4561,-3.4293,-3.4197,-3.4197,-3.4074,-3.3998,-3.3998,-3.3842,-3.3842,-3.3895,-3.3834,-3.3842,-3.3895,0.0,0.0,0.0,0.0,0.0,0.0,0.0,0.0,0.0,0.0,0.0,0.0,0.0,-1.285,-1.2997,-1.3244,-1.3396,0.0,0.0,0.0,0.0,-1.476,-1.5531,-1.6237,-1.6788,-1.6671,-1.7237,0.0,0.0,-1.837,-1.9166,-1.9232,-1.9292,-1.9427,-1.9513,-1.9117,-1.8391,-1.8273,-1.7776,-1.7161,-1.8133,-1.9198,-2.0145,0.0,0.0,0.0,-1.9566,-1.8525,-1.8493,-1.8204,-1.7175,-1.6184,-1.7101,-1.6846,-1.6193,-1.6237,-1.6683,-1.7673,0.0,0.0,0.0,-2.4308,-2.5736,-2.6983,-2.8437,-2.9439,-3.0226,-3.0772,-3.0889,-3.0894,-3.0898,-3.0878,-3.0819,-3.063,-3.0591,-3.0519,-3.0383,-3.0611,-3.0778,-3.0772,-3.1546,-3.1826,-3.1257,-3.1416,-3.1353,-3.081,-3.0694,-3.068,-3.0701,-3.0981,-3.1139,-3.1139,-3.1981,-3.2953,-3.4036,-3.4908,-3.5379,-3.5412,-3.5446,-3.5432,-3.5354,-3.5,-3.4831,-3.4771,-3.4367,-3.4197,-3.4197,-3.4148,-3.4124,-3.4124,-3.3972,-3.3998,-3.4074,-3.3921,-3.3895,-3.3947,0.0,0.0,0.0,0.0,0.0,0.0,0.0,0.0,0.0,0.0,0.0,0.0,0.0,0.0,-1.3477,-1.4038,-1.4281,-1.4672,-1.5328,-1.5429,-1.5494,-1.5557,-1.6367,-1.7075,-1.7646,-1.7495,0.0,0.0,0.0,0.0,0.0,-1.9216,-1.9341,-1.9495,-1.9564,-1.9182,0.0,0.0,0.0,-1.7649,-1.9227,-2.0376,-2.1093,0.0,-2.1951,-2.3385,-2.0803,-1.9869,-1.9883,-1.992,-1.8988,-1.7922,-1.8547,-1.8,0.0,0.0,0.0,0.0,-2.0046,0.0,0.0,0.0,-2.3973,-2.491,-2.6954,-2.8323,-2.9418,-3.0274,-3.0691,-3.0892,-3.0898,-3.0898,-3.0843,-3.0652,-3.0626,-3.0591,-3.0472,-3.0417,-3.0352,-3.0333,-3.0842,-3.1072,-3.0772,-3.1002,-3.1034,-3.0765,-3.042,-3.0234,-3.0234,-3.0207,-3.0333,-3.0633,-3.1193,-3.2178,-3.358,-3.4453,-3.4923,-3.4976,-3.5325,-3.5493,-3.5446,-3.5072,-3.4908,-3.487,-3.439,-3.4197,-3.4197,-3.4173,-3.4148,-3.4124,-3.3998,-3.4023,-3.4124,-3.3947,-3.3947,-3.4023,0.0,0.0,0.0,0.0,0.0,0.0,0.0,0.0,0.0,0.0,0.0,0.0,0.0,0.0,0.0,-1.5627,-1.601,-1.6236,-1.6338,-1.6404,-1.6404,-1.6338,0.0,0.0,0.0,0.0,0.0,0.0,0.0,0.0,0.0,0.0,-1.9368,-1.9499,-1.9548,-1.9201,-1.8575,0.0,-1.8317,-1.7791,-2.0537,-2.1085,-2.0565,-2.3197,-2.365,-2.2791,-2.1977,-2.1643,-2.1604,-2.1655,-2.1083,-2.0361,-2.0363,0.0,0.0,0.0,0.0,0.0,0.0,0.0,0.0,0.0,-2.1774,-2.2408,-2.5002,-2.6921,-2.8446,-2.9338,-3.0235,-3.087,-3.0859,-3.0875,-3.085,-3.0723,-3.07,-3.0661,-3.061,-3.0537,-3.0472,-3.0402,-3.0406,-3.0701,-3.15,-3.0797,-3.065,-3.1514,-3.0785,-3.0292,-3.0292,-3.0234,-3.059,-3.1426,-3.1484,-3.1933,-3.2799,-3.3632,-3.4074,-3.4122,-3.5023,-3.5422,-3.536,-3.5035,-3.4908,-3.487,-3.439,-3.4197,-3.4197,-3.4124,-3.4074,-3.3998,-3.3921,-3.3947,-3.3998,-3.3921,-3.3998,-3.4099,0.0,0.0,0.0,0.0,0.0,0.0,-1.2459,-1.293,0.0,0.0,0.0,0.0,0.0,0.0,-1.5539,-1.6546,-1.6412,-1.6517,-1.7065,-1.7205,-1.7239,-1.717,-1.795,-1.8395,-1.8395,0.0,0.0,0.0,0.0,0.0,0.0,0.0,0.0,0.0,-1.9008,-1.8392,-1.7899,-1.9144,0.0,-1.8688,-2.1372,-2.2315,-2.2238,-2.3654,-2.4458,-2.4719,-2.3791,-2.2707,-2.1853,-2.3139,-2.1701,-1.9389,-1.9504,0.0,0.0,0.0,0.0,0.0,-1.9597,0.0,0.0,0.0,0.0,0.0,-2.2447,-2.4225,-2.5904,-2.7405,-2.8882,-2.9883,-2.9899,-3.032,-3.0667,-3.0623,-3.0581,-3.0545,-3.053,-3.0439,-3.0359,-3.0321,-3.0359,-3.0494,-3.0701,-3.0501,-3.0463,-3.0713,-3.0458,-3.0299,-3.0292,-3.024,-3.0314,-3.0543,-3.1174,-3.1924,-3.2799,-3.3048,-3.3498,-3.4172,-3.4449,-3.4471,-3.4339,-3.4715,-3.4831,-3.4668,-3.434,-3.4197,-3.4197,-3.4173,-3.4173,-3.4148,-3.4074,-3.4099,-3.4148,-3.4074,-3.4074,-3.4099,0.0,0.0,0.0,0.0,0.0,-1.2553,-1.2857,-1.3299,-1.3728,0.0,0.0,0.0,0.0,0.0,0.0,-1.7492,-1.7377,-1.7453,-1.7914,-1.7985,-1.8021,-1.8039,-1.8448,-1.8715,-1.8752,-1.8861,0.0,0.0,0.0,0.0,0.0,0.0,0.0,0.0,0.0,0.0,0.0,0.0,0.0,0.0,-2.1575,-2.2577,-2.2357,-2.3693,-2.4316,-2.4449,-2.4269,-2.3564,-2.2963,-2.437,-2.2999,-2.0716,-2.0799,-2.0344,0.0,0.0,0.0,0.0,0.0,0.0,0.0,0.0,0.0,0.0,-2.1326,-2.2868,-2.445,-2.6523,-2.8026,-2.896,-2.8969,-2.9284,-2.9681,-2.9992,-2.9986,-3.0055,-3.0481,-3.046,-3.0383,-3.0378,-3.0383,-3.0398,-3.0398,-3.0398,-3.0398,-3.0398,-3.0348,-3.0323,-3.0292,-3.024,-3.0199,-3.0199,-3.0677,-3.1216,-3.1763,-3.2108,-3.257,-3.3128,-3.3487,-3.3747,-3.391,-3.4204,-3.4451,-3.4602,-3.4316,-3.4197,-3.4197,-3.4197,-3.4173,-3.4148,-3.4124,-3.4124,-3.4148,-3.4124,-3.4124,-3.4148,0.0,0.0,-1.2435,-1.2569,-1.2589,-1.2846,-1.359,-1.3807,-1.4149,0.0,0.0,0.0,0.0,0.0,0.0,0.0,-1.8502,-1.8638,-1.8697,-1.8659,-1.8659,-1.8769,-1.8733,-1.8715,-1.8788,-1.8861,0.0,0.0,0.0,0.0,0.0,0.0,0.0,0.0,0.0,0.0,0.0,0.0,0.0,-1.7947,-2.1284,-2.2202,-2.1746,-2.3526,-2.3786,-2.3295,-2.407,-2.4282,-2.4313,-2.504,-2.4384,-2.3194,-2.3015,-2.1958,-2.0748,-2.0555,-2.0051,0.0,0.0,0.0,0.0,0.0,-1.8425,0.0,-2.0702,-2.1913,-2.32,-2.5566,-2.6823,-2.7491,-2.7488,-2.759,-2.7905,-2.8618,-2.8864,-2.9342,-3.0416,-3.052,-3.0491,-3.0472,-3.0428,-3.0398,-3.0398,-3.0398,-3.0398,-3.0398,-3.0379,-3.0355,-3.0305,-3.0234,-3.0221,-3.0221,-3.0221,-3.0291,-3.0427,-3.1104,-3.1495,-3.1623,-3.2353,-3.3015,-3.3592,-3.3561,-3.3883,-3.4408,-3.4255,-3.4197,-3.4197,-3.4197,-3.4173,-3.4124,-3.4124,-3.4124,-3.4124,-3.4124,-3.4148,-3.4173,0.0,0.0,-1.2494,-1.3044,-1.3192,-1.3461,-1.4207,-1.5069,-1.5655,0.0,0.0,0.0,0.0,0.0,0.0,0.0,-1.8565,-1.8659,-1.8623,-1.8715,-1.8715,-1.8641,-1.8678,-1.8715,-1.8788,-1.8861,-1.8932,0.0,0.0,0.0,0.0,0.0,0.0,0.0,0.0,0.0,0.0,0.0,0.0,-1.8734,-2.0823,-2.2027,-2.2651,-2.3765,-2.4555,-2.5102,-2.5279,-2.483,-2.4128,-2.3592,-2.37,-2.3811,-2.2416,-2.2254,-2.2321,-2.0912,-2.0884,0.0,0.0,0.0,-1.8033,-1.8215,-1.7078,0.0,-1.7414,-1.8379,-1.9334,-2.0546,-2.1991,-2.306,-2.306,-2.4094,-2.5001,-2.5174,-2.6807,-2.8607,-3.0201,-3.0389,-3.034,-3.0333,-3.039,-3.0398,-3.0398,-3.0398,-3.0398,-3.0398,-3.0348,-3.0304,-3.0292,-3.0286,-3.0279,-3.0279,-3.0279,-3.0631,-3.1341,-3.0705,-3.0828,-3.1686,-3.1527,-3.1521,-3.1682,-3.2845,-3.3337,-3.3338,-3.3942,-3.4197,-3.4197,-3.4197,-3.4197,-3.4173,-3.4173,-3.4173,-3.4173,-3.4173,-3.4148,-3.4124,0.0,-1.2241,-1.2484,-1.3227,-1.3386,-1.382,-1.501,-1.5669,0.0,0.0,0.0,0.0,0.0,0.0,0.0,0.0,0.0,0.0,0.0,-1.8696,-1.8696,-1.8696,-1.8697,-1.8752,-1.886,-1.8878,-1.8932,-1.9002,0.0,0.0,0.0,0.0,0.0,0.0,0.0,0.0,0.0,0.0,-1.8222,-1.9554,-2.1369,-2.263,-2.3539,-2.4536,-2.5181,-2.5604,-2.56,-2.5293,-2.482,-2.4381,-2.3978,-2.3577,-2.3145,-2.2746,-2.2278,-2.1409,-2.1143,-2.1071,-2.0694,-1.9632,-1.8642,-1.8647,-1.7999,0.0,0.0,-1.8301,-1.8962,-2.0273,-2.0872,-2.1271,-2.1723,-2.2084,-2.2585,-2.342,-2.4911,-2.6419,-2.7728,-2.9289,-3.0316,-3.0348,-3.0379,-3.0398,-3.0398,-3.0398,-3.0398,-3.0398,-3.0367,-3.0336,-3.0304,-3.0311,-3.0299,-3.0299,-3.0299,-3.0522,-3.1001,-3.0398,-3.0371,-3.0906,-3.062,-3.065,-3.0978,-3.1712,-3.2393,-3.3008,-3.3417,-3.3826,-3.4197,-3.4197,-3.4197,-3.4197,-3.4197,-3.4197,-3.4197,-3.4173,-3.4124,-3.4099,-1.2241,-1.2313,-1.2692,-1.3487,-1.375,-1.4384,-1.5863,-1.6207,0.0,0.0,0.0,0.0,0.0,0.0,0.0,0.0,0.0,0.0,0.0,-1.8965,-1.8965,-1.9057,-1.8841,-1.8878,-1.9183,-1.9021,-1.8984,-1.9053,0.0,0.0,0.0,0.0,0.0,0.0,0.0,0.0,0.0,0.0,0.0,-2.0432,-2.2124,-2.3127,-2.3721,-2.4697,-2.5181,-2.5354,-2.5532,-2.5604,-2.5562,-2.5393,-2.4402,-2.3314,-2.3683,-2.3091,-2.2192,-2.1694,-2.1289,-2.0945,-2.0658,-1.9947,-1.929,-1.9291,-1.9174,-1.9056,0.0,0.0,0.0,-2.0773,-2.0377,-2.0039,-2.0918,-2.0308,-2.0196,-2.171,-2.2766,-2.3659,-2.4354,-2.715,-2.9212,-2.9424,-2.9863,-3.0083,-2.994,-2.9921,-3.0056,-3.039,-3.0094,-3.0044,-3.0297,-3.0316,-3.0316,-3.0316,-3.0316,-3.0336,-3.0343,-3.0155,-3.0066,-3.0066,-2.9902,-3.0073,-3.0565,-3.0694,-3.1509,-3.2767,-3.2915,-3.3454,-3.4197,-3.4197,-3.4197,-3.4173,-3.4173,-3.4173,-3.4173,-3.4099,-3.4074,-3.4012,-1.2474,-1.2754,-1.3502,-1.4224,-1.5065,-1.5879,-1.666,-1.7092,0.0,0.0,0.0,0.0,0.0,0.0,0.0,0.0,0.0,0.0,-2.0011,-1.9993,-1.9993,-1.9939,-1.9201,-1.9237,-2.0207,-1.9464,-1.9117,-1.9186,0.0,0.0,0.0,0.0,0.0,0.0,-1.9431,0.0,0.0,0.0,-2.0392,0.0,-2.2401,-2.241,-2.1902,-2.2848,-2.3693,-2.4464,-2.5298,-2.5601,-2.5479,-2.4646,-2.4276,-2.3903,-2.2444,-2.2926,-2.3582,-2.1308,-2.1669,-2.2477,-2.0939,-1.9913,-1.931,-1.9309,-1.8728,-1.8144,-1.8154,0.0,-1.8197,-1.8393,0.0,-1.7398,-1.8277,0.0,0.0,-1.8398,-1.9873,-2.0949,-2.105,-2.3275,-2.5189,-2.5955,-2.7952,-2.897,-2.8251,-2.8174,-2.881,-3.0294,-2.9032,-2.883,-3.0302,-3.0398,-3.0398,-3.0398,-3.0398,-3.0311,-3.0136,-2.9992,-2.9934,-2.9918,-2.9608,-2.9548,-2.9758,-3.0348,-3.1102,-3.1968,-3.2692,-3.3454,-3.4197,-3.4197,-3.4173,-3.4124,-3.4124,-3.4124,-3.4099,-3.4049,-3.3972,-3.3828,-1.3772,-1.3861,0.0,-1.5215,-1.5317,-1.5699,-1.7043,-1.6747,0.0,0.0,0.0,0.0,0.0,0.0,0.0,0.0,0.0,-2.0553,0.0,0.0,0.0,-1.9488,-1.9076,-1.9128,-1.9762,-1.9394,-1.9246,-1.9314,-1.9438,0.0,0.0,0.0,0.0,0.0,-2.0164,0.0,-2.0528,0.0,-2.1119,0.0,-2.243,-2.2258,-2.1655,-2.3644,-2.4664,-2.5059,-2.5466,-2.5595,-2.5537,-2.5156,-2.4329,-2.3547,-2.3855,-2.3415,-2.2682,-2.217,-2.2165,-2.2081,-2.0874,-2.0676,-2.0682,-2.0187,-2.0154,-2.0,-1.8979,-1.874,-1.8758,-1.8758,0.0,0.0,0.0,0.0,0.0,0.0,-1.8976,-1.9947,-2.0489,-2.1828,-2.3256,-2.4594,-2.6088,-2.7245,-2.7836,-2.8781,-2.9635,-3.0352,-2.974,-2.9655,-3.0371,-3.0398,-3.0398,-3.0398,-3.0299,-3.0182,-3.0109,-2.9851,-2.9734,-2.9715,-2.9511,-2.9429,-2.9491,-2.9783,-3.0355,-3.1136,-3.1511,-3.2344,-3.3491,-3.351,-3.374,-3.4099,-3.4023,-3.3998,-3.4023,-3.3972,-3.3921,-3.3858,-1.4758,0.0,0.0,-1.5905,-1.5596,-1.5686,-1.7059,-1.6324,0.0,0.0,0.0,0.0,-1.7579,-1.8803,0.0,0.0,-2.1023,-2.1134,0.0,-2.068,-2.0445,-2.0117,-1.9378,-1.93,-2.0021,-1.9577,-1.9368,-1.945,-1.9536,0.0,0.0,0.0,0.0,0.0,0.0,-2.1186,-2.2288,0.0,-2.1961,-2.2202,-2.288,-2.2899,-2.2689,-2.4459,-2.5324,-2.557,-2.5577,-2.5583,-2.5556,-2.5298,-2.4367,-2.3463,-2.4547,-2.375,-2.2527,-2.2959,-2.2812,-2.2283,-2.1218,-2.1399,-2.1699,-2.0816,-2.1072,-2.1211,-1.994,-1.9661,-1.9656,-1.9656,-1.8952,0.0,0.0,0.0,0.0,0.0,0.0,-1.8849,-1.975,-2.0356,-2.1219,-2.2682,-2.3803,-2.5189,-2.7058,-2.8136,-2.8886,-2.9347,-2.9404,-2.9586,-3.0025,-3.0275,-3.0367,-3.0311,-3.0182,-3.0066,-2.9958,-2.9732,-2.957,-2.9551,-2.945,-2.9407,-2.9407,-2.9388,-2.9834,-3.0637,-3.0679,-3.157,-3.3008,-3.2985,-3.3419,-3.4049,-3.3947,-3.3921,-3.3947,-3.3895,-3.3868,-3.3831,-1.5005,-1.5043,0.0,0.0,-1.6293,-1.6403,-1.6584,-1.6045,0.0,0.0,0.0,0.0,0.0,0.0,0.0,0.0,0.0,-2.3787,-2.2868,-2.2153,-2.2078,-2.2848,-2.0508,-2.0028,-2.1856,-2.0255,-1.9456,-1.9583,-1.9732,0.0,0.0,0.0,0.0,0.0,-2.0977,-2.1369,-2.1416,-2.2363,-2.3251,-2.4019,-2.4047,-2.4557,-2.5194,-2.4501,-2.4779,-2.5499,-2.5499,-2.5544,-2.546,-2.4555,-2.4244,-2.4117,-2.3325,-2.364,-2.4156,-2.335,-2.367,-2.3944,-2.2227,-2.1839,-2.1698,-2.082,-2.0625,-2.0623,-2.0566,-2.0563,-2.0554,-2.0554,-1.9873,-1.9526,-2.0369,0.0,0.0,0.0,0.0,0.0,0.0,-1.8109,-1.8457,-1.9351,-2.0857,-2.2814,-2.5331,-2.4865,-2.5071,-2.6696,-2.6822,-2.7509,-2.9055,-2.9948,-3.0311,-3.0122,-3.0089,-2.9943,-2.9626,-2.9608,-2.9532,-2.9407,-2.9407,-2.9407,-2.9407,-2.9411,-2.9878,-3.0698,-3.0684,-3.1573,-3.3003,-3.3003,-3.3371,-3.3895,-3.3895,-3.3842,-3.3807,-3.3788,-3.3788,-3.3678,0.0,0.0,0.0,0.0,0.0,-1.4708,-1.44,-1.457,0.0,0.0,-1.7373,0.0,0.0,-2.1402,-2.2116,0.0,0.0,-2.3179,-2.2849,-2.2063,-2.1752,-2.2116,-2.0252,-1.9803,-2.11,-2.0088,-1.9541,-1.9606,-1.9726,0.0,0.0,0.0,0.0,0.0,0.0,-2.1723,0.0,0.0,0.0,0.0,-2.4105,-2.4287,-2.4557,-2.4883,-2.5178,-2.5441,-2.5483,-2.5538,-2.555,-2.5234,-2.476,-2.4349,-2.4623,-2.4156,-2.3529,-2.3805,-2.4121,-2.4147,-2.2988,-2.3515,-2.3938,-2.1952,-2.1854,-2.1953,-2.0855,-2.1046,-2.1299,-2.0716,-2.0814,-2.058,-1.9133,0.0,0.0,0.0,0.0,0.0,0.0,-1.9225,-1.9186,-2.0064,-2.1065,-2.2274,-2.3704,-2.5066,-2.6083,-2.6657,-2.719,-2.796,-2.9036,-2.9371,-2.9716,-3.0089,-3.0007,-2.9851,-2.9608,-2.9494,-2.9434,-2.9411,-2.9451,-2.9451,-2.9411,-2.9433,-2.9602,-2.9841,-2.9843,-3.0751,-3.2205,-3.2117,-3.2798,-3.3895,-3.3842,-3.3815,-3.3807,-3.3807,-3.3807,-3.3678,-1.4797,0.0,0.0,0.0,0.0,0.0,0.0,0.0,0.0,0.0,-1.7503,0.0,-2.1018,0.0,-2.2078,0.0,-2.3086,-2.3122,-2.279,-2.2282,-2.2045,-2.2118,-2.0884,-2.068,-2.1663,-2.062,-2.0097,-2.0176,-1.9901,-1.98,0.0,0.0,0.0,0.0,0.0,-2.157,-2.2729,-2.336,-2.3981,0.0,-2.4566,-2.4549,-2.4589,-2.5202,-2.5247,-2.5023,-2.536,-2.5538,-2.5595,-2.5601,-2.5232,-2.4855,-2.5425,-2.4837,-2.4102,-2.4963,-2.5255,-2.5168,-2.4596,-2.5272,-2.5595,-2.3357,-2.3164,-2.3086,-2.1418,-2.1707,-2.2162,-2.1601,-2.1718,-2.1561,-2.0487,0.0,0.0,0.0,0.0,0.0,0.0,-1.9381,-1.9166,-2.0027,-2.0555,-2.1292,-2.2466,-2.4016,-2.5185,-2.5738,-2.6535,-2.7498,-2.8613,-2.8929,-2.9409,-3.007,-2.9962,-2.9803,-2.9608,-2.9474,-2.9412,-2.9412,-2.9472,-2.9472,-2.9433,-2.9492,-2.9491,-2.9412,-2.9433,-3.0153,-3.1302,-3.1214,-3.2084,-3.3419,-3.3411,-3.355,-3.3807,-3.3807,-3.3623,-3.322,-1.3496,-1.3987,0.0,0.0,-1.5612,0.0,0.0,0.0,-1.626,0.0,-1.825,-1.9558,-2.1233,-2.2279,-2.2849,-2.2772,-2.3597,-2.3744,-2.2821,-2.2849,0.0,-2.296,-2.2343,-2.2461,-2.3455,-2.1803,-2.1001,-2.1183,0.0,0.0,0.0,0.0,0.0,0.0,-1.9993,0.0,-2.27,-2.269,-2.3781,-2.5484,-2.5429,-2.5339,-2.5265,-2.544,-2.4962,-2.4304,-2.5188,-2.5564,-2.5661,-2.5653,-2.569,-2.5726,-2.5683,-2.5688,-2.5883,-2.6666,-2.6958,-2.7027,-2.6983,-2.7009,-2.6623,-2.4946,-2.4491,-2.4002,-2.2359,-2.2665,-2.3279,-2.323,-2.2647,-2.2576,-2.4012,-2.1652,0.0,0.0,0.0,0.0,0.0,0.0,-1.8444,-1.9264,-1.9401,-2.0033,-2.1581,-2.1808,-2.2469,-2.3925,-2.4841,-2.6081,-2.7804,-2.8582,-2.9313,-3.007,-2.9981,-2.9803,-2.9589,-2.9474,-2.9412,-2.9392,-2.9472,-2.9492,-2.9492,-2.955,-2.9531,-2.9412,-2.9453,-2.9816,-3.0415,-3.0392,-3.1243,-3.2559,-3.2596,-3.3091,-3.3807,-3.3807,-3.3275,-3.232,-1.5129,-1.521,-1.5564,0.0,-1.5913,-1.5519,0.0,0.0,0.0,0.0,-2.1096,-2.2447,-2.434,-2.4211,-2.3953,-2.3897,-2.4062,0.0,0.0,0.0,-2.3179,-2.3841,-2.2659,-2.2404,-2.327,-2.1719,-2.0938,-2.0974,-2.0118,0.0,-1.9751,0.0,0.0,0.0,0.0,-2.1022,-2.271,-2.2748,-2.3809,-2.5429,-2.5404,-2.5001,-2.4491,-2.5213,-2.4953,-2.4302,-2.5194,-2.5971,-2.6565,-2.6571,-2.7001,-2.7415,-2.6773,-2.7002,-2.7459,-2.7016,-2.7817,-2.8691,-2.8045,-2.8346,-2.8428,-2.6697,-2.6256,-2.5951,-2.4866,-2.5308,-2.574,-2.5088,-2.531,-2.4966,-2.2864,-2.2285,0.0,0.0,0.0,0.0,0.0,-2.0066,-2.0027,-2.0242,-2.0789,-2.109,-2.0913,-2.1936,-2.2774,-2.3172,-2.3909,-2.5399,-2.7775,-2.7475,-2.807,-2.9889,-2.9918,-2.977,-2.9451,-2.9471,-2.9414,-2.9332,-2.955,-2.9569,-2.9433,-2.9511,-2.9472,-2.9392,-2.931,-2.9706,-3.0392,-3.0281,-3.0821,-3.177,-3.2375,-3.3091,-3.3807,-3.3807,-3.2908,-3.1641,-1.5705,-1.5849,0.0,-1.7114,0.0,0.0,-1.7305,-1.7844,0.0,-2.0999,-2.2115,0.0,-2.4284,-2.4709,-2.4728,-2.4247,-2.419,0.0,-2.3561,0.0,-2.3472,-2.3581,-2.325,-2.3275,-2.3806,-2.2707,-2.1937,-2.1567,-2.0715,0.0,-1.9745,0.0,0.0,0.0,0.0,-2.0722,-2.2104,-2.2997,-2.3925,-2.4863,-2.5249,-2.5123,0.0,-2.5302,-2.5194,-2.4898,-2.579,-2.6456,-2.6965,-2.7334,-2.7784,-2.8121,-2.7625,-2.7819,-2.8179,-2.8067,-2.8722,-2.9472,-2.9361,-2.9663,-2.9699,-2.8325,-2.7979,-2.7662,-2.6443,-2.6835,-2.7335,-2.6847,-2.6812,-2.6424,-2.4834,-2.3751,-2.2389,0.0,0.0,0.0,-2.0594,-2.0261,-2.016,-2.0504,-2.0623,-2.0614,-2.0522,-2.1949,-2.2881,-2.2856,-2.3273,-2.4321,-2.615,-2.6384,-2.7217,-2.8855,-2.9455,-2.9681,-2.9512,-2.9512,-2.9453,-2.9353,-2.9589,-2.9569,-2.9353,-2.9453,-2.9433,-2.931,-2.9243,-2.9414,-2.9789,-2.9719,-3.0155,-3.098,-3.2155,-3.2889,-3.3293,-3.3293,-3.2485,-3.1292,-1.6136,-1.6395,0.0,0.0,0.0,0.0,0.0,-1.9598,0.0,-2.1646,0.0,-2.3173,-2.3247,-2.456,-2.5097,-2.4188,-2.419,-2.3839,-2.2951,-2.3651,-2.3781,-2.301,-2.3896,-2.4439,-2.4567,-2.3973,-2.3227,-2.2357,0.0,0.0,0.0,0.0,0.0,0.0,0.0,0.0,0.0,-2.3324,-2.4176,-2.4345,-2.5103,-2.5456,-2.5499,-2.5505,-2.5506,-2.5641,-2.6701,-2.7062,-2.7204,-2.8079,-2.844,-2.8515,-2.8418,-2.8462,-2.8675,-2.9308,-2.9587,-2.9821,-3.0579,-3.073,-3.0522,-2.9758,-2.9564,-2.9181,-2.7726,-2.7975,-2.8525,-2.854,-2.7931,-2.7532,-2.8002,-2.5526,-2.2875,0.0,-2.1095,-2.1245,-2.1249,-2.0506,-2.0165,-2.0756,-2.0039,0.0,-2.0182,-2.1754,-2.2721,-2.2651,-2.2674,-2.3141,-2.4188,-2.5444,-2.66,-2.7679,-2.894,-2.9626,-2.9663,-2.9551,-2.9453,-2.9372,-2.9588,-2.955,-2.9272,-2.9433,-2.9372,-2.92,-2.9178,-2.9108,-2.8994,-2.8994,-2.9475,-3.0356,-3.1861,-3.2496,-3.2588,-3.2588,-3.2074,-3.1157,-1.8512,0.0,0.0,0.0,0.0,-2.1068,-2.2558,-2.4028,-2.5089,-2.5448,-2.5805,-2.6076,-2.6094,-2.5208,-2.4524,-2.4284,-2.4284,-2.4192,-2.3952,-2.4098,-2.4115,-2.3949,-2.4247,-2.4407,-2.4422,-2.3802,-2.3022,-2.2149,-2.133,0.0,0.0,0.0,0.0,0.0,0.0,0.0,-2.2508,-2.3629,-2.4519,-2.5181,-2.5398,-2.5488,-2.5505,-2.5492,-2.5531,-2.5795,-2.7406,-2.7974,-2.8111,-2.8987,-2.9747,-3.0219,-2.9499,-2.976,-3.0225,-2.9665,-3.0016,-3.0596,-3.0686,-3.0704,-3.0672,-3.0503,-3.0477,-3.0399,-3.0102,-3.014,-3.0264,-3.0257,-3.0101,-2.9574,-2.8339,-2.644,-2.4533,-2.2847,-2.3747,-2.4651,-2.4637,-2.3951,-2.3193,-2.2546,-2.172,-2.0687,-1.9447,-2.0843,-2.1829,-2.1813,-2.1716,-2.2623,-2.4823,-2.5132,-2.6148,-2.8209,-2.9137,-2.9551,-2.945,-2.9373,-2.9291,-2.9243,-2.9451,-2.9412,-2.9222,-2.9291,-2.9289,-2.9178,-2.9067,-2.9017,-2.8994,-2.8994,-2.9475,-3.0283,-3.1237,-3.1975,-3.2509,-3.2509,-3.1971,-3.1122,-1.9075,0.0,0.0,0.0,0.0,0.0,0.0,-2.551,-2.6469,-2.6407,-2.58,-2.5349,-2.5352,-2.5152,-2.482,-2.4303,-2.4247,-2.4229,-2.4209,-2.4209,-2.419,-2.419,-2.4338,-2.4389,-2.4389,-2.4238,-2.3507,-2.2092,-2.183,0.0,0.0,0.0,0.0,-1.9776,0.0,-2.1132,0.0,0.0,-2.4328,-2.4764,-2.5294,-2.5531,-2.5557,-2.5557,-2.5854,-2.6387,-2.721,-2.7829,-2.8408,-2.9683,-3.0428,-3.0725,-3.0316,-3.0451,-3.0723,-3.0293,-3.0458,-3.0735,-3.0722,-3.0711,-3.0704,-3.0697,-3.069,-3.069,-3.069,-3.069,-3.069,-3.0661,-3.0618,-3.0086,-2.8361,-2.6282,-2.4713,-2.4344,-2.4236,-2.4502,-2.5387,-2.5168,-2.4594,-2.3686,-2.2796,-2.1771,-2.0475,-2.0301,-2.0415,-2.0792,-2.0422,-2.1196,-2.3564,-2.4031,-2.5091,-2.6932,-2.8614,-2.9431,-2.924,-2.9286,-2.9267,-2.9185,-2.9291,-2.9291,-2.92,-2.9225,-2.9181,-2.9089,-2.904,-2.8994,-2.8994,-2.8994,-2.9214,-2.9714,-3.0876,-3.1565,-3.1887,-3.1835,-3.1545,-3.1045,-1.9818,-1.9743,0.0,0.0,-2.2546,-2.3886,-2.4829,-2.5725,-2.6423,-2.667,-2.5317,-2.4386,-2.4572,-2.5021,-2.5004,-2.4266,-2.421,-2.421,-2.4209,-2.4209,-2.4209,-2.4228,-2.4338,-2.4407,-2.4442,-2.4708,-2.4049,-2.2387,-2.2367,-2.1512,0.0,0.0,0.0,0.0,0.0,0.0,-2.1981,-2.3467,-2.4221,-2.4451,-2.5214,-2.5538,-2.5601,-2.5601,-2.6026,-2.6656,-2.6831,-2.7342,-2.8175,-2.9883,-3.0477,-3.0526,-3.0531,-3.0645,-3.0775,-3.0779,-3.0738,-3.0691,-3.071,-3.0704,-3.069,-3.069,-3.069,-3.069,-3.069,-3.069,-3.0683,-3.0618,-3.0593,-3.0053,-2.8294,-2.6637,-2.5626,-2.597,-2.5208,-2.502,-2.6369,-2.6381,-2.5882,-2.483,-2.3794,-2.2709,-2.16,-2.0139,-1.955,-2.0298,-1.9652,-2.0144,-2.2291,-2.3113,-2.4197,-2.5705,-2.7791,-2.8901,-2.8898,-2.9148,-2.9243,-2.9163,-2.9185,-2.9203,-2.9156,-2.9178,-2.913,-2.8994,-2.8994,-2.8994,-2.8994,-2.8975,-2.8994,-2.9117,-3.068,-3.1276,-3.1269,-3.1399,-3.1401,-3.1238,0.0,0.0,0.0,0.0,0.0,-2.4834,-2.5135,-2.5293,-2.5962,-2.7471,-2.6307,-2.5668,-2.6443,-2.5225,-2.4302,-2.421,-2.4266,-2.4266,-2.4192,-2.4192,-2.4229,-2.4303,-2.4355,-2.4459,-2.458,-2.4676,-2.4257,-2.3278,-2.2562,-2.1709,-2.077,0.0,0.0,0.0,-2.1265,-2.2239,-2.3848,-2.4036,-2.4594,-2.5376,-2.5525,-2.5595,-2.5601,-2.5601,-2.5651,-2.5837,-2.6615,-2.6957,-2.7294,-2.9028,-2.9624,-2.9627,-2.9617,-3.0115,-3.0708,-3.0713,-3.0706,-3.0704,-3.0704,-3.0697,-3.069,-3.069,-3.069,-3.069,-3.069,-3.069,-3.0683,-3.0618,-3.054,-2.9979,-2.8222,-2.8954,-2.9357,-2.7903,-2.8811,-2.9764,-2.9918,-2.9321,-2.8231,-2.6574,-2.4946,-2.3319,-2.1671,-2.0581,-2.0335,-2.112,-2.0393,-2.0646,-2.2305,-2.3105,-2.4216,-2.5826,-2.6764,-2.755,-2.8199,-2.8876,-2.9152,-2.9021,-2.9134,-2.9134,-2.9017,-2.9134,-2.913,-2.8994,-2.8994,-2.8994,-2.8994,-2.8929,-2.8905,-2.9051,-3.0604,-3.119,-3.1202,-3.191,-3.2155,-3.1991,0.0,0.0,0.0,0.0,0.0,0.0,0.0,-2.5698,-2.5663,-2.6344,-2.5425,-2.5059,-2.5928,-2.4929,-2.421,-2.4209,-2.4209,-2.4228,-2.4209,-2.419,-2.4228,-2.4303,-2.4355,-2.4459,-2.4599,-2.466,-2.4279,-2.3405,-2.2585,-2.1751,-2.09,0.0,0.0,-2.2163,-2.2719,-2.3398,-2.4141,-2.4694,-2.5156,-2.5512,-2.557,-2.5601,-2.5601,-2.5601,-2.5918,-2.6362,-2.6187,-2.6465,-2.6923,-2.709,-2.82,-2.9578,-3.0069,-3.0448,-3.0699,-3.0696,-3.0691,-3.0691,-3.0697,-3.0703,-3.0695,-3.0695,-3.0695,-3.0695,-3.0695,-3.0661,-3.0618,-3.0557,-3.0481,-3.0232,-2.9531,-2.9117,-2.9012,-2.9338,-2.9109,-2.9254,-3.026,-3.0113,-2.9286,-2.7574,-2.6333,-2.4937,-2.3226,-2.1809,-2.1507,-2.2715,-2.1483,-2.1164,-2.2332,-2.3982,-2.5153,-2.5705,-2.7418,-2.8392,-2.8529,-2.881,-2.8952,-2.8929,-2.8952,-2.9017,-2.9062,-2.9067,-2.9021,-2.8929,-2.8975,-2.8952,-2.8881,-2.8905,-2.8881,-2.8943,-2.9999,-3.041,-3.0467,-3.1238,-3.1501,-3.1492,-2.3155,0.0,-2.4707,0.0,-2.5947,-2.5899,-2.6669,-2.5874,-2.5171,-2.5189,-2.4616,-2.4523,-2.5391,-2.4707,-2.4209,-2.419,-2.419,-2.419,-2.419,-2.419,-2.4247,-2.4339,-2.4373,-2.4476,-2.4631,-2.4676,-2.4392,-2.3795,-2.2959,-2.2281,-2.1722,-2.1673,-2.2162,-2.3148,-2.3796,-2.425,-2.4578,-2.5253,-2.5531,-2.5523,-2.5587,-2.5607,-2.5607,-2.5595,-2.5976,-2.6435,-2.5826,-2.6162,-2.6806,-2.6181,-2.7552,-2.9556,-2.9863,-3.0144,-3.0388,-3.0633,-3.0709,-3.0704,-3.0697,-3.0703,-3.0707,-3.0707,-3.0707,-3.0707,-3.0707,-3.0645,-3.0593,-3.0511,-3.0458,-3.0398,-3.0398,-2.9434,-2.9032,-3.0198,-2.9415,-2.9051,-3.0229,-3.041,-2.9679,-2.7747,-2.6978,-2.6025,-2.4591,-2.3109,-2.2863,-2.4423,-2.3259,-2.2669,-2.3073,-2.4598,-2.5514,-2.565,-2.7526,-2.8525,-2.8534,-2.873,-2.8834,-2.8839,-2.881,-2.8881,-2.8998,-2.8952,-2.8923,-2.8881,-2.8905,-2.89,-2.881,-2.8834,-2.8791,-2.8834,-2.9584,-2.9867,-2.9976,-3.0722,-3.1148,-3.1419,-2.5643,-2.6222,-2.6951,-2.8824,-2.7896,-2.6897,-2.6991,-2.5523,-2.4413,-2.4413,-2.4303,-2.4542,-2.5389,-2.4724,-2.419,-2.419,-2.419,-2.419,-2.419,-2.419,-2.4266,-2.4389,-2.4389,-2.4493,-2.4692,-2.4707,-2.4689,-2.4689,-2.3802,-2.3479,-2.3651,-2.2991,-2.3188,-2.4084,-2.408,-2.4651,-2.5579,-2.5587,-2.5599,-2.5605,-2.5609,-2.5599,-2.5599,-2.5609,-2.5615,-2.5618,-2.5609,-2.6157,-2.6909,-2.6895,-2.8045,-2.9355,-2.8506,-2.8824,-2.9663,-3.0471,-3.0704,-3.069,-3.069,-3.069,-3.069,-3.069,-3.069,-3.069,-3.069,-3.0661,-3.0585,-3.051,-3.0455,-3.0398,-3.0398,-3.0379,-3.039,-3.0398,-3.0379,-3.0383,-3.0386,-3.0402,-2.9459,-2.6911,-2.6603,-2.6256,-2.537,-2.4312,-2.4409,-2.6149,-2.5932,-2.5433,-2.4716,-2.4707,-2.5054,-2.577,-2.6525,-2.7247,-2.7896,-2.8572,-2.8815,-2.8694,-2.8761,-2.8785,-2.881,-2.881,-2.881,-2.8785,-2.881,-2.8785,-2.8785,-2.8737,-2.8694,-2.8767,-2.9515,-2.9816,-2.9906,-3.0695,-3.1492,-3.218,-2.5463,-2.6172,-2.703,-2.8347,-2.7195,-2.6302,-2.6971,-2.6042,-2.506,-2.4486,-2.4801,-2.4965,-2.4652,-2.4375,-2.417,-2.4151,-2.417,-2.419,-2.419,-2.4228,-2.4321,-2.4389,-2.4495,-2.4596,-2.4707,-2.4707,-2.4692,-2.4698,-2.387,-2.3596,-2.3835,-2.3698,-2.4149,-2.5071,-2.5092,-2.5302,-2.56,-2.5605,-2.5605,-2.5605,-2.5609,-2.5593,-2.5607,-2.5595,-2.5601,-2.5607,-2.5595,-2.6164,-2.6906,-2.6905,-2.7656,-2.866,-2.893,-2.963,-3.0374,-3.0626,-3.0697,-3.069,-3.069,-3.0703,-3.0688,-3.0688,-3.0688,-3.068,-3.0637,-3.0586,-3.051,-3.0455,-3.0421,-3.0398,-3.0398,-3.0398,-3.0398,-3.0398,-3.0398,-3.0379,-3.034,-3.0359,-2.9879,-2.8475,-2.8354,-2.7975,-2.6967,-2.6599,-2.6333,-2.6119,-2.608,-2.5676,-2.4753,-2.6219,-2.6953,-2.6617,-2.7785,-2.8489,-2.8635,-2.8777,-2.8785,-2.8694,-2.8761,-2.8785,-2.8785,-2.8785,-2.8785,-2.8718,-2.8785,-2.8737,-2.8662,-2.8687,-2.8669,-2.8656,-2.8884,-2.8993,-2.9156,-3.0496,-3.1148,-3.1528,-2.602,-2.6812,-2.7508,-2.8166,-2.714,-2.6301,-2.6561,-2.58,-2.5023,-2.4486,-2.4764,-2.48,-2.4284,-2.4247,-2.4209,-2.4133,-2.417,-2.419,-2.419,-2.4266,-2.4321,-2.4389,-2.4528,-2.4629,-2.4707,-2.4711,-2.4714,-2.4701,-2.427,-2.4151,-2.4312,-2.4521,-2.4948,-2.5537,-2.5576,-2.5615,-2.5643,-2.5648,-2.5624,-2.5595,-2.56,-2.5604,-2.5599,-2.5607,-2.5601,-2.5607,-2.5601,-2.6359,-2.7335,-2.7006,-2.7907,-2.9166,-2.9343,-3.0004,-3.0704,-3.0697,-3.069,-3.069,-3.069,-3.0703,-3.0695,-3.0695,-3.0695,-3.068,-3.0576,-3.053,-3.0488,-3.0421,-3.0398,-3.0398,-3.0398,-3.0379,-3.0367,-3.0367,-3.0355,-3.0343,-3.0311,-3.0336,-2.9944,-2.8749,-2.8679,-2.8414,-2.7637,-2.7281,-2.7167,-2.729,-2.6798,-2.6484,-2.648,-2.7306,-2.7662,-2.7381,-2.8495,-2.9062,-2.8952,-2.8858,-2.8785,-2.8737,-2.8761,-2.8761,-2.8712,-2.8712,-2.8712,-2.8644,-2.8712,-2.8687,-2.8637,-2.8669,-2.8687,-2.8662,-2.8637,-2.8819,-2.9199,-3.0214,-3.0758,-3.1184,-2.7159,-2.7908,-2.8203,-2.8221,-2.7494,-2.6651,-2.591,-2.5003,-2.4394,-2.4394,-2.4284,-2.4229,-2.4284,-2.4284,-2.4284,-2.4209,-2.419,-2.419,-2.4209,-2.4266,-2.4338,-2.4407,-2.4547,-2.4647,-2.4692,-2.4698,-2.4701,-2.4682,-2.4896,-2.4991,-2.5,-2.5352,-2.5537,-2.561,-2.5591,-2.5643,-2.5699,-2.5699,-2.5652,-2.5604,-2.5595,-2.561,-2.5605,-2.5599,-2.5593,-2.5604,-2.5593,-2.6688,-2.7993,-2.7244,-2.8563,-3.0399,-2.9697,-2.9992,-3.0613,-3.0671,-3.069,-3.069,-3.069,-3.069,-3.069,-3.069,-3.0683,-3.0642,-3.051,-3.0491,-3.0477,-3.041,-3.0379,-3.0398,-3.0398,-3.0336,-3.0304,-3.0304,-3.0299,-3.0312,-3.0292,-3.0299,-2.9728,-2.8161,-2.8022,-2.7958,-2.7693,-2.6878,-2.7182,-2.9177,-2.7923,-2.7698,-2.9147,-2.7942,-2.7456,-2.8061,-2.875,-2.9044,-2.8905,-2.8834,-2.881,-2.881,-2.8737,-2.8669,-2.8612,-2.8612,-2.8612,-2.8612,-2.8612,-2.8662,-2.8694,-2.8712,-2.8755,-2.8858,-2.8737,-2.9185,-2.9893,-2.9893,-3.0331,-3.1066,0.0,0.0,-2.7457,-2.8222,-2.6561,-2.5241,-2.567,-2.4967,-2.4394,-2.4339,-2.4303,-2.4284,-2.4284,-2.4284,-2.4284,-2.4284,-2.4229,-2.4229,-2.4284,-2.4338,-2.4425,-2.4547,-2.4629,-2.4676,-2.4698,-2.4698,-2.4666,-2.4615,-2.4885,-2.5027,-2.5072,-2.5413,-2.5576,-2.561,-2.5648,-2.5695,-2.5699,-2.5652,-2.5609,-2.5604,-2.5595,-2.561,-2.561,-2.56,-2.56,-2.5605,-2.5601,-2.6293,-2.7265,-2.7678,-2.8217,-2.8897,-2.9989,-3.0052,-2.9838,-3.0506,-3.0707,-3.0688,-3.0645,-3.0618,-3.0618,-3.0618,-3.0595,-3.053,-3.0441,-3.0386,-3.034,-3.0336,-3.0316,-3.0323,-3.0318,-3.0305,-3.0305,-3.0305,-3.0292,-3.0279,-3.0234,-3.0267,-3.0138,-2.9768,-2.9778,-2.9666,-2.9276,-2.9058,-2.8565,-2.7643,-2.7793,-2.7811,-2.7587,-2.7811,-2.8239,-2.8907,-2.9086,-2.9112,-2.8994,-2.897,-2.8947,-2.8881,-2.881,-2.8761,-2.8737,-2.8737,-2.8737,-2.8737,-2.8737,-2.8737,-2.8694,-2.8761,-2.9071,-2.9507,-2.8937,-2.9173,-2.9828,-2.9805,-2.9924,-3.0278,-2.6871,-2.7019,-2.7046,-2.7176,-2.6039,-2.5112,-2.5096,-2.469,-2.4339,-2.4303,-2.4266,-2.4284,-2.4339,-2.4339,-2.4358,-2.4393,-2.4338,-2.4302,-2.4339,-2.4444,-2.451,-2.4599,-2.4663,-2.4714,-2.4701,-2.465,-2.4615,-2.4599,-2.4866,-2.5053,-2.5147,-2.5467,-2.5615,-2.5643,-2.5675,-2.5675,-2.5652,-2.5652,-2.5628,-2.56,-2.5595,-2.5595,-2.5595,-2.5595,-2.5595,-2.5604,-2.5593,-2.6169,-2.7025,-2.7826,-2.8363,-2.8849,-2.9757,-2.9757,-2.9486,-2.9939,-3.0347,-3.0645,-3.061,-3.0602,-3.0582,-3.0557,-3.0521,-3.0479,-3.0428,-3.0352,-3.0316,-3.0336,-3.0316,-3.0304,-3.0299,-3.0273,-3.0247,-3.0247,-2.9596,-2.9366,-3.0098,-2.9602,-2.944,-3.0216,-3.0362,-3.0228,-2.9801,-2.9784,-2.9304,-2.8046,-2.842,-2.8516,-2.807,-2.846,-2.8864,-2.92,-2.9156,-2.9089,-2.8994,-2.8994,-2.897,-2.8905,-2.8858,-2.8834,-2.8785,-2.8785,-2.8785,-2.8785,-2.8761,-2.8785,-2.8828,-2.9162,-2.9558,-2.9893,-2.9435,-2.9733,-3.0325,-2.9566,-2.9507,-2.9997,-2.6059,-2.6534,-2.6617,-2.5928,-2.5687,-2.5335,-2.4523,-2.4339,-2.4303,-2.4284,-2.4247,-2.4229,-2.4358,-2.4394,-2.4429,-2.4497,-2.4495,-2.4461,-2.4446,-2.4545,-2.4626,-2.4629,-2.4682,-2.4698,-2.4701,-2.458,-2.4545,-2.4629,-2.4905,-2.5107,-2.5235,-2.5492,-2.5643,-2.5699,-2.5699,-2.5652,-2.5628,-2.5671,-2.5667,-2.5615,-2.5604,-2.5604,-2.5628,-2.5628,-2.5613,-2.559,-2.5592,-2.6074,-2.6817,-2.7628,-2.8392,-2.9012,-2.9148,-2.9187,-2.9187,-2.9113,-2.9713,-3.0419,-3.0554,-3.0593,-3.0576,-3.0511,-3.0481,-3.0447,-3.0406,-3.034,-3.0323,-3.0367,-3.0336,-3.0292,-3.0292,-3.0228,-3.0112,-2.9857,-2.8843,-2.8479,-2.9645,-2.8874,-2.871,-3.012,-3.033,-3.0188,-2.9765,-2.9731,-2.957,-2.9156,-2.9218,-2.9317,-2.9468,-2.9336,-2.9296,-2.9385,-2.9208,-2.9085,-2.8994,-2.8994,-2.8952,-2.8929,-2.8929,-2.8936,-2.8992,-2.8992,-2.8992,-2.8992,-2.8943,-2.8895,-2.8942,-2.9509,-2.9868,-3.0031,-2.9817,-3.0188,-3.0717,-2.9241,-2.908,-2.9743,-2.6103,-2.5933,-2.569,-2.5781,-2.5185,-2.4595,-2.4358,-2.4321,-2.4284,-2.4228,-2.421,-2.421,-2.4229,-2.4393,-2.45,-2.45,-2.4647,-2.4711,-2.466,-2.4676,-2.4704,-2.4783,-2.4723,-2.4695,-2.4701,-2.4615,-2.4642,-2.4766,-2.5031,-2.5244,-2.5372,-2.5595,-2.5695,-2.5699,-2.5632,-2.5632,-2.5675,-2.5639,-2.5643,-2.5675,-2.5628,-2.5632,-2.5675,-2.5675,-2.5645,-2.5597,-2.5605,-2.5646,-2.5853,-2.6702,-2.7055,-2.726,-2.7984,-2.8216,-2.8216,-2.8189,-2.8808,-2.9659,-3.0394,-3.0559,-3.049,-3.0425,-3.0367,-3.0318,-3.0318,-3.0305,-3.0305,-3.0305,-3.0305,-3.0279,-3.0226,-3.0199,-2.9735,-2.8319,-2.9059,-2.941,-2.8262,-2.913,-3.0017,-3.0273,-3.0215,-3.0052,-2.9817,-2.9588,-2.9378,-2.92,-2.9152,-2.947,-3.0265,-2.9566,-2.9447,-3.0198,-2.9503,-2.9085,-2.8994,-2.8994,-2.8994,-2.8975,-2.8975,-2.9295,-2.9905,-2.9905,-2.9905,-2.9905,-2.9837,-2.9472,-2.89,-2.8955,-2.9351,-2.9867,-2.9148,-2.9344,-2.9879,-2.8953,-2.8685,-2.8902,-2.4981,-2.4964,-2.4947,-2.5091,-2.4776,-2.4465,-2.4358,-2.4321,-2.4284,-2.4209,-2.4209,-2.4228,-2.4303,-2.4375,-2.45,-2.4599,-2.4695,-2.4757,-2.4749,-2.4798,-2.4813,-2.4794,-2.4738,-2.4676,-2.465,-2.4723,-2.4804,-2.491,-2.5138,-2.5321,-2.546,-2.563,-2.5699,-2.5699,-2.5628,-2.5628,-2.5632,-2.5604,-2.5624,-2.5652,-2.5652,-2.5675,-2.5703,-2.5701,-2.5666,-2.5603,-2.5593,-2.5554,-2.5634,-2.6461,-2.6718,-2.676,-2.7174,-2.7318,-2.7354,-2.7354,-2.8285,-2.9495,-3.0366,-3.054,-3.0488,-3.0421,-3.0362,-3.0279,-3.0247,-3.0279,-3.0292,-3.0292,-3.0292,-3.0279,-3.0207,-3.0199,-2.995,-2.9174,-2.8945,-2.8906,-2.904,-2.8989,-2.9282,-3.0151,-3.0155,-3.0003,-2.9765,-2.9551,-2.9336,-2.9156,-2.9517,-2.9922,-3.0378,-3.036,-3.0336,-3.0332,-2.949,-2.904,-2.8994,-2.8994,-2.8994,-2.8994,-2.8994,-2.9392,-3.007,-2.9698,-2.9692,-3.0027,-2.9606,-2.9186,-2.8858,-2.9253,-2.9588,-2.9862,-2.9457,-2.9504,-2.9701,-2.8891,-2.8587,-2.8793,-2.4057,-2.4284,-2.4461,-2.4495,-2.4497,-2.4464,-2.4394,-2.4339,-2.4284,-2.4229,-2.4228,-2.4284,-2.4393,-2.4429,-2.4515,-2.466,-2.4707,-2.4738,-2.4798,-2.4842,-2.4856,-2.4808,-2.4753,-2.4711,-2.4647,-2.4837,-2.4962,-2.5041,-2.5253,-2.5427,-2.5549,-2.5658,-2.5699,-2.5699,-2.5628,-2.5609,-2.5628,-2.5609,-2.5609,-2.5628,-2.5675,-2.5699,-2.5703,-2.5698,-2.5657,-2.5605,-2.559,-2.5556,-2.5587,-2.6219,-2.6547,-2.6663,-2.647,-2.6718,-2.6994,-2.6606,-2.7547,-2.8991,-3.025,-3.053,-3.0466,-3.0421,-3.0349,-3.0266,-3.0221,-3.0247,-3.0312,-3.0279,-3.0279,-3.0279,-3.0207,-3.0199,-3.0084,-2.9683,-2.8868,-2.8594,-2.9486,-2.8893,-2.8852,-3.0081,-3.0128,-2.9958,-2.9765,-2.9514,-2.9314,-2.9134,-2.9867,-3.0401,-3.0562,-3.0913,-3.076,-2.9976,-2.9329,-2.9085,-2.9245,-2.9085,-2.9085,-2.9245,-2.9085,-2.9392,-3.007,-2.9514,-2.9545,-2.9958,-2.9387,-2.901,-2.8834,-2.938,-2.9618,-2.9617,-2.9551,-2.9512,-2.9457,-2.8837,-2.8587,-2.8768,-2.4266,-2.4339,-2.4357,-2.4478,-2.4495,-2.4462,-2.4321,-2.4303,-2.4284,-2.4284,-2.4284,-2.4321,-2.4391,-2.4495,-2.4599,-2.4615,-2.4711,-2.4791,-2.4806,-2.4798,-2.4823,-2.4884,-2.4832,-2.4791,-2.4791,-2.4921,-2.5065,-2.5197,-2.5398,-2.5554,-2.5695,-2.5699,-2.5699,-2.5699,-2.5628,-2.5632,-2.5699,-2.5628,-2.5632,-2.5699,-2.5699,-2.5699,-2.5703,-2.5698,-2.5663,-2.5609,-2.5597,-2.556,-2.5499,-2.5569,-2.6083,-2.6566,-2.582,-2.6652,-2.7608,-2.6057,-2.6265,-2.7513,-2.993,-3.0499,-3.041,-3.041,-3.0292,-3.0199,-3.0207,-3.0247,-3.0279,-3.0221,-3.0266,-3.0266,-3.0199,-3.0204,-2.9683,-2.8147,-2.9078,-2.9524,-2.8089,-2.9168,-3.0158,-3.0292,-3.0075,-2.9902,-2.9886,-2.9532,-2.9283,-2.92,-2.9958,-3.0688,-3.1378,-3.0717,-2.9886,-2.8943,-2.8965,-2.9318,-3.0021,-2.9337,-2.9337,-3.0021,-2.9318,-2.9392,-3.0088,-3.0045,-3.002,-2.9995,-2.9872,-2.9445,-2.8785,-2.8717,-2.8746,-2.8764,-2.8703,-2.8685,-2.8685,-2.8605,-2.8587,-2.8605,-2.4265,-2.4444,-2.4549,-2.4615,-2.4564,-2.4478,-2.4426,-2.441,-2.4411,-2.4411,-2.4393,-2.4391,-2.4512,-2.4564,-2.4631,-2.466,-2.4726,-2.4742,-2.4742,-2.4738,-2.4783,-2.4842,-2.4931,-2.495,-2.4861,-2.5118,-2.5255,-2.5262,-2.5505,-2.5658,-2.5699,-2.5699,-2.5675,-2.5632,-2.5609,-2.5609,-2.5632,-2.5609,-2.5632,-2.5699,-2.5699,-2.5699,-2.5707,-2.5659,-2.5623,-2.5583,-2.5552,-2.5525,-2.5511,-2.5511,-2.5704,-2.5898,-2.5608,-2.5933,-2.6428,-2.6326,-2.6893,-2.7876,-2.9379,-2.9728,-2.977,-3.0213,-3.0273,-3.0194,-3.0199,-3.0253,-3.0279,-3.0213,-3.0253,-3.0266,-3.0199,-3.0204,-2.9989,-2.9352,-2.9778,-2.9989,-2.9333,-2.9819,-3.0207,-3.0109,-2.9934,-2.9803,-2.9718,-2.9451,-2.9505,-2.9965,-3.0715,-3.1241,-3.1489,-3.0613,-2.9972,-2.9625,-2.9132,-2.9028,-2.9362,-2.9117,-2.914,-2.9428,-2.9635,-2.9868,-3.0106,-3.0662,-3.0552,-2.9944,-2.9999,-2.9519,-2.8681,-2.8667,-2.8667,-2.8648,-2.8605,-2.8587,-2.8587,-2.8587,-2.8587,-2.8659,-2.4372,-2.4561,-2.4698,-2.4701,-2.4647,-2.4578,-2.4545,-2.453,-2.4549,-2.4566,-2.4495,-2.4512,-2.4613,-2.4629,-2.4645,-2.4692,-2.4707,-2.4707,-2.4707,-2.4738,-2.4779,-2.4837,-2.4985,-2.5057,-2.4993,-2.5265,-2.5387,-2.5352,-2.5595,-2.571,-2.571,-2.571,-2.5683,-2.5628,-2.5632,-2.5613,-2.5604,-2.5628,-2.5652,-2.5718,-2.5972,-2.5933,-2.573,-2.5937,-2.5849,-2.559,-2.5529,-2.551,-2.5511,-2.5511,-2.5492,-2.5499,-2.5499,-2.5696,-2.6081,-2.696,-2.759,-2.8189,-2.9032,-2.9245,-2.9368,-3.0148,-3.0286,-3.0221,-3.0226,-3.0266,-3.0292,-3.024,-3.0266,-3.0292,-3.0226,-3.0213,-3.0199,-3.0199,-3.0199,-3.0204,-3.0204,-3.0194,-3.0133,-2.9984,-2.9869,-2.9751,-2.9589,-2.9411,-2.9657,-3.0431,-3.1224,-3.1732,-3.1875,-3.0999,-3.035,-3.0038,-2.9204,-2.8785,-2.8858,-2.8905,-2.9051,-2.9284,-2.9862,-3.0137,-3.0124,-3.098,-3.0858,-2.9933,-3.0027,-2.9514,-2.8587,-2.8667,-2.8648,-2.8587,-2.8587,-2.8587,-2.8587,-2.8587,-2.8587,-2.8677,-2.4594,-2.4707,-2.4692,-2.4698,-2.4745,-2.4757,-2.4623,-2.4607,-2.4623,-2.4692,-2.4629,-2.4631,-2.4692,-2.4707,-2.4707,-2.4707,-2.4707,-2.4707,-2.4707,-2.4827,-2.4912,-2.4902,-2.498,-2.5057,-2.5187,-2.533,-2.5437,-2.5499,-2.5632,-2.571,-2.571,-2.571,-2.5701,-2.5699,-2.5707,-2.5664,-2.5604,-2.5675,-2.5699,-2.5777,-2.6576,-2.642,-2.5788,-2.6581,-2.6349,-2.5593,-2.5511,-2.551,-2.5511,-2.5511,-2.5499,-2.5495,-2.5495,-2.6091,-2.6985,-2.783,-2.8047,-2.8189,-2.8984,-2.9197,-2.9398,-3.021,-3.0362,-3.0292,-3.0292,-3.0299,-3.0292,-3.0292,-3.0299,-3.0292,-3.0292,-3.0234,-3.0188,-3.0188,-3.0213,-3.0204,-3.0204,-3.0194,-3.0114,-2.9927,-2.9832,-2.9713,-2.9514,-2.9433,-2.9699,-3.045,-3.1296,-3.2048,-3.2631,-3.1788,-3.0848,-2.993,-2.9112,-2.8694,-2.8694,-2.8761,-2.918,-2.9878,-2.9963,-3.0056,-3.0118,-3.0936,-3.083,-2.999,-3.0002,-2.9475,-2.8587,-2.8587,-2.8587,-2.8587,-2.8587,-2.8587,-2.8587,-2.8587,-2.8587,-2.8587,-2.4626,-2.4753,-2.4783,-2.4768,-2.4832,-2.4861,-2.4827,-2.4808,-2.4827,-2.4842,-2.4783,-2.4753,-2.4783,-2.4738,-2.4707,-2.4707,-2.4707,-2.4723,-2.4783,-2.4898,-2.4993,-2.5044,-2.5106,-2.5179,-2.5274,-2.541,-2.5492,-2.5565,-2.5655,-2.5693,-2.571,-2.571,-2.5704,-2.571,-2.5701,-2.5697,-2.5664,-2.5687,-2.5707,-2.5726,-2.5956,-2.5913,-2.571,-2.5918,-2.5832,-2.5589,-2.5518,-2.5499,-2.5511,-2.5511,-2.5499,-2.5503,-2.555,-2.6512,-2.759,-2.7283,-2.7973,-2.8888,-2.912,-2.9177,-2.9316,-3.0136,-3.0304,-3.0299,-3.0292,-3.0299,-3.0292,-3.0292,-3.0299,-3.0292,-3.0247,-3.0221,-3.0207,-3.0199,-3.0199,-3.0204,-3.0204,-3.0199,-3.0094,-2.9784,-2.9787,-2.9681,-2.9392,-2.9388,-2.972,-3.0497,-3.0687,-3.0793,-3.0943,-3.0112,-2.9485,-2.9125,-2.8889,-2.8737,-2.8637,-2.9307,-2.9466,-2.9156,-3.0903,-3.117,-3.0155,-3.1521,-3.1364,-3.0008,-2.9933,-2.9421,-2.8587,-2.8587,-2.8587,-2.8587,-2.8587,-2.8587,-2.8587,-2.8587,-2.8587,-2.8587,-2.4689,-2.4764,-2.4808,-2.4818,-2.4912,-2.4972,-2.4972,-2.4972,-2.4972,-2.4972,-2.487,-2.4794,-2.4794,-2.4753,-2.4707,-2.4707,-2.4704,-2.4764,-2.4837,-2.4985,-2.5051,-2.5101,-2.5153,-2.5233,-2.5339,-2.5439,-2.554,-2.5604,-2.5668,-2.5701,-2.5698,-2.5698,-2.569,-2.5701,-2.571,-2.5707,-2.5694,-2.5697,-2.5701,-2.5736,-2.6084,-2.5996,-2.5685,-2.5993,-2.5889,-2.5549,-2.5503,-2.5511,-2.5511,-2.5511,-2.5507,-2.5517,-2.5577,-2.6495,-2.7501,-2.7326,-2.7956,-2.885,-2.9506,-2.9387,-2.9294,-3.0136,-3.0336,-3.0336,-3.033,-3.0343,-3.0336,-3.033,-3.0343,-3.0323,-3.0254,-3.0247,-3.0221,-3.0194,-3.0199,-3.0204,-3.0204,-3.0204,-3.0064,-2.9698,-2.9717,-2.9626,-2.9304,-2.9323,-2.9678,-3.0476,-3.0697,-3.0746,-3.065,-2.9801,-2.929,-2.9234,-2.89,-2.8687,-2.8587,-2.9486,-2.9675,-2.9239,-3.1049,-3.1579,-3.0992,-3.1965,-3.1692,-3.0428,-3.0043,-2.9421,-2.8587,-2.8587,-2.8587,-2.8587,-2.8587,-2.8587,-2.8587,-2.8587,-2.8587,-2.8587,-2.4749,-2.4808,-2.4837,-2.4921,-2.5025,-2.5114,-2.5114,-2.5114,-2.5114,-2.5114,-2.4945,-2.4808,-2.4808,-2.4753,-2.4707,-2.4707,-2.4783,-2.4851,-2.4902,-2.5038,-2.5107,-2.5113,-2.5164,-2.5264,-2.5401,-2.5466,-2.554,-2.5605,-2.5676,-2.5707,-2.5707,-2.5707,-2.5701,-2.569,-2.5696,-2.569,-2.5694,-2.5704,-2.571,-2.5768,-2.6568,-2.6373,-2.5683,-2.6472,-2.6242,-2.5519,-2.5511,-2.5484,-2.5484,-2.5492,-2.5503,-2.5499,-2.557,-2.6152,-2.6941,-2.7671,-2.7939,-2.8328,-2.9773,-2.9586,-2.9179,-2.9975,-3.0167,-3.0206,-3.0359,-3.0398,-3.0379,-3.0302,-3.034,-3.0359,-3.022,-3.0241,-3.0241,-3.0125,-3.0155,-3.018,-3.0103,-3.0147,-3.0049,-2.9644,-2.9644,-2.957,-2.9243,-2.9262,-2.9576,-3.0231,-3.0951,-3.1286,-3.1089,-3.0319,-2.986,-2.9777,-2.9018,-2.8612,-2.8587,-2.9347,-2.9692,-2.971,-3.06,-3.1378,-3.21,-3.2087,-3.1691,-3.0954,-3.0159,-2.9323,-2.8587,-2.8587,-2.8587,-2.8587,-2.8587,-2.8587,-2.8587,-2.8587,-2.8587,-2.8587,-2.4779,-2.4931,-2.5044,-2.5057,-2.512,-2.5187,-2.5187,-2.5187,-2.5187,-2.5187,-2.5095,-2.4999,-2.4888,-2.4823,-2.4764,-2.4764,-2.4945,-2.5044,-2.5057,-2.5132,-2.5168,-2.518,-2.5231,-2.5312,-2.5398,-2.5479,-2.5556,-2.5673,-2.5683,-2.5705,-2.5701,-2.5701,-2.5701,-2.5698,-2.5693,-2.5693,-2.5693,-2.5701,-2.5701,-2.5729,-2.591,-2.5863,-2.5681,-2.5779,-2.5703,-2.5563,-2.5472,-2.5429,-2.5437,-2.5483,-2.5505,-2.5499,-2.557,-2.6152,-2.6824,-2.7001,-2.7503,-2.8058,-2.8357,-2.8266,-2.8137,-2.8318,-2.8365,-2.8718,-3.009,-3.0398,-3.0217,-2.9525,-2.9929,-3.0186,-2.9478,-2.9882,-3.0068,-2.9379,-2.9826,-3.0036,-2.9366,-2.9713,-2.9946,-2.9696,-2.9645,-2.9531,-2.9304,-2.9344,-2.9357,-2.9301,-2.9485,-2.9441,-2.9196,-2.9125,-2.9009,-2.8909,-2.8791,-2.87,-2.8587,-2.8768,-2.8858,-2.8869,-3.0386,-3.0865,-3.0425,-3.0409,-3.034,-3.0097,-2.925,-2.8757,-2.8587,-2.8587,-2.8587,-2.8587,-2.8587,-2.8587,-2.8587,-2.8587,-2.8587,-2.8587,-2.4865,-2.5018,-2.5114,-2.5151,-2.5187,-2.5191,-2.5191,-2.5168,-2.5168,-2.521,-2.512,-2.5038,-2.4993,-2.494,-2.4912,-2.4953,-2.5044,-2.5114,-2.5151,-2.5168,-2.5191,-2.5191,-2.5252,-2.533,-2.5406,-2.5511,-2.56,-2.5698,-2.5705,-2.5705,-2.5698,-2.5698,-2.5698,-2.5696,-2.569,-2.5693,-2.5698,-2.5707,-2.5707,-2.5696,-2.5703,-2.5676,-2.5644,-2.5567,-2.5556,-2.5531,-2.5437,-2.5404,-2.5412,-2.5488,-2.549,-2.5505,-2.5577,-2.59,-2.6295,-2.6645,-2.6787,-2.6966,-2.7652,-2.7544,-2.733,-2.77,-2.7816,-2.8076,-2.8964,-2.9156,-2.9021,-2.8571,-2.886,-2.9071,-2.8564,-2.8814,-2.8967,-2.8509,-2.913,-2.9513,-2.9053,-2.9565,-2.9779,-2.9202,-2.9382,-2.949,-2.9323,-2.9365,-2.9323,-2.9112,-2.9108,-2.8975,-2.8712,-2.8761,-2.8737,-2.8612,-2.8669,-2.8669,-2.8587,-2.8587,-2.8587,-2.8605,-2.9878,-3.0464,-3.0421,-2.998,-2.9827,-2.9799,-2.8938,-2.8562,-2.8587,-2.8587,-2.8587,-2.8587,-2.8587,-2.8587,-2.8587,-2.8587,-2.8587,-2.8587,-2.498,-2.5038,-2.5126,-2.5168,-2.518,-2.518,-2.518,-2.5144,-2.5125,-2.518,-2.5088,-2.5051,-2.5095,-2.5063,-2.5044,-2.5101,-2.512,-2.5132,-2.521,-2.5191,-2.5191,-2.5191,-2.5273,-2.5348,-2.5406,-2.554,-2.5644,-2.5698,-2.5705,-2.5705,-2.5698,-2.5698,-2.5693,-2.5707,-2.5704,-2.571,-2.5698,-2.571,-2.569,-2.5701,-2.5691,-2.5663,-2.562,-2.5597,-2.5551,-2.5492,-2.5437,-2.5404,-2.5404,-2.5484,-2.5507,-2.551,-2.559,-2.5583,-2.5693,-2.632,-2.6006,-2.5768,-2.7024,-2.6888,-2.6523,-2.7209,-2.7424,-2.7426,-2.7377,-2.7607,-2.7761,-2.7627,-2.7764,-2.7879,-2.7823,-2.7931,-2.8007,-2.8023,-2.8713,-2.918,-2.9015,-2.9565,-2.9684,-2.8822,-2.9158,-2.9431,-2.9344,-2.9365,-2.9347,-2.92,-2.9197,-2.9067,-2.8791,-2.8804,-2.873,-2.8612,-2.8587,-2.8587,-2.8587,-2.8587,-2.8587,-2.8605,-2.9268,-2.9951,-3.0531,-2.9809,-2.9529,-2.9522,-2.8807,-2.8528,-2.8587,-2.8587,-2.8587,-2.8587,-2.8587,-2.8587,-2.8587,-2.8587,-2.8587,-2.8587,-2.4993,-2.5044,-2.5101,-2.5113,-2.5113,-2.5113,-2.5113,-2.5113,-2.5113,-2.5113,-2.5156,-2.5149,-2.5111,-2.5134,-2.5141,-2.5094,-2.516,-2.5184,-2.5191,-2.5191,-2.5191,-2.5191,-2.5322,-2.5379,-2.5395,-2.5591,-2.569,-2.5698,-2.5705,-2.5703,-2.569,-2.569,-2.5704,-2.5694,-2.5707,-2.5694,-2.571,-2.5691,-2.5697,-2.5698,-2.5696,-2.5683,-2.568,-2.5623,-2.5566,-2.5511,-2.549,-2.5445,-2.5401,-2.548,-2.549,-2.5511,-2.557,-2.5551,-2.5531,-2.5642,-2.5545,-2.5444,-2.5611,-2.5522,-2.5433,-2.5608,-2.5606,-2.5584,-2.5627,-2.6792,-2.7678,-2.6918,-2.7371,-2.789,-2.7879,-2.8467,-2.8917,-2.8921,-2.9644,-2.9932,-2.9123,-2.9541,-2.9829,-2.9649,-2.9495,-2.9407,-2.9386,-2.9386,-2.9347,-2.92,-2.9193,-2.9085,-2.8803,-2.8785,-2.8746,-2.8587,-2.8587,-2.8587,-2.8587,-2.8587,-2.8587,-2.8587,-2.8703,-2.8775,-2.8837,-2.8732,-2.8655,-2.8568,-2.846,-2.8458,-2.8518,-2.8518,-2.8562,-2.8587,-2.8587,-2.8587,-2.8587,-2.8587,-2.8587,-2.8587,-2.5012,-2.5051,-2.5095,-2.5095,-2.5095,-2.5107,-2.5101,-2.5076,-2.5076,-2.5156,-2.516,-2.5145,-2.5149,-2.522,-2.5239,-2.5217,-2.5187,-2.5206,-2.5195,-2.5203,-2.5214,-2.5261,-2.5339,-2.5418,-2.5467,-2.5613,-2.5693,-2.5698,-2.5705,-2.5703,-2.571,-2.571,-2.5701,-2.5703,-2.5699,-2.5707,-2.5701,-2.5707,-2.5691,-2.571,-2.5696,-2.5703,-2.5682,-2.5626,-2.5552,-2.5492,-2.5418,-2.5387,-2.5395,-2.5421,-2.548,-2.5517,-2.5538,-2.5518,-2.5505,-2.5499,-2.544,-2.5397,-2.5322,-2.5273,-2.5252,-2.5252,-2.5241,-2.5261,-2.5282,-2.5908,-2.6341,-2.5946,-2.6187,-2.6591,-2.708,-2.7456,-2.7871,-2.836,-2.9129,-2.9509,-2.9015,-2.9497,-2.982,-2.9589,-2.9042,-2.8868,-2.9351,-2.9407,-2.9347,-2.92,-2.928,-2.9152,-2.8815,-2.8881,-2.8828,-2.8612,-2.8587,-2.8587,-2.8587,-2.8587,-2.8587,-2.8587,-2.8587,-2.8569,-2.8551,-2.8531,-2.8497,-2.8434,-2.8425,-2.8452,-2.8492,-2.8492,-2.8536,-2.8587,-2.8587,-2.8587,-2.8587,-2.8587,-2.8587,-2.8587]}]]